| time (UTC) | temp C | wind direction | speed KPH | gust KPH | rain 1hr cm | rain 24hr cm | rain mn cm | humidity % | barometer mb |
| 20260905235038 | 27 | 243 | 4.8 | 16.1 | 0.00 | 0.00 | 0.00 | 35 | 1011.9 |
| 20260905234926 | 27 | 241 | 4.8 | 14.5 | 0.00 | 0.00 | 0.00 | 34 | 1011.9 |
| 20260905234825 | 27 | 220 | 4.8 | 14.5 | 0.00 | 0.00 | 0.00 | 36 | 1011.9 |
| 20260905234724 | 27 | 165 | 4.8 | 14.5 | 0.00 | 0.00 | 0.00 | 36 | 1011.9 |
| 20260905234623 | 27 | 248 | 4.8 | 14.5 | 0.00 | 0.00 | 0.00 | 35 | 1011.9 |
| 20260905234523 | 27 | 235 | 4.8 | 14.5 | 0.00 | 0.00 | 0.00 | 35 | 1011.9 |
| 20260905234415 | 27 | 160 | 4.8 | 14.5 | 0.00 | 0.00 | 0.00 | 35 | 1011.9 |
| 20260905234315 | 27 | 225 | 6.4 | 14.5 | 0.00 | 0.00 | 0.00 | 35 | 1012.0 |
| 20260905234216 | 27 | 235 | 6.4 | 16.1 | 0.00 | 0.00 | 0.00 | 35 | 1012.0 |
| 20260905234116 | 27 | 248 | 6.4 | 16.1 | 0.00 | 0.00 | 0.00 | 36 | 1012.0 |
| 20260905234016 | 27 | 248 | 6.4 | 16.1 | 0.00 | 0.00 | 0.00 | 36 | 1012.0 |
| 20260905233909 | 27 | 231 | 6.4 | 16.1 | 0.00 | 0.00 | 0.00 | 36 | 1011.9 |
| 20260905233810 | 27 | 253 | 6.4 | 16.1 | 0.00 | 0.00 | 0.00 | 36 | 1011.9 |
| 20260905233730 | 27 | 243 | 8.0 | 16.1 | 0.00 | 0.00 | 0.00 | 36 | 1012.0 |
| 20260905233714 | 27 | 248 | 6.4 | 16.1 | 0.00 | 0.00 | 0.00 | 36 | 1011.9 |
| 20260905233626 | 27 | 238 | 8.0 | 16.1 | 0.00 | 0.00 | 0.00 | 36 | 1011.9 |
| 20260905233616 | 27 | 243 | 8.0 | 16.1 | 0.00 | 0.00 | 0.00 | 36 | 1012.0 |
| 20260905233403 | 27 | 259 | 8.0 | 17.7 | 0.00 | 0.00 | 0.00 | 36 | 1011.9 |
| 20260905233304 | 27 | 249 | 8.0 | 17.7 | 0.00 | 0.00 | 0.00 | 36 | 1011.9 |
| 20260905233203 | 27 | 238 | 8.0 | 17.7 | 0.00 | 0.00 | 0.00 | 36 | 1012.0 |
| 20260905233103 | 27 | 233 | 8.0 | 17.7 | 0.00 | 0.00 | 0.00 | 36 | 1012.0 |
| 20260905233005 | 27 | 233 | 8.0 | 17.7 | 0.00 | 0.00 | 0.00 | 35 | 1012.0 |
| 20260905232859 | 27 | 229 | 8.0 | 17.7 | 0.00 | 0.00 | 0.00 | 35 | 1012.0 |
| 20260905232757 | 27 | 243 | 8.0 | 17.7 | 0.00 | 0.00 | 0.00 | 35 | 1012.0 |
| 20260905232657 | 27 | 226 | 8.0 | 17.7 | 0.00 | 0.00 | 0.00 | 35 | 1012.0 |
| 20260905232557 | 27 | 224 | 8.0 | 17.7 | 0.00 | 0.00 | 0.00 | 35 | 1012.0 |
| 20260905232458 | 27 | 239 | 8.0 | 17.7 | 0.00 | 0.00 | 0.00 | 35 | 1012.0 |
| 20260905232351 | 28 | 200 | 8.0 | 19.3 | 0.00 | 0.00 | 0.00 | 35 | 1012.0 |
| 20260905232251 | 28 | 242 | 8.0 | 19.3 | 0.00 | 0.00 | 0.00 | 35 | 1012.0 |
| 20260905232151 | 28 | 231 | 8.0 | 19.3 | 0.00 | 0.00 | 0.00 | 35 | 1012.0 |
| 20260905232052 | 28 | 233 | 8.0 | 19.3 | 0.00 | 0.00 | 0.00 | 35 | 1012.0 |
| 20260905231953 | 28 | 270 | 8.0 | 19.3 | 0.00 | 0.00 | 0.00 | 35 | 1012.0 |
| 20260905231845 | 28 | 194 | 8.0 | 19.3 | 0.00 | 0.00 | 0.00 | 35 | 1012.0 |
| 20260905231747 | 28 | 212 | 8.0 | 19.3 | 0.00 | 0.00 | 0.00 | 36 | 1012.0 |
| 20260905231710 | 28 | 229 | 6.4 | 14.5 | 0.00 | 0.00 | 0.00 | 34 | 1012.0 |
| 20260905231645 | 28 | 226 | 8.0 | 19.3 | 0.00 | 0.00 | 0.00 | 35 | 1012.0 |
| 20260905231601 | 28 | 222 | 6.4 | 19.3 | 0.00 | 0.00 | 0.00 | 35 | 1012.0 |
| 20260905231551 | 28 | 229 | 6.4 | 14.5 | 0.00 | 0.00 | 0.00 | 34 | 1012.0 |
| 20260905231339 | 28 | 238 | 4.8 | 14.5 | 0.00 | 0.00 | 0.00 | 35 | 1012.0 |
| 20260905231240 | 28 | 148 | 4.8 | 14.5 | 0.00 | 0.00 | 0.00 | 34 | 1012.0 |
| 20260905231139 | 28 | 167 | 4.8 | 14.5 | 0.00 | 0.00 | 0.00 | 35 | 1012.0 |
| 20260905231039 | 28 | 218 | 4.8 | 14.5 | 0.00 | 0.00 | 0.00 | 35 | 1012.0 |
| 20260905230940 | 28 | 176 | 3.2 | 14.5 | 0.00 | 0.00 | 0.00 | 35 | 1012.0 |
| 20260905230833 | 28 | 179 | 3.2 | 14.5 | 0.00 | 0.00 | 0.00 | 37 | 1012.0 |
| 20260905230736 | 28 | 233 | 3.2 | 17.7 | 0.00 | 0.00 | 0.00 | 36 | 1012.1 |
| 20260905230633 | 28 | 206 | 3.2 | 17.7 | 0.00 | 0.00 | 0.00 | 36 | 1012.1 |
| 20260905230533 | 28 | 206 | 4.8 | 17.7 | 0.00 | 0.00 | 0.00 | 36 | 1012.1 |
| 20260905230435 | 28 | 234 | 3.2 | 17.7 | 0.00 | 0.00 | 0.00 | 35 | 1012.0 |
| 20260905230327 | 28 | 204 | 3.2 | 17.7 | 0.00 | 0.00 | 0.00 | 36 | 1012.1 |
| 20260905230228 | 28 | 214 | 3.2 | 17.7 | 0.00 | 0.00 | 0.00 | 35 | 1012.1 |
| 20260905230149 | 28 | 205 | 4.8 | 17.7 | 0.00 | 0.00 | 0.00 | 35 | 1012.1 |
| 20260905230127 | 28 | 197 | 3.2 | 17.7 | 0.00 | 0.00 | 0.00 | 35 | 1012.1 |
| 20260905230046 | 28 | 212 | 4.8 | 17.7 | 0.00 | 0.00 | 0.00 | 35 | 1012.1 |
| 20260905230033 | 28 | 205 | 4.8 | 17.7 | 0.00 | 0.00 | 0.00 | 35 | 1012.1 |
| 20260905225828 | 28 | 235 | 4.8 | 17.7 | 0.00 | 0.00 | 0.00 | 35 | 1012.1 |
| 20260905225727 | 28 | 243 | 3.2 | 14.5 | 0.00 | 0.00 | 0.00 | 35 | 1012.1 |
| 20260905225625 | 28 | 275 | 3.2 | 14.5 | 0.00 | 0.00 | 0.00 | 35 | 1012.0 |
| 20260905225524 | 28 | 266 | 4.8 | 14.5 | 0.00 | 0.00 | 0.00 | 36 | 1012.1 |
| 20260905225422 | 28 | 257 | 4.8 | 14.5 | 0.00 | 0.00 | 0.00 | 36 | 1012.1 |
| 20260905225317 | 28 | 238 | 4.8 | 14.5 | 0.00 | 0.00 | 0.00 | 35 | 1012.1 |
| 20260905225215 | 28 | 188 | 4.8 | 14.5 | 0.00 | 0.00 | 0.00 | 35 | 1012.1 |
| 20260905225115 | 28 | 149 | 4.8 | 14.5 | 0.00 | 0.00 | 0.00 | 35 | 1012.1 |
| 20260905225016 | 28 | 131 | 4.8 | 14.5 | 0.00 | 0.00 | 0.00 | 35 | 1012.1 |
| 20260905224916 | 28 | 197 | 3.2 | 14.5 | 0.00 | 0.00 | 0.00 | 35 | 1012.2 |
| 20260905224809 | 28 | 250 | 3.2 | 14.5 | 0.00 | 0.00 | 0.00 | 36 | 1012.2 |
| 20260905224712 | 28 | 210 | 3.2 | 14.5 | 0.00 | 0.00 | 0.00 | 35 | 1012.2 |
| 20260905224610 | 28 | 250 | 3.2 | 14.5 | 0.00 | 0.00 | 0.00 | 35 | 1012.2 |
| 20260905224510 | 28 | 197 | 1.6 | 14.5 | 0.00 | 0.00 | 0.00 | 35 | 1012.3 |
| 20260905224411 | 28 | 239 | 1.6 | 14.5 | 0.00 | 0.00 | 0.00 | 35 | 1012.4 |
| 20260905224307 | 28 | 194 | 1.6 | 9.7 | 0.00 | 0.00 | 0.00 | 35 | 1012.3 |
| 20260905224212 | 28 | 235 | 1.6 | 9.7 | 0.00 | 0.00 | 0.00 | 35 | 1012.3 |
| 20260905224107 | 28 | 224 | 1.6 | 9.7 | 0.00 | 0.00 | 0.00 | 35 | 1012.4 |
| 20260905224005 | 28 | 231 | 1.6 | 9.7 | 0.00 | 0.00 | 0.00 | 35 | 1012.3 |
| 20260905223909 | 28 | 170 | 1.6 | 6.4 | 0.00 | 0.00 | 0.00 | 36 | 1012.4 |
| 20260905223903 | 28 | 214 | 1.6 | 6.4 | 0.00 | 0.00 | 0.00 | 36 | 1012.4 |
| 20260905223800 | 28 | 215 | 1.6 | 6.4 | 0.00 | 0.00 | 0.00 | 37 | 1012.4 |
| 20260905223657 | 28 | 215 | 1.6 | 6.4 | 0.00 | 0.00 | 0.00 | 36 | 1012.4 |
| 20260905223557 | 28 | 215 | 1.6 | 6.4 | 0.00 | 0.00 | 0.00 | 37 | 1012.4 |
| 20260905223457 | 28 | 215 | 1.6 | 6.4 | 0.00 | 0.00 | 0.00 | 36 | 1012.4 |
| 20260905223407 | 28 | 222 | 1.6 | 6.4 | 0.00 | 0.00 | 0.00 | 36 | 1012.4 |
| 20260905223357 | 28 | 222 | 1.6 | 6.4 | 0.00 | 0.00 | 0.00 | 36 | 1012.4 |
| 20260905223258 | 28 | 238 | 1.6 | 4.8 | 0.00 | 0.00 | 0.00 | 36 | 1012.4 |
| 20260905223156 | 28 | 240 | 1.6 | 4.8 | 0.00 | 0.00 | 0.00 | 37 | 1012.4 |
| 20260905223054 | 28 | 214 | 3.2 | 6.4 | 0.00 | 0.00 | 0.00 | 37 | 1012.4 |
| 20260905222954 | 28 | 311 | 3.2 | 8.0 | 0.00 | 0.00 | 0.00 | 36 | 1012.4 |
| 20260905222906 | 28 | 311 | 3.2 | 8.0 | 0.00 | 0.00 | 0.00 | 37 | 1012.4 |
| 20260905222851 | 28 | 359 | 3.2 | 8.0 | 0.00 | 0.00 | 0.00 | 37 | 1012.4 |
| 20260905222750 | 28 | 284 | 3.2 | 8.0 | 0.00 | 0.00 | 0.00 | 38 | 1012.5 |
| 20260905222649 | 28 | 340 | 3.2 | 8.0 | 0.00 | 0.00 | 0.00 | 37 | 1012.5 |
| 20260905222627 | 28 | 243 | 3.2 | 12.9 | 0.00 | 0.00 | 0.00 | 37 | 1012.5 |
| 20260905222549 | 28 | 304 | 3.2 | 12.9 | 0.00 | 0.00 | 0.00 | 37 | 1012.5 |
| 20260905222515 | 28 | 243 | 3.2 | 12.9 | 0.00 | 0.00 | 0.00 | 37 | 1012.4 |
| 20260905222345 | 28 | 243 | 3.2 | 12.9 | 0.00 | 0.00 | 0.00 | 37 | 1012.5 |
| 20260905222242 | 28 | 243 | 3.2 | 12.9 | 0.00 | 0.00 | 0.00 | 37 | 1012.4 |
| 20260905222139 | 28 | 259 | 3.2 | 12.9 | 0.00 | 0.00 | 0.00 | 36 | 1012.4 |
| 20260905222040 | 28 | 231 | 3.2 | 12.9 | 0.00 | 0.00 | 0.00 | 37 | 1012.4 |
| 20260905221939 | 28 | 242 | 3.2 | 12.9 | 0.00 | 0.00 | 0.00 | 37 | 1012.5 |
| 20260905221905 | 28 | 242 | 3.2 | 12.9 | 0.00 | 0.00 | 0.00 | 37 | 1012.5 |
| 20260905221839 | 28 | 231 | 3.2 | 12.9 | 0.00 | 0.00 | 0.00 | 37 | 1012.5 |
| 20260905221736 | 28 | 245 | 3.2 | 12.9 | 0.00 | 0.00 | 0.00 | 37 | 1012.5 |
| 20260905221635 | 27 | 231 | 3.2 | 12.9 | 0.00 | 0.00 | 0.00 | 37 | 1012.4 |
| 20260905221535 | 27 | 205 | 3.2 | 9.7 | 0.00 | 0.00 | 0.00 | 36 | 1012.5 |
| 20260905221435 | 28 | 229 | 3.2 | 9.7 | 0.00 | 0.00 | 0.00 | 36 | 1012.5 |
| 20260905221404 | 28 | 232 | 3.2 | 9.7 | 0.00 | 0.00 | 0.00 | 35 | 1012.5 |
| 20260905221333 | 28 | 232 | 3.2 | 11.3 | 0.00 | 0.00 | 0.00 | 35 | 1012.5 |
| 20260905221233 | 28 | 215 | 3.2 | 11.3 | 0.00 | 0.00 | 0.00 | 36 | 1012.5 |
| 20260905221135 | 28 | 205 | 3.2 | 11.3 | 0.00 | 0.00 | 0.00 | 36 | 1012.6 |
| 20260905221131 | 28 | 236 | 1.6 | 11.3 | 0.00 | 0.00 | 0.00 | 36 | 1012.5 |
| 20260905221034 | 28 | 238 | 1.6 | 11.3 | 0.00 | 0.00 | 0.00 | 36 | 1012.5 |
| 20260905221015 | 28 | 193 | 3.2 | 11.3 | 0.00 | 0.00 | 0.00 | 36 | 1012.5 |
| 20260905220827 | 28 | 226 | 3.2 | 11.3 | 0.00 | 0.00 | 0.00 | 37 | 1012.6 |
| 20260905220722 | 28 | 216 | 3.2 | 11.3 | 0.00 | 0.00 | 0.00 | 37 | 1012.6 |
| 20260905220628 | 28 | 243 | 3.2 | 11.3 | 0.00 | 0.00 | 0.00 | 36 | 1012.6 |
| 20260905220622 | 28 | 215 | 3.2 | 11.3 | 0.00 | 0.00 | 0.00 | 36 | 1012.5 |
| 20260905220524 | 28 | 215 | 3.2 | 11.3 | 0.00 | 0.00 | 0.00 | 37 | 1012.5 |
| 20260905220515 | 28 | 243 | 3.2 | 11.3 | 0.00 | 0.00 | 0.00 | 36 | 1012.6 |
| 20260905220322 | 27 | 304 | 3.2 | 11.3 | 0.00 | 0.00 | 0.00 | 36 | 1012.6 |
| 20260905220217 | 27 | 231 | 3.2 | 11.3 | 0.00 | 0.00 | 0.00 | 37 | 1012.6 |
| 20260905220115 | 27 | 223 | 4.8 | 11.3 | 0.00 | 0.00 | 0.00 | 37 | 1012.6 |
| 20260905220025 | 27 | 238 | 4.8 | 11.3 | 0.00 | 0.00 | 0.00 | 36 | 1012.7 |
| 20260905215915 | 27 | 236 | 3.2 | 11.3 | 0.00 | 0.00 | 0.00 | 37 | 1012.7 |
| 20260905215903 | 27 | 238 | 3.2 | 11.3 | 0.00 | 0.00 | 0.00 | 37 | 1012.7 |
| 20260905215815 | 27 | 224 | 3.2 | 11.3 | 0.00 | 0.00 | 0.00 | 37 | 1012.8 |
| 20260905215710 | 27 | 225 | 3.2 | 11.3 | 0.00 | 0.00 | 0.00 | 38 | 1012.8 |
| 20260905215615 | 28 | 239 | 1.6 | 9.7 | 0.00 | 0.00 | 0.00 | 37 | 1012.8 |
| 20260905215609 | 27 | 293 | 3.2 | 11.3 | 0.00 | 0.00 | 0.00 | 37 | 1012.8 |
| 20260905215519 | 27 | 305 | 3.2 | 11.3 | 0.00 | 0.00 | 0.00 | 36 | 1012.8 |
| 20260905215510 | 27 | 321 | 3.2 | 8.0 | 0.00 | 0.00 | 0.00 | 36 | 1012.7 |
| 20260905215459 | 28 | 316 | 3.2 | 8.0 | 0.00 | 0.00 | 0.00 | 36 | 1012.7 |
| 20260905215309 | 28 | 311 | 3.2 | 8.0 | 0.00 | 0.00 | 0.00 | 36 | 1012.7 |
| 20260905215241 | 28 | 333 | 1.6 | 8.0 | 0.00 | 0.00 | 0.00 | 36 | 1012.7 |
| 20260905215103 | 28 | 249 | 1.6 | 8.0 | 0.00 | 0.00 | 0.00 | 37 | 1012.7 |
| 20260905215019 | 28 | 9 | 1.6 | 8.0 | 0.00 | 0.00 | 0.00 | 38 | 1012.8 |
| 20260905215009 | 28 | 239 | 1.6 | 9.7 | 0.00 | 0.00 | 0.00 | 37 | 1012.8 |
| 20260905214805 | 27 | 224 | 1.6 | 9.7 | 0.00 | 0.00 | 0.00 | 37 | 1012.8 |
| 20260905214705 | 27 | 285 | 3.2 | 9.7 | 0.00 | 0.00 | 0.00 | 37 | 1012.8 |
| 20260905214600 | 27 | 302 | 1.6 | 9.7 | 0.00 | 0.00 | 0.00 | 36 | 1012.8 |
| 20260905214501 | 27 | 162 | 1.6 | 9.7 | 0.00 | 0.00 | 0.00 | 36 | 1012.8 |
| 20260905214405 | 27 | 236 | 1.6 | 9.7 | 0.00 | 0.00 | 0.00 | 36 | 1012.8 |
| 20260905214257 | 27 | 232 | 1.6 | 9.7 | 0.00 | 0.00 | 0.00 | 37 | 1012.8 |
| 20260905214157 | 27 | 222 | 1.6 | 9.7 | 0.00 | 0.00 | 0.00 | 36 | 1012.9 |
| 20260905214055 | 27 | 221 | 1.6 | 9.7 | 0.00 | 0.00 | 0.00 | 36 | 1012.8 |
| 20260905213956 | 27 | 191 | 1.6 | 9.7 | 0.00 | 0.00 | 0.00 | 35 | 1012.9 |
| 20260905213858 | 27 | 236 | 1.6 | 8.0 | 0.00 | 0.00 | 0.00 | 36 | 1012.9 |
| 20260905213853 | 27 | 233 | 1.6 | 8.0 | 0.00 | 0.00 | 0.00 | 36 | 1012.9 |
| 20260905213752 | 28 | 334 | 1.6 | 11.3 | 0.00 | 0.00 | 0.00 | 35 | 1012.9 |
| 20260905213645 | 28 | 338 | 3.2 | 11.3 | 0.00 | 0.00 | 0.00 | 36 | 1012.9 |
| 20260905213545 | 28 | 300 | 3.2 | 11.3 | 0.00 | 0.00 | 0.00 | 37 | 1012.9 |
| 20260905213445 | 28 | 281 | 3.2 | 11.3 | 0.00 | 0.00 | 0.00 | 36 | 1012.9 |
| 20260905213358 | 27 | 270 | 3.2 | 12.9 | 0.00 | 0.00 | 0.00 | 36 | 1012.9 |
| 20260905213345 | 27 | 270 | 3.2 | 12.9 | 0.00 | 0.00 | 0.00 | 37 | 1012.9 |
| 20260905213245 | 27 | 243 | 4.8 | 12.9 | 0.00 | 0.00 | 0.00 | 37 | 1012.9 |
| 20260905213142 | 27 | 243 | 4.8 | 12.9 | 0.00 | 0.00 | 0.00 | 37 | 1012.9 |
| 20260905213059 | 27 | 245 | 4.8 | 14.5 | 0.00 | 0.00 | 0.00 | 37 | 1013.0 |
| 20260905212939 | 27 | 232 | 4.8 | 14.5 | 0.00 | 0.00 | 0.00 | 39 | 1013.0 |
| 20260905212859 | 27 | 228 | 4.8 | 14.5 | 0.00 | 0.00 | 0.00 | 39 | 1013.0 |
| 20260905212846 | 27 | 210 | 3.2 | 14.5 | 0.00 | 0.00 | 0.00 | 39 | 1013.0 |
| 20260905212839 | 27 | 226 | 4.8 | 14.5 | 0.00 | 0.00 | 0.00 | 39 | 1013.0 |
| 20260905212740 | 27 | 201 | 4.8 | 14.5 | 0.00 | 0.00 | 0.00 | 38 | 1013.0 |
| 20260905212732 | 27 | 151 | 4.8 | 14.5 | 0.00 | 0.00 | 0.00 | 38 | 1013.0 |
| 20260905212537 | 27 | 226 | 3.2 | 14.5 | 0.00 | 0.00 | 0.00 | 38 | 1013.0 |
| 20260905212509 | 27 | 228 | 3.2 | 14.5 | 0.00 | 0.00 | 0.00 | 39 | 1013.0 |
| 20260905212335 | 27 | 200 | 3.2 | 14.5 | 0.00 | 0.00 | 0.00 | 38 | 1013.0 |
| 20260905212235 | 27 | 246 | 3.2 | 14.5 | 0.00 | 0.00 | 0.00 | 39 | 1013.0 |
| 20260905212127 | 27 | 219 | 3.2 | 14.5 | 0.00 | 0.00 | 0.00 | 38 | 1013.1 |
| 20260905212027 | 27 | 240 | 3.2 | 9.7 | 0.00 | 0.00 | 0.00 | 38 | 1013.1 |
| 20260905211927 | 27 | 226 | 1.6 | 9.7 | 0.00 | 0.00 | 0.00 | 37 | 1013.0 |
| 20260905211859 | 27 | 233 | 1.6 | 8.0 | 0.00 | 0.00 | 0.00 | 37 | 1013.1 |
| 20260905211825 | 27 | 160 | 1.6 | 8.0 | 0.00 | 0.00 | 0.00 | 38 | 1013.1 |
| 20260905211726 | 27 | 214 | 1.6 | 8.0 | 0.00 | 0.00 | 0.00 | 38 | 1013.1 |
| 20260905211620 | 27 | 355 | 1.6 | 8.0 | 0.00 | 0.00 | 0.00 | 38 | 1013.1 |
| 20260905211519 | 27 | 355 | 1.6 | 8.0 | 0.00 | 0.00 | 0.00 | 38 | 1013.1 |
| 20260905211421 | 27 | 11 | 1.6 | 8.0 | 0.00 | 0.00 | 0.00 | 38 | 1013.2 |
| 20260905211411 | 27 | 11 | 1.6 | 8.0 | 0.00 | 0.00 | 0.00 | 38 | 1013.2 |
| 20260905211320 | 27 | 333 | 1.6 | 8.0 | 0.00 | 0.00 | 0.00 | 38 | 1013.2 |
| 20260905211220 | 27 | 302 | 1.6 | 4.8 | 0.00 | 0.00 | 0.00 | 39 | 1013.2 |
| 20260905211120 | 27 | 284 | 1.6 | 4.8 | 0.00 | 0.00 | 0.00 | 39 | 1013.2 |
| 20260905211113 | 27 | 264 | 1.6 | 4.8 | 0.00 | 0.00 | 0.00 | 40 | 1013.1 |
| 20260905211016 | 27 | 217 | 1.6 | 4.8 | 0.00 | 0.00 | 0.00 | 39 | 1013.2 |
| 20260905211008 | 27 | 284 | 1.6 | 4.8 | 0.00 | 0.00 | 0.00 | 39 | 1013.2 |
| 20260905210814 | 27 | 291 | 1.6 | 4.8 | 0.00 | 0.00 | 0.00 | 40 | 1013.2 |
| 20260905210715 | 27 | 291 | 1.6 | 4.8 | 0.00 | 0.00 | 0.00 | 39 | 1013.2 |
| 20260905210608 | 27 | 316 | 1.6 | 4.8 | 0.00 | 0.00 | 0.00 | 40 | 1013.1 |
| 20260905210507 | 27 | 240 | 1.6 | 6.4 | 0.00 | 0.00 | 0.00 | 41 | 1013.2 |
| 20260905210407 | 27 | 240 | 1.6 | 9.7 | 0.00 | 0.00 | 0.00 | 41 | 1013.2 |
| 20260905210356 | 27 | 240 | 1.6 | 9.7 | 0.00 | 0.00 | 0.00 | 41 | 1013.2 |
| 20260905210308 | 27 | 95 | 1.6 | 9.7 | 0.00 | 0.00 | 0.00 | 40 | 1013.1 |
| 20260905210211 | 27 | 70 | 1.6 | 9.7 | 0.00 | 0.00 | 0.00 | 41 | 1013.1 |
| 20260905210108 | 27 | 70 | 3.2 | 9.7 | 0.00 | 0.00 | 0.00 | 41 | 1013.2 |
| 20260905210005 | 26 | 72 | 3.2 | 9.7 | 0.00 | 0.00 | 0.00 | 42 | 1013.2 |
| 20260905205905 | 26 | 72 | 4.8 | 14.5 | 0.00 | 0.00 | 0.00 | 42 | 1013.1 |
| 20260905205855 | 26 | 72 | 4.8 | 14.5 | 0.00 | 0.00 | 0.00 | 42 | 1013.1 |
| 20260905205804 | 26 | 59 | 4.8 | 14.5 | 0.00 | 0.00 | 0.00 | 41 | 1013.2 |
| 20260905205701 | 26 | 119 | 4.8 | 14.5 | 0.00 | 0.00 | 0.00 | 41 | 1013.1 |
| 20260905205557 | 26 | 86 | 4.8 | 14.5 | 0.00 | 0.00 | 0.00 | 41 | 1013.2 |
| 20260905205456 | 26 | 213 | 4.8 | 16.1 | 0.00 | 0.00 | 0.00 | 41 | 1013.2 |
| 20260905205357 | 26 | 215 | 4.8 | 16.1 | 0.00 | 0.00 | 0.00 | 42 | 1013.2 |
| 20260905205256 | 26 | 234 | 4.8 | 16.1 | 0.00 | 0.00 | 0.00 | 43 | 1013.3 |
| 20260905205155 | 26 | 170 | 4.8 | 16.1 | 0.00 | 0.00 | 0.00 | 42 | 1013.3 |
| 20260905205052 | 26 | 224 | 4.8 | 16.1 | 0.00 | 0.00 | 0.00 | 42 | 1013.3 |
| 20260905204951 | 26 | 242 | 4.8 | 16.1 | 0.00 | 0.00 | 0.00 | 41 | 1013.3 |
| 20260905204857 | 26 | 243 | 3.2 | 16.1 | 0.00 | 0.00 | 0.00 | 41 | 1013.3 |
| 20260905204851 | 26 | 242 | 3.2 | 16.1 | 0.00 | 0.00 | 0.00 | 41 | 1013.3 |
| 20260905204752 | 26 | 253 | 3.2 | 16.1 | 0.00 | 0.00 | 0.00 | 41 | 1013.3 |
| 20260905204649 | 26 | 242 | 3.2 | 16.1 | 0.00 | 0.00 | 0.00 | 41 | 1013.3 |
| 20260905204546 | 26 | 226 | 3.2 | 16.1 | 0.00 | 0.00 | 0.00 | 42 | 1013.3 |
| 20260905204444 | 26 | 226 | 3.2 | 8.0 | 0.00 | 0.00 | 0.00 | 43 | 1013.3 |
| 20260905204353 | 26 | 201 | 3.2 | 8.0 | 0.00 | 0.00 | 0.00 | 43 | 1013.3 |
| 20260905204344 | 26 | 232 | 3.2 | 8.0 | 0.00 | 0.00 | 0.00 | 43 | 1013.3 |
| 20260905204244 | 26 | 337 | 3.2 | 8.0 | 0.00 | 0.00 | 0.00 | 43 | 1013.2 |
| 20260905204143 | 26 | 335 | 3.2 | 8.0 | 0.00 | 0.00 | 0.00 | 44 | 1013.3 |
| 20260905204111 | 26 | 355 | 3.2 | 8.0 | 0.00 | 0.00 | 0.00 | 43 | 1013.4 |
| 20260905204037 | 26 | 356 | 3.2 | 8.0 | 0.00 | 0.00 | 0.00 | 45 | 1013.3 |
| 20260905204001 | 26 | 355 | 3.2 | 8.0 | 0.00 | 0.00 | 0.00 | 44 | 1013.3 |
| 20260905203838 | 26 | 355 | 3.2 | 8.0 | 0.00 | 0.00 | 0.00 | 43 | 1013.4 |
| 20260905203738 | 26 | 356 | 3.2 | 8.0 | 0.00 | 0.00 | 0.00 | 44 | 1013.4 |
| 20260905203637 | 26 | 316 | 3.2 | 8.0 | 0.00 | 0.00 | 0.00 | 43 | 1013.4 |
| 20260905203535 | 26 | 311 | 3.2 | 8.0 | 0.00 | 0.00 | 0.00 | 42 | 1013.4 |
| 20260905203436 | 26 | 347 | 1.6 | 6.4 | 0.00 | 0.00 | 0.00 | 42 | 1013.4 |
| 20260905203350 | 26 | 338 | 1.6 | 6.4 | 0.00 | 0.00 | 0.00 | 42 | 1013.4 |
| 20260905203335 | 26 | 339 | 1.6 | 6.4 | 0.00 | 0.00 | 0.00 | 42 | 1013.4 |
| 20260905203233 | 26 | 242 | 1.6 | 6.4 | 0.00 | 0.00 | 0.00 | 43 | 1013.4 |
| 20260905203131 | 26 | 243 | 1.6 | 6.4 | 0.00 | 0.00 | 0.00 | 43 | 1013.4 |
| 20260905203025 | 26 | 242 | 1.6 | 6.4 | 0.00 | 0.00 | 0.00 | 42 | 1013.4 |
| 20260905202925 | 26 | 231 | 1.6 | 6.4 | 0.00 | 0.00 | 0.00 | 43 | 1013.4 |
| 20260905202851 | 26 | 228 | 1.6 | 6.4 | 0.00 | 0.00 | 0.00 | 44 | 1013.4 |
| 20260905202825 | 26 | 190 | 1.6 | 6.4 | 0.00 | 0.00 | 0.00 | 44 | 1013.4 |
| 20260905202726 | 26 | 321 | 1.6 | 8.0 | 0.00 | 0.00 | 0.00 | 43 | 1013.4 |
| 20260905202626 | 26 | 231 | 1.6 | 8.0 | 0.00 | 0.00 | 0.00 | 42 | 1013.4 |
| 20260905202526 | 26 | 309 | 1.6 | 8.0 | 0.00 | 0.00 | 0.00 | 42 | 1013.4 |
| 20260905202424 | 26 | 316 | 1.6 | 8.0 | 0.00 | 0.00 | 0.00 | 42 | 1013.5 |
| 20260905202348 | 26 | 316 | 1.6 | 8.0 | 0.00 | 0.00 | 0.00 | 42 | 1013.5 |
| 20260905202324 | 26 | 233 | 1.6 | 8.0 | 0.00 | 0.00 | 0.00 | 42 | 1013.5 |
| 20260905202221 | 26 | 231 | 1.6 | 8.0 | 0.00 | 0.00 | 0.00 | 43 | 1013.5 |
| 20260905202119 | 26 | 231 | 1.6 | 8.0 | 0.00 | 0.00 | 0.00 | 44 | 1013.5 |
| 20260905202017 | 26 | 231 | 1.6 | 8.0 | 0.00 | 0.00 | 0.00 | 44 | 1013.4 |
| 20260905201913 | 26 | 231 | 1.6 | 8.0 | 0.00 | 0.00 | 0.00 | 44 | 1013.4 |
| 20260905201849 | 26 | 243 | 1.6 | 8.0 | 0.00 | 0.00 | 0.00 | 44 | 1013.4 |
| 20260905201813 | 26 | 217 | 1.6 | 6.4 | 0.00 | 0.00 | 0.00 | 44 | 1013.4 |
| 20260905201715 | 26 | 314 | 1.6 | 4.8 | 0.00 | 0.00 | 0.00 | 44 | 1013.4 |
| 20260905201613 | 26 | 288 | 1.6 | 4.8 | 0.00 | 0.00 | 0.00 | 44 | 1013.5 |
| 20260905201513 | 26 | 288 | 1.6 | 4.8 | 0.00 | 0.00 | 0.00 | 45 | 1013.5 |
| 20260905201411 | 26 | 288 | 1.6 | 4.8 | 0.00 | 0.00 | 0.00 | 45 | 1013.4 |
| 20260905201348 | 26 | 291 | 1.6 | 4.8 | 0.00 | 0.00 | 0.00 | 45 | 1013.4 |
| 20260905201311 | 26 | 291 | 1.6 | 4.8 | 0.00 | 0.00 | 0.00 | 46 | 1013.4 |
| 20260905201212 | 26 | 11 | 1.6 | 4.8 | 0.00 | 0.00 | 0.00 | 45 | 1013.5 |
| 20260905201109 | 26 | 318 | 1.6 | 6.4 | 0.00 | 0.00 | 0.00 | 46 | 1013.5 |
| 20260905201010 | 26 | 50 | 1.6 | 6.4 | 0.00 | 0.00 | 0.00 | 46 | 1013.5 |
| 20260905200910 | 25 | 307 | 1.6 | 6.4 | 0.00 | 0.00 | 0.00 | 46 | 1013.5 |
| 20260905200849 | 25 | 307 | 1.6 | 6.4 | 0.00 | 0.00 | 0.00 | 46 | 1013.5 |
| 20260905200809 | 25 | 287 | 1.6 | 6.4 | 0.00 | 0.00 | 0.00 | 48 | 1013.6 |
| 20260905200711 | 25 | 232 | 1.6 | 6.4 | 0.00 | 0.00 | 0.00 | 48 | 1013.6 |
| 20260905200609 | 25 | 346 | 1.6 | 6.4 | 0.00 | 0.00 | 0.00 | 48 | 1013.6 |
| 20260905200510 | 25 | 346 | 1.6 | 6.4 | 0.00 | 0.00 | 0.00 | 49 | 1013.6 |
| 20260905200408 | 25 | 314 | 1.6 | 6.4 | 0.00 | 0.00 | 0.00 | 48 | 1013.6 |
| 20260905200349 | 25 | 314 | 1.6 | 6.4 | 0.00 | 0.00 | 0.00 | 48 | 1013.6 |
| 20260905200306 | 25 | 314 | 1.6 | 6.4 | 0.00 | 0.00 | 0.00 | 47 | 1013.6 |
| 20260905200209 | 25 | 314 | 1.6 | 6.4 | 0.00 | 0.00 | 0.00 | 47 | 1013.6 |
| 20260905200106 | 25 | 322 | 1.6 | 6.4 | 0.00 | 0.00 | 0.00 | 48 | 1013.6 |
| 20260905200004 | 25 | 321 | 3.2 | 6.4 | 0.00 | 0.00 | 0.00 | 47 | 1013.7 |
| 20260905195847 | 25 | 321 | 3.2 | 12.9 | 0.00 | 0.00 | 0.00 | 47 | 1013.6 |
| 20260905195804 | 25 | 321 | 3.2 | 12.9 | 0.00 | 0.00 | 0.00 | 46 | 1013.7 |
| 20260905195703 | 25 | 328 | 3.2 | 12.9 | 0.00 | 0.00 | 0.00 | 47 | 1013.7 |
| 20260905195601 | 25 | 26 | 3.2 | 12.9 | 0.00 | 0.00 | 0.00 | 46 | 1013.7 |
| 20260905195501 | 25 | 33 | 3.2 | 12.9 | 0.00 | 0.00 | 0.00 | 46 | 1013.7 |
| 20260905195346 | 25 | 337 | 3.2 | 12.9 | 0.00 | 0.00 | 0.00 | 48 | 1013.7 |
| 20260905195259 | 25 | 333 | 3.2 | 12.9 | 0.00 | 0.00 | 0.00 | 47 | 1013.7 |
| 20260905195158 | 25 | 335 | 3.2 | 12.9 | 0.00 | 0.00 | 0.00 | 48 | 1013.8 |
| 20260905195057 | 25 | 158 | 3.2 | 12.9 | 0.00 | 0.00 | 0.00 | 47 | 1013.8 |
| 20260905194958 | 25 | 166 | 1.6 | 12.9 | 0.00 | 0.00 | 0.00 | 46 | 1013.8 |
| 20260905194857 | 25 | 250 | 1.6 | 9.7 | 0.00 | 0.00 | 0.00 | 47 | 1013.7 |
| 20260905194846 | 25 | 250 | 1.6 | 9.7 | 0.00 | 0.00 | 0.00 | 46 | 1013.7 |
| 20260905194755 | 26 | 236 | 1.6 | 6.4 | 0.00 | 0.00 | 0.00 | 48 | 1013.7 |
| 20260905194654 | 26 | 229 | 1.6 | 6.4 | 0.00 | 0.00 | 0.00 | 47 | 1013.7 |
| 20260905194553 | 26 | 229 | 1.6 | 6.4 | 0.00 | 0.00 | 0.00 | 48 | 1013.7 |
| 20260905194451 | 26 | 228 | 1.6 | 6.4 | 0.00 | 0.00 | 0.00 | 48 | 1013.8 |
| 20260905194350 | 26 | 242 | 1.6 | 6.4 | 0.00 | 0.00 | 0.00 | 48 | 1013.8 |
| 20260905194250 | 25 | 333 | 1.6 | 6.4 | 0.00 | 0.00 | 0.00 | 48 | 1013.8 |
| 20260905194148 | 25 | 333 | 1.6 | 6.4 | 0.00 | 0.00 | 0.00 | 49 | 1013.7 |
| 20260905194047 | 25 | 347 | 3.2 | 8.0 | 0.00 | 0.00 | 0.00 | 50 | 1013.8 |
| 20260905193945 | 25 | 236 | 3.2 | 9.7 | 0.00 | 0.00 | 0.00 | 50 | 1013.8 |
| 20260905193845 | 25 | 151 | 3.2 | 9.7 | 0.00 | 0.00 | 0.00 | 49 | 1013.8 |
| 20260905193739 | 25 | 211 | 4.8 | 9.7 | 0.00 | 0.00 | 0.00 | 49 | 1013.8 |
| 20260905193637 | 25 | 241 | 4.8 | 9.7 | 0.00 | 0.00 | 0.00 | 50 | 1013.8 |
| 20260905193538 | 25 | 59 | 4.8 | 11.3 | 0.00 | 0.00 | 0.00 | 49 | 1013.8 |
| 20260905193437 | 25 | 57 | 4.8 | 11.3 | 0.00 | 0.00 | 0.00 | 49 | 1013.8 |
| 20260905193338 | 25 | 84 | 4.8 | 11.3 | 0.00 | 0.00 | 0.00 | 49 | 1013.9 |
| 20260905193231 | 25 | 215 | 4.8 | 11.3 | 0.00 | 0.00 | 0.00 | 49 | 1013.9 |
| 20260905193131 | 25 | 144 | 3.2 | 11.3 | 0.00 | 0.00 | 0.00 | 48 | 1013.9 |
| 20260905193031 | 25 | 229 | 3.2 | 11.3 | 0.00 | 0.00 | 0.00 | 48 | 1013.9 |
| 20260905192931 | 25 | 162 | 3.2 | 11.3 | 0.00 | 0.00 | 0.00 | 49 | 1014.0 |
| 20260905192832 | 25 | 214 | 3.2 | 11.3 | 0.00 | 0.00 | 0.00 | 48 | 1013.9 |
| 20260905192730 | 25 | 224 | 3.2 | 11.3 | 0.00 | 0.00 | 0.00 | 49 | 1014.0 |
| 20260905192629 | 25 | 142 | 1.6 | 9.7 | 0.00 | 0.00 | 0.00 | 49 | 1013.9 |
| 20260905192528 | 25 | 218 | 1.6 | 6.4 | 0.00 | 0.00 | 0.00 | 50 | 1014.0 |
| 20260905192427 | 25 | 226 | 1.6 | 6.4 | 0.00 | 0.00 | 0.00 | 50 | 1014.0 |
| 20260905192326 | 25 | 226 | 1.6 | 6.4 | 0.00 | 0.00 | 0.00 | 51 | 1013.9 |
| 20260905192226 | 25 | 226 | 1.6 | 6.4 | 0.00 | 0.00 | 0.00 | 50 | 1014.0 |
| 20260905192123 | 25 | 328 | 1.6 | 6.4 | 0.00 | 0.00 | 0.00 | 48 | 1014.0 |
| 20260905192045 | 25 | 326 | 1.6 | 9.7 | 0.00 | 0.00 | 0.00 | 48 | 1014.0 |
| 20260905192024 | 25 | 332 | 1.6 | 9.7 | 0.00 | 0.00 | 0.00 | 49 | 1014.0 |
| 20260905191936 | 25 | 311 | 1.6 | 9.7 | 0.00 | 0.00 | 0.00 | 49 | 1014.0 |
| 20260905191925 | 25 | 326 | 1.6 | 9.7 | 0.00 | 0.00 | 0.00 | 48 | 1014.0 |
| 20260905191716 | 25 | 222 | 1.6 | 9.7 | 0.00 | 0.00 | 0.00 | 50 | 1014.0 |
| 20260905191615 | 25 | 219 | 1.6 | 9.7 | 0.00 | 0.00 | 0.00 | 50 | 1014.0 |
| 20260905191515 | 25 | 219 | 3.2 | 9.7 | 0.00 | 0.00 | 0.00 | 51 | 1014.0 |
| 20260905191416 | 25 | 219 | 3.2 | 9.7 | 0.00 | 0.00 | 0.00 | 51 | 1014.1 |
| 20260905191313 | 25 | 219 | 3.2 | 9.7 | 0.00 | 0.00 | 0.00 | 50 | 1014.1 |
| 20260905191212 | 25 | 219 | 3.2 | 9.7 | 0.00 | 0.00 | 0.00 | 50 | 1014.1 |
| 20260905191111 | 25 | 149 | 3.2 | 9.7 | 0.00 | 0.00 | 0.00 | 51 | 1014.1 |
| 20260905191040 | 24 | 146 | 3.2 | 9.7 | 0.00 | 0.00 | 0.00 | 51 | 1014.1 |
| 20260905191012 | 25 | 172 | 3.2 | 9.7 | 0.00 | 0.00 | 0.00 | 51 | 1014.2 |
| 20260905190927 | 25 | 222 | 3.2 | 9.7 | 0.00 | 0.00 | 0.00 | 51 | 1014.1 |
| 20260905190811 | 24 | 269 | 3.2 | 9.7 | 0.00 | 0.00 | 0.00 | 51 | 1014.1 |
| 20260905190713 | 24 | 224 | 3.2 | 9.7 | 0.00 | 0.00 | 0.00 | 51 | 1014.1 |
| 20260905190609 | 24 | 105 | 3.2 | 9.7 | 0.00 | 0.00 | 0.00 | 51 | 1014.2 |
| 20260905190510 | 24 | 175 | 1.6 | 9.7 | 0.00 | 0.00 | 0.00 | 51 | 1014.2 |
| 20260905190409 | 24 | 198 | 1.6 | 9.7 | 0.00 | 0.00 | 0.00 | 51 | 1014.2 |
| 20260905190315 | 24 | 162 | 1.6 | 4.8 | 0.00 | 0.00 | 0.00 | 51 | 1014.2 |
| 20260905190310 | 24 | 161 | 1.6 | 4.8 | 0.00 | 0.00 | 0.00 | 51 | 1014.2 |
| 20260905190211 | 24 | 122 | 1.6 | 4.8 | 0.00 | 0.00 | 0.00 | 51 | 1014.2 |
| 20260905190107 | 24 | 114 | 1.6 | 3.2 | 0.00 | 0.00 | 0.00 | 51 | 1014.2 |
| 20260905190005 | 24 | 87 | 1.6 | 4.8 | 0.00 | 0.00 | 0.00 | 52 | 1014.2 |
| 20260905185905 | 24 | 125 | 1.6 | 8.0 | 0.00 | 0.00 | 0.00 | 52 | 1014.2 |
| 20260905185812 | 23 | 150 | 1.6 | 11.3 | 0.00 | 0.00 | 0.00 | 53 | 1014.2 |
| 20260905185805 | 23 | 149 | 3.2 | 11.3 | 0.00 | 0.00 | 0.00 | 53 | 1014.2 |
| 20260905185710 | 23 | 149 | 3.2 | 14.5 | 0.00 | 0.00 | 0.00 | 53 | 1014.3 |
| 20260905185605 | 23 | 203 | 3.2 | 14.5 | 0.00 | 0.00 | 0.00 | 54 | 1014.2 |
| 20260905185505 | 23 | 203 | 3.2 | 14.5 | 0.00 | 0.00 | 0.00 | 54 | 1014.2 |
| 20260905185404 | 23 | 203 | 3.2 | 14.5 | 0.00 | 0.00 | 0.00 | 53 | 1014.3 |
| 20260905185313 | 23 | 188 | 3.2 | 14.5 | 0.00 | 0.00 | 0.00 | 52 | 1014.3 |
| 20260905185306 | 23 | 188 | 3.2 | 14.5 | 0.00 | 0.00 | 0.00 | 52 | 1014.3 |
| 20260905185202 | 23 | 194 | 3.2 | 14.5 | 0.00 | 0.00 | 0.00 | 52 | 1014.3 |
| 20260905185100 | 23 | 232 | 3.2 | 14.5 | 0.00 | 0.00 | 0.00 | 52 | 1014.3 |
| 20260905184959 | 23 | 236 | 3.2 | 14.5 | 0.00 | 0.00 | 0.00 | 51 | 1014.3 |
| 20260905184900 | 24 | 226 | 1.6 | 14.5 | 0.00 | 0.00 | 0.00 | 52 | 1014.3 |
| 20260905184811 | 24 | 238 | 1.6 | 14.5 | 0.00 | 0.00 | 0.00 | 53 | 1014.4 |
| 20260905184802 | 24 | 219 | 1.6 | 14.5 | 0.00 | 0.00 | 0.00 | 53 | 1014.4 |
| 20260905184659 | 23 | 217 | 1.6 | 6.4 | 0.00 | 0.00 | 0.00 | 55 | 1014.3 |
| 20260905184557 | 23 | 328 | 1.6 | 6.4 | 0.00 | 0.00 | 0.00 | 55 | 1014.3 |
| 20260905184532 | 23 | 240 | 3.2 | 12.9 | 0.00 | 0.00 | 0.00 | 55 | 1014.3 |
| 20260905184451 | 23 | 328 | 1.6 | 11.3 | 0.00 | 0.00 | 0.00 | 54 | 1014.3 |
| 20260905184352 | 23 | 325 | 3.2 | 12.9 | 0.00 | 0.00 | 0.00 | 55 | 1014.3 |
| 20260905184252 | 23 | 240 | 3.2 | 12.9 | 0.00 | 0.00 | 0.00 | 55 | 1014.3 |
| 20260905184151 | 23 | 240 | 3.2 | 12.9 | 0.00 | 0.00 | 0.00 | 55 | 1014.3 |
| 20260905184051 | 23 | 240 | 3.2 | 12.9 | 0.00 | 0.00 | 0.00 | 56 | 1014.3 |
| 20260905183951 | 23 | 240 | 3.2 | 12.9 | 0.00 | 0.00 | 0.00 | 56 | 1014.3 |
| 20260905183849 | 23 | 240 | 3.2 | 12.9 | 0.00 | 0.00 | 0.00 | 55 | 1014.3 |
| 20260905183809 | 23 | 240 | 3.2 | 12.9 | 0.00 | 0.00 | 0.00 | 55 | 1014.4 |
| 20260905183751 | 23 | 241 | 3.2 | 12.9 | 0.00 | 0.00 | 0.00 | 56 | 1014.4 |
| 20260905183650 | 23 | 240 | 3.2 | 12.9 | 0.00 | 0.00 | 0.00 | 55 | 1014.4 |
| 20260905183550 | 23 | 231 | 3.2 | 12.9 | 0.00 | 0.00 | 0.00 | 54 | 1014.3 |
| 20260905183449 | 23 | 229 | 1.6 | 12.9 | 0.00 | 0.00 | 0.00 | 54 | 1014.4 |
| 20260905183350 | 23 | 243 | 1.6 | 9.7 | 0.00 | 0.00 | 0.00 | 55 | 1014.3 |
| 20260905183308 | 23 | 194 | 1.6 | 6.4 | 0.00 | 0.00 | 0.00 | 56 | 1014.3 |
| 20260905183250 | 23 | 162 | 1.6 | 6.4 | 0.00 | 0.00 | 0.00 | 56 | 1014.3 |
| 20260905183149 | 23 | 135 | 1.6 | 6.4 | 0.00 | 0.00 | 0.00 | 57 | 1014.3 |
| 20260905183047 | 23 | 216 | 1.6 | 6.4 | 0.00 | 0.00 | 0.00 | 57 | 1014.3 |
| 20260905182947 | 22 | 200 | 3.2 | 6.4 | 0.00 | 0.00 | 0.00 | 57 | 1014.3 |
| 20260905182846 | 22 | 242 | 3.2 | 8.0 | 0.00 | 0.00 | 0.00 | 58 | 1014.3 |
| 20260905182808 | 22 | 225 | 3.2 | 8.0 | 0.00 | 0.00 | 0.00 | 59 | 1014.3 |
| 20260905182746 | 22 | 223 | 3.2 | 8.0 | 0.00 | 0.00 | 0.00 | 58 | 1014.3 |
| 20260905182645 | 22 | 222 | 4.8 | 11.3 | 0.00 | 0.00 | 0.00 | 59 | 1014.3 |
| 20260905182546 | 22 | 222 | 4.8 | 16.1 | 0.00 | 0.00 | 0.00 | 58 | 1014.3 |
| 20260905182445 | 22 | 222 | 4.8 | 16.1 | 0.00 | 0.00 | 0.00 | 58 | 1014.3 |
| 20260905182344 | 22 | 224 | 4.8 | 16.1 | 0.00 | 0.00 | 0.00 | 58 | 1014.3 |
| 20260905182308 | 22 | 221 | 4.8 | 16.1 | 0.00 | 0.00 | 0.00 | 59 | 1014.3 |
| 20260905182244 | 22 | 176 | 4.8 | 16.1 | 0.00 | 0.00 | 0.00 | 59 | 1014.3 |
| 20260905182144 | 22 | 233 | 4.8 | 16.1 | 0.00 | 0.00 | 0.00 | 59 | 1014.3 |
| 20260905182043 | 22 | 229 | 4.8 | 16.1 | 0.00 | 0.00 | 0.00 | 59 | 1014.3 |
| 20260905182034 | 22 | 233 | 3.2 | 16.1 | 0.00 | 0.00 | 0.00 | 58 | 1014.3 |
| 20260905181943 | 22 | 223 | 4.8 | 16.1 | 0.00 | 0.00 | 0.00 | 59 | 1014.4 |
| 20260905181919 | 22 | 239 | 3.2 | 16.1 | 0.00 | 0.00 | 0.00 | 58 | 1014.3 |
| 20260905181743 | 22 | 231 | 3.2 | 16.1 | 0.00 | 0.00 | 0.00 | 58 | 1014.3 |
| 20260905181643 | 22 | 229 | 1.6 | 16.1 | 0.00 | 0.00 | 0.00 | 57 | 1014.3 |
| 20260905181543 | 23 | 238 | 1.6 | 9.7 | 0.00 | 0.00 | 0.00 | 58 | 1014.3 |
| 20260905181444 | 22 | 215 | 1.6 | 6.4 | 0.00 | 0.00 | 0.00 | 60 | 1014.3 |
| 20260905181343 | 22 | 143 | 1.6 | 6.4 | 0.00 | 0.00 | 0.00 | 60 | 1014.3 |
| 20260905181308 | 22 | 221 | 1.6 | 6.4 | 0.00 | 0.00 | 0.00 | 61 | 1014.3 |
| 20260905181244 | 22 | 233 | 1.6 | 6.4 | 0.00 | 0.00 | 0.00 | 61 | 1014.3 |
| 20260905181144 | 22 | 233 | 1.6 | 6.4 | 0.00 | 0.00 | 0.00 | 61 | 1014.3 |
| 20260905181043 | 22 | 233 | 1.6 | 6.4 | 0.00 | 0.00 | 0.00 | 61 | 1014.3 |
| 20260905180942 | 22 | 233 | 1.6 | 9.7 | 0.00 | 0.00 | 0.00 | 62 | 1014.3 |
| 20260905180841 | 22 | 233 | 1.6 | 9.7 | 0.00 | 0.00 | 0.00 | 62 | 1014.3 |
| 20260905180808 | 22 | 233 | 1.6 | 9.7 | 0.00 | 0.00 | 0.00 | 62 | 1014.3 |
| 20260905180740 | 22 | 233 | 1.6 | 9.7 | 0.00 | 0.00 | 0.00 | 61 | 1014.3 |
| 20260905180637 | 22 | 233 | 1.6 | 9.7 | 0.00 | 0.00 | 0.00 | 62 | 1014.3 |
| 20260905180538 | 22 | 233 | 1.6 | 9.7 | 0.00 | 0.00 | 0.00 | 62 | 1014.3 |
| 20260905180438 | 22 | 235 | 1.6 | 9.7 | 0.00 | 0.00 | 0.00 | 61 | 1014.3 |
| 20260905180337 | 22 | 229 | 1.6 | 9.7 | 0.00 | 0.00 | 0.00 | 62 | 1014.3 |
| 20260905180309 | 22 | 228 | 1.6 | 9.7 | 0.00 | 0.00 | 0.00 | 62 | 1014.3 |
| 20260905180239 | 22 | 228 | 1.6 | 9.7 | 0.00 | 0.00 | 0.00 | 61 | 1014.3 |
| 20260905180135 | 22 | 222 | 1.6 | 9.7 | 0.00 | 0.00 | 0.00 | 61 | 1014.3 |
| 20260905180034 | 22 | 274 | 1.6 | 9.7 | 0.00 | 0.00 | 0.00 | 61 | 1014.3 |
| 20260905175933 | 22 | 236 | 1.6 | 6.4 | 0.00 | 0.00 | 0.00 | 62 | 1014.3 |
| 20260905175808 | 22 | 218 | 1.6 | 6.4 | 0.00 | 0.00 | 0.00 | 63 | 1014.3 |
| 20260905175732 | 21 | 218 | 1.6 | 6.4 | 0.00 | 0.00 | 0.00 | 63 | 1014.3 |
| 20260905175630 | 21 | 130 | 1.6 | 6.4 | 0.00 | 0.00 | 0.00 | 63 | 1014.2 |
| 20260905175529 | 21 | 232 | 1.6 | 6.4 | 0.00 | 0.00 | 0.00 | 62 | 1014.3 |
| 20260905175429 | 21 | 228 | 1.6 | 6.4 | 0.00 | 0.00 | 0.00 | 62 | 1014.3 |
| 20260905175330 | 21 | 303 | 1.6 | 4.8 | 0.00 | 0.00 | 0.00 | 62 | 1014.2 |
| 20260905175309 | 21 | 304 | 0.0 | 4.8 | 0.00 | 0.00 | 0.00 | 62 | 1014.3 |
| 20260905175231 | 21 | 357 | 0.0 | 4.8 | 0.00 | 0.00 | 0.00 | 62 | 1014.3 |
| 20260905175129 | 22 | 26 | 1.6 | 4.8 | 0.00 | 0.00 | 0.00 | 62 | 1014.2 |
| 20260905175028 | 22 | 26 | 1.6 | 4.8 | 0.00 | 0.00 | 0.00 | 62 | 1014.3 |
| 20260905174928 | 22 | 56 | 1.6 | 6.4 | 0.00 | 0.00 | 0.00 | 62 | 1014.3 |
| 20260905174827 | 21 | 57 | 1.6 | 6.4 | 0.00 | 0.00 | 0.00 | 63 | 1014.3 |
| 20260905174803 | 21 | 70 | 1.6 | 6.4 | 0.00 | 0.00 | 0.00 | 63 | 1014.3 |
| 20260905174726 | 21 | 146 | 1.6 | 6.4 | 0.00 | 0.00 | 0.00 | 63 | 1014.3 |
| 20260905174623 | 21 | 146 | 3.2 | 6.4 | 0.00 | 0.00 | 0.00 | 63 | 1014.3 |
| 20260905174526 | 21 | 235 | 3.2 | 8.0 | 0.00 | 0.00 | 0.00 | 63 | 1014.3 |
| 20260905174517 | 21 | 219 | 3.2 | 8.0 | 0.00 | 0.00 | 0.00 | 64 | 1014.3 |
| 20260905174421 | 21 | 123 | 3.2 | 8.0 | 0.00 | 0.00 | 0.00 | 64 | 1014.3 |
| 20260905174407 | 21 | 141 | 3.2 | 8.0 | 0.00 | 0.00 | 0.00 | 64 | 1014.3 |
| 20260905174220 | 21 | 219 | 3.2 | 8.0 | 0.00 | 0.00 | 0.00 | 63 | 1014.3 |
| 20260905174117 | 21 | 210 | 3.2 | 8.0 | 0.00 | 0.00 | 0.00 | 63 | 1014.3 |
| 20260905174011 | 21 | 226 | 3.2 | 8.0 | 0.00 | 0.00 | 0.00 | 62 | 1014.3 |
| 20260905173911 | 21 | 228 | 3.2 | 8.0 | 0.00 | 0.00 | 0.00 | 63 | 1014.3 |
| 20260905173811 | 21 | 222 | 3.2 | 8.0 | 0.00 | 0.00 | 0.00 | 62 | 1014.3 |
| 20260905173751 | 21 | 222 | 3.2 | 8.0 | 0.00 | 0.00 | 0.00 | 62 | 1014.3 |
| 20260905173713 | 21 | 235 | 1.6 | 8.0 | 0.00 | 0.00 | 0.00 | 62 | 1014.4 |
| 20260905173611 | 21 | 232 | 1.6 | 8.0 | 0.00 | 0.00 | 0.00 | 63 | 1014.3 |
| 20260905173507 | 21 | 144 | 1.6 | 8.0 | 0.00 | 0.00 | 0.00 | 63 | 1014.3 |
| 20260905173407 | 21 | 143 | 3.2 | 8.0 | 0.00 | 0.00 | 0.00 | 63 | 1014.3 |
| 20260905173308 | 21 | 143 | 3.2 | 8.0 | 0.00 | 0.00 | 0.00 | 64 | 1014.3 |
| 20260905173245 | 21 | 144 | 3.2 | 8.0 | 0.00 | 0.00 | 0.00 | 63 | 1014.3 |
| 20260905173208 | 21 | 208 | 3.2 | 8.0 | 0.00 | 0.00 | 0.00 | 63 | 1014.3 |
| 20260905173105 | 21 | 150 | 3.2 | 8.0 | 0.00 | 0.00 | 0.00 | 64 | 1014.3 |
| 20260905173002 | 21 | 210 | 3.2 | 8.0 | 0.00 | 0.00 | 0.00 | 63 | 1014.2 |
| 20260905172859 | 21 | 207 | 1.6 | 8.0 | 0.00 | 0.00 | 0.00 | 63 | 1014.2 |
| 20260905172739 | 21 | 207 | 1.6 | 8.0 | 0.00 | 0.00 | 0.00 | 65 | 1014.2 |
| 20260905172659 | 21 | 204 | 1.6 | 8.0 | 0.00 | 0.00 | 0.00 | 64 | 1014.2 |
| 20260905172559 | 21 | 204 | 1.6 | 8.0 | 0.00 | 0.00 | 0.00 | 63 | 1014.2 |
| 20260905172459 | 21 | 204 | 1.6 | 8.0 | 0.00 | 0.00 | 0.00 | 63 | 1014.2 |
| 20260905172358 | 21 | 248 | 1.6 | 8.0 | 0.00 | 0.00 | 0.00 | 64 | 1014.2 |
| 20260905172257 | 21 | 141 | 1.6 | 8.0 | 0.00 | 0.00 | 0.00 | 65 | 1014.2 |
| 20260905172233 | 21 | 134 | 1.6 | 9.7 | 0.00 | 0.00 | 0.00 | 65 | 1014.2 |
| 20260905172156 | 21 | 184 | 1.6 | 9.7 | 0.00 | 0.00 | 0.00 | 66 | 1014.2 |
| 20260905172053 | 20 | 167 | 1.6 | 9.7 | 0.00 | 0.00 | 0.00 | 67 | 1014.1 |
| 20260905171952 | 20 | 105 | 1.6 | 9.7 | 0.00 | 0.00 | 0.00 | 67 | 1014.2 |
| 20260905171851 | 20 | 108 | 1.6 | 9.7 | 0.00 | 0.00 | 0.00 | 67 | 1014.2 |
| 20260905171751 | 20 | 107 | 1.6 | 9.7 | 0.00 | 0.00 | 0.00 | 67 | 1014.2 |
| 20260905171727 | 20 | 108 | 1.6 | 9.7 | 0.00 | 0.00 | 0.00 | 67 | 1014.2 |
| 20260905171649 | 20 | 112 | 3.2 | 9.7 | 0.00 | 0.00 | 0.00 | 67 | 1014.2 |
| 20260905171548 | 20 | 111 | 3.2 | 9.7 | 0.00 | 0.00 | 0.00 | 68 | 1014.1 |
| 20260905171445 | 20 | 138 | 1.6 | 8.0 | 0.00 | 0.00 | 0.00 | 67 | 1014.2 |
| 20260905171441 | 20 | 111 | 3.2 | 9.7 | 0.00 | 0.00 | 0.00 | 68 | 1014.2 |
| 20260905171342 | 20 | 129 | 3.2 | 9.7 | 0.00 | 0.00 | 0.00 | 67 | 1014.2 |
| 20260905171332 | 20 | 132 | 1.6 | 8.0 | 0.00 | 0.00 | 0.00 | 67 | 1014.2 |
| 20260905171141 | 20 | 152 | 1.6 | 8.0 | 0.00 | 0.00 | 0.00 | 67 | 1014.2 |
| 20260905171041 | 20 | 200 | 1.6 | 8.0 | 0.00 | 0.00 | 0.00 | 67 | 1014.2 |
| 20260905170941 | 20 | 200 | 1.6 | 8.0 | 0.00 | 0.00 | 0.00 | 67 | 1014.2 |
| 20260905170839 | 20 | 200 | 1.6 | 8.0 | 0.00 | 0.00 | 0.00 | 67 | 1014.2 |
| 20260905170737 | 20 | 160 | 1.6 | 6.4 | 0.00 | 0.00 | 0.00 | 67 | 1014.2 |
| 20260905170714 | 20 | 197 | 1.6 | 6.4 | 0.00 | 0.00 | 0.00 | 67 | 1014.2 |
| 20260905170637 | 20 | 205 | 1.6 | 6.4 | 0.00 | 0.00 | 0.00 | 68 | 1014.2 |
| 20260905170535 | 20 | 144 | 1.6 | 6.4 | 0.00 | 0.00 | 0.00 | 68 | 1014.2 |
| 20260905170447 | 20 | 156 | 1.6 | 6.4 | 0.00 | 0.00 | 0.00 | 69 | 1014.2 |
| 20260905170431 | 20 | 143 | 1.6 | 6.4 | 0.00 | 0.00 | 0.00 | 68 | 1014.2 |
| 20260905170332 | 20 | 200 | 1.6 | 6.4 | 0.00 | 0.00 | 0.00 | 69 | 1014.2 |
| 20260905170231 | 20 | 148 | 1.6 | 6.4 | 0.00 | 0.00 | 0.00 | 69 | 1014.2 |
| 20260905170132 | 20 | 190 | 1.6 | 6.4 | 0.00 | 0.00 | 0.00 | 69 | 1014.2 |
| 20260905170029 | 20 | 203 | 1.6 | 6.4 | 0.00 | 0.00 | 0.00 | 70 | 1014.2 |
| 20260905165923 | 20 | 200 | 1.6 | 6.4 | 0.00 | 0.00 | 0.00 | 70 | 1014.2 |
| 20260905165824 | 20 | 183 | 1.6 | 6.4 | 0.00 | 0.00 | 0.00 | 71 | 1014.2 |
| 20260905165724 | 19 | 183 | 1.6 | 6.4 | 0.00 | 0.00 | 0.00 | 71 | 1014.2 |
| 20260905165706 | 19 | 183 | 1.6 | 6.4 | 0.00 | 0.00 | 0.00 | 70 | 1014.2 |
| 20260905165623 | 19 | 183 | 1.6 | 6.4 | 0.00 | 0.00 | 0.00 | 70 | 1014.2 |
| 20260905165523 | 19 | 187 | 1.6 | 6.4 | 0.00 | 0.00 | 0.00 | 71 | 1014.2 |
| 20260905165419 | 19 | 188 | 1.6 | 6.4 | 0.00 | 0.00 | 0.00 | 70 | 1014.2 |
| 20260905165317 | 19 | 205 | 0.0 | 6.4 | 0.00 | 0.00 | 0.00 | 71 | 1014.2 |
| 20260905165218 | 19 | 217 | 0.0 | 1.6 | 0.00 | 0.00 | 0.00 | 71 | 1014.2 |
| 20260905165156 | 19 | 217 | 0.0 | 1.6 | 0.00 | 0.00 | 0.00 | 72 | 1014.1 |
| 20260905165118 | 19 | 217 | 0.0 | 1.6 | 0.00 | 0.00 | 0.00 | 72 | 1014.1 |
| 20260905165017 | 19 | 217 | 0.0 | 1.6 | 0.00 | 0.00 | 0.00 | 71 | 1014.1 |
| 20260905164917 | 19 | 217 | 0.0 | 1.6 | 0.00 | 0.00 | 0.00 | 71 | 1014.1 |
| 20260905164816 | 19 | 217 | 0.0 | 1.6 | 0.00 | 0.00 | 0.00 | 72 | 1014.1 |
| 20260905164716 | 19 | 217 | 0.0 | 1.6 | 0.00 | 0.00 | 0.00 | 72 | 1014.1 |
| 20260905164650 | 19 | 217 | 0.0 | 1.6 | 0.00 | 0.00 | 0.00 | 72 | 1014.1 |
| 20260905164613 | 19 | 217 | 0.0 | 1.6 | 0.00 | 0.00 | 0.00 | 72 | 1014.1 |
| 20260905164512 | 19 | 217 | 1.6 | 6.4 | 0.00 | 0.00 | 0.00 | 72 | 1014.1 |
| 20260905164405 | 19 | 163 | 1.6 | 6.4 | 0.00 | 0.00 | 0.00 | 73 | 1014.1 |
| 20260905164306 | 19 | 164 | 1.6 | 6.4 | 0.00 | 0.00 | 0.00 | 72 | 1014.1 |
| 20260905164208 | 19 | 163 | 1.6 | 6.4 | 0.00 | 0.00 | 0.00 | 73 | 1014.2 |
| 20260905164145 | 19 | 164 | 1.6 | 6.4 | 0.00 | 0.00 | 0.00 | 72 | 1014.2 |
| 20260905164105 | 19 | 165 | 1.6 | 6.4 | 0.00 | 0.00 | 0.00 | 72 | 1014.2 |
| 20260905164009 | 18 | 163 | 1.6 | 6.4 | 0.00 | 0.00 | 0.00 | 72 | 1014.2 |
| 20260905163902 | 18 | 163 | 1.6 | 6.4 | 0.00 | 0.00 | 0.00 | 73 | 1014.2 |
| 20260905163800 | 18 | 163 | 1.6 | 6.4 | 0.00 | 0.00 | 0.00 | 72 | 1014.2 |
| 20260905163659 | 19 | 165 | 1.6 | 6.4 | 0.00 | 0.00 | 0.00 | 72 | 1014.2 |
| 20260905163639 | 19 | 165 | 1.6 | 6.4 | 0.00 | 0.00 | 0.00 | 71 | 1014.2 |
| 20260905163559 | 19 | 194 | 1.6 | 6.4 | 0.00 | 0.00 | 0.00 | 71 | 1014.2 |
| 20260905163458 | 19 | 201 | 1.6 | 4.8 | 0.00 | 0.00 | 0.00 | 73 | 1014.1 |
| 20260905163354 | 19 | 166 | 0.0 | 4.8 | 0.00 | 0.00 | 0.00 | 73 | 1014.2 |
| 20260905163254 | 18 | 148 | 0.0 | 4.8 | 0.00 | 0.00 | 0.00 | 73 | 1014.2 |
| 20260905163153 | 18 | 218 | 0.0 | 1.6 | 0.00 | 0.00 | 0.00 | 74 | 1014.2 |
| 20260905163132 | 18 | 124 | 0.0 | 1.6 | 0.00 | 0.00 | 0.00 | 75 | 1014.2 |
| 20260905163053 | 18 | 111 | 0.0 | 3.2 | 0.00 | 0.00 | 0.00 | 75 | 1014.2 |
| 20260905162954 | 18 | 226 | 0.0 | 3.2 | 0.00 | 0.00 | 0.00 | 76 | 1014.1 |
| 20260905162853 | 18 | 226 | 0.0 | 3.2 | 0.00 | 0.00 | 0.00 | 76 | 1014.1 |
| 20260905162752 | 18 | 226 | 0.0 | 3.2 | 0.00 | 0.00 | 0.00 | 76 | 1014.1 |
| 20260905162652 | 18 | 226 | 1.6 | 3.2 | 0.00 | 0.00 | 0.00 | 76 | 1014.1 |
| 20260905162626 | 18 | 226 | 1.6 | 3.2 | 0.00 | 0.00 | 0.00 | 77 | 1014.1 |
| 20260905162550 | 18 | 226 | 1.6 | 4.8 | 0.00 | 0.00 | 0.00 | 77 | 1014.1 |
| 20260905162447 | 17 | 226 | 1.6 | 6.4 | 0.00 | 0.00 | 0.00 | 77 | 1014.2 |
| 20260905162343 | 17 | 226 | 1.6 | 6.4 | 0.00 | 0.00 | 0.00 | 77 | 1014.2 |
| 20260905162242 | 17 | 226 | 3.2 | 8.0 | 0.00 | 0.00 | 0.00 | 77 | 1014.2 |
| 20260905162120 | 17 | 226 | 3.2 | 8.0 | 0.00 | 0.00 | 0.00 | 77 | 1014.2 |
| 20260905162041 | 17 | 229 | 3.2 | 8.0 | 0.00 | 0.00 | 0.00 | 78 | 1014.2 |
| 20260905161941 | 17 | 205 | 3.2 | 8.0 | 0.00 | 0.00 | 0.00 | 78 | 1014.2 |
| 20260905161842 | 17 | 113 | 3.2 | 8.0 | 0.00 | 0.00 | 0.00 | 79 | 1014.1 |
| 20260905161740 | 17 | 190 | 3.2 | 8.0 | 0.00 | 0.00 | 0.00 | 78 | 1014.2 |
| 20260905161614 | 17 | 233 | 1.6 | 8.0 | 0.00 | 0.00 | 0.00 | 78 | 1014.2 |
| 20260905161537 | 17 | 219 | 1.6 | 8.0 | 0.00 | 0.00 | 0.00 | 78 | 1014.2 |
| 20260905161435 | 17 | 200 | 3.2 | 8.0 | 0.00 | 0.00 | 0.00 | 78 | 1014.1 |
| 20260905161330 | 17 | 219 | 3.2 | 8.0 | 0.00 | 0.00 | 0.00 | 78 | 1014.1 |
| 20260905161230 | 17 | 215 | 3.2 | 8.0 | 0.00 | 0.00 | 0.00 | 78 | 1014.2 |
| 20260905161129 | 17 | 231 | 3.2 | 8.0 | 0.00 | 0.00 | 0.00 | 79 | 1014.1 |
| 20260905161109 | 17 | 230 | 3.2 | 8.0 | 0.00 | 0.00 | 0.00 | 79 | 1014.1 |
| 20260905161029 | 17 | 231 | 3.2 | 8.0 | 0.00 | 0.00 | 0.00 | 79 | 1014.1 |
| 20260905160929 | 16 | 225 | 3.2 | 8.0 | 0.00 | 0.00 | 0.00 | 80 | 1014.1 |
| 20260905160827 | 16 | 225 | 3.2 | 8.0 | 0.00 | 0.00 | 0.00 | 80 | 1014.2 |
| 20260905160823 | 16 | 225 | 3.2 | 8.0 | 0.00 | 0.00 | 0.00 | 80 | 1014.2 |
| 20260905160723 | 16 | 225 | 3.2 | 8.0 | 0.00 | 0.00 | 0.00 | 80 | 1014.2 |
| 20260905160714 | 16 | 225 | 3.2 | 8.0 | 0.00 | 0.00 | 0.00 | 80 | 1014.2 |
| 20260905160523 | 16 | 225 | 3.2 | 8.0 | 0.00 | 0.00 | 0.00 | 79 | 1014.2 |
| 20260905160424 | 16 | 239 | 3.2 | 8.0 | 0.00 | 0.00 | 0.00 | 79 | 1014.2 |
| 20260905160331 | 17 | 236 | 1.6 | 6.4 | 0.00 | 0.00 | 0.00 | 78 | 1014.3 |
| 20260905160319 | 16 | 235 | 1.6 | 6.4 | 0.00 | 0.00 | 0.00 | 79 | 1014.2 |
| 20260905160229 | 16 | 230 | 3.2 | 6.4 | 0.00 | 0.00 | 0.00 | 79 | 1014.2 |
| 20260905160220 | 16 | 236 | 3.2 | 6.4 | 0.00 | 0.00 | 0.00 | 78 | 1014.3 |
| 20260905160019 | 16 | 235 | 1.6 | 6.4 | 0.00 | 0.00 | 0.00 | 79 | 1014.3 |
| 20260905155917 | 16 | 180 | 3.2 | 6.4 | 0.00 | 0.00 | 0.00 | 80 | 1014.3 |
| 20260905155811 | 16 | 161 | 3.2 | 6.4 | 0.00 | 0.00 | 0.00 | 80 | 1014.3 |
| 20260905155712 | 16 | 161 | 3.2 | 6.4 | 0.00 | 0.00 | 0.00 | 80 | 1014.3 |
| 20260905155611 | 16 | 129 | 3.2 | 6.4 | 0.00 | 0.00 | 0.00 | 80 | 1014.3 |
| 20260905155550 | 16 | 129 | 3.2 | 6.4 | 0.00 | 0.00 | 0.00 | 80 | 1014.3 |
| 20260905155511 | 16 | 129 | 3.2 | 6.4 | 0.00 | 0.00 | 0.00 | 79 | 1014.3 |
| 20260905155412 | 16 | 216 | 3.2 | 6.4 | 0.00 | 0.00 | 0.00 | 79 | 1014.3 |
| 20260905155313 | 16 | 211 | 3.2 | 6.4 | 0.00 | 0.00 | 0.00 | 81 | 1014.4 |
| 20260905155309 | 16 | 186 | 3.2 | 6.4 | 0.00 | 0.00 | 0.00 | 80 | 1014.3 |
| 20260905155210 | 16 | 158 | 3.2 | 6.4 | 0.00 | 0.00 | 0.00 | 81 | 1014.3 |
| 20260905155155 | 16 | 207 | 3.2 | 6.4 | 0.00 | 0.00 | 0.00 | 81 | 1014.4 |
| 20260905155007 | 16 | 234 | 3.2 | 6.4 | 0.00 | 0.00 | 0.00 | 81 | 1014.3 |
| 20260905154906 | 16 | 228 | 1.6 | 6.4 | 0.00 | 0.00 | 0.00 | 81 | 1014.3 |
| 20260905154802 | 16 | 212 | 1.6 | 6.4 | 0.00 | 0.00 | 0.00 | 81 | 1014.3 |
| 20260905154709 | 16 | 238 | 1.6 | 6.4 | 0.00 | 0.00 | 0.00 | 81 | 1014.3 |
| 20260905154601 | 16 | 221 | 1.6 | 6.4 | 0.00 | 0.00 | 0.00 | 81 | 1014.2 |
| 20260905154538 | 16 | 224 | 1.6 | 4.8 | 0.00 | 0.00 | 0.00 | 81 | 1014.2 |
| 20260905154503 | 16 | 224 | 1.6 | 4.8 | 0.00 | 0.00 | 0.00 | 82 | 1014.3 |
| 20260905154359 | 16 | 217 | 1.6 | 4.8 | 0.00 | 0.00 | 0.00 | 81 | 1014.2 |
| 20260905154301 | 16 | 229 | 1.6 | 4.8 | 0.00 | 0.00 | 0.00 | 81 | 1014.2 |
| 20260905154251 | 16 | 225 | 1.6 | 4.8 | 0.00 | 0.00 | 0.00 | 81 | 1014.3 |
| 20260905154157 | 16 | 229 | 1.6 | 4.8 | 0.00 | 0.00 | 0.00 | 80 | 1014.3 |
| 20260905154142 | 16 | 226 | 1.6 | 4.8 | 0.00 | 0.00 | 0.00 | 81 | 1014.3 |
| 20260905153955 | 16 | 167 | 1.6 | 4.8 | 0.00 | 0.00 | 0.00 | 82 | 1014.3 |
| 20260905153853 | 16 | 131 | 1.6 | 4.8 | 0.00 | 0.00 | 0.00 | 82 | 1014.3 |
| 20260905153751 | 16 | 139 | 1.6 | 4.8 | 0.00 | 0.00 | 0.00 | 81 | 1014.3 |
| 20260905153647 | 16 | 213 | 1.6 | 4.8 | 0.00 | 0.00 | 0.00 | 82 | 1014.2 |
| 20260905153532 | 15 | 146 | 1.6 | 4.8 | 0.00 | 0.00 | 0.00 | 82 | 1014.2 |
| 20260905153447 | 15 | 146 | 1.6 | 4.8 | 0.00 | 0.00 | 0.00 | 82 | 1014.3 |
| 20260905153347 | 15 | 164 | 1.6 | 4.8 | 0.00 | 0.00 | 0.00 | 83 | 1014.3 |
| 20260905153248 | 15 | 148 | 1.6 | 4.8 | 0.00 | 0.00 | 0.00 | 83 | 1014.3 |
| 20260905153145 | 15 | 148 | 1.6 | 4.8 | 0.00 | 0.00 | 0.00 | 82 | 1014.3 |
| 20260905153031 | 15 | 148 | 1.6 | 4.8 | 0.00 | 0.00 | 0.00 | 82 | 1014.3 |
| 20260905152943 | 15 | 148 | 1.6 | 4.8 | 0.00 | 0.00 | 0.00 | 82 | 1014.3 |
| 20260905152841 | 15 | 186 | 1.6 | 3.2 | 0.00 | 0.00 | 0.00 | 82 | 1014.3 |
| 20260905152738 | 15 | 150 | 1.6 | 3.2 | 0.00 | 0.00 | 0.00 | 82 | 1014.3 |
| 20260905152635 | 15 | 217 | 1.6 | 3.2 | 0.00 | 0.00 | 0.00 | 82 | 1014.3 |
| 20260905152529 | 15 | 158 | 1.6 | 3.2 | 0.00 | 0.00 | 0.00 | 83 | 1014.3 |
| 20260905152435 | 15 | 115 | 1.6 | 3.2 | 0.00 | 0.00 | 0.00 | 83 | 1014.2 |
| 20260905152335 | 15 | 117 | 1.6 | 3.2 | 0.00 | 0.00 | 0.00 | 82 | 1014.3 |
| 20260905152237 | 15 | 122 | 0.0 | 3.2 | 0.00 | 0.00 | 0.00 | 82 | 1014.2 |
| 20260905152134 | 15 | 218 | 0.0 | 3.2 | 0.00 | 0.00 | 0.00 | 82 | 1014.2 |
| 20260905152033 | 15 | 172 | 0.0 | 3.2 | 0.00 | 0.00 | 0.00 | 83 | 1014.2 |
| 20260905151829 | 15 | 129 | 0.0 | 3.2 | 0.00 | 0.00 | 0.00 | 83 | 1014.3 |
| 20260905151728 | 15 | 129 | 0.0 | 3.2 | 0.00 | 0.00 | 0.00 | 83 | 1014.3 |
| 20260905151627 | 15 | 120 | 0.0 | 3.2 | 0.00 | 0.00 | 0.00 | 83 | 1014.3 |
| 20260905151527 | 15 | 233 | 0.0 | 3.2 | 0.00 | 0.00 | 0.00 | 83 | 1014.2 |
| 20260905151425 | 15 | 233 | 0.0 | 3.2 | 0.00 | 0.00 | 0.00 | 83 | 1014.2 |
| 20260905151323 | 15 | 233 | 0.0 | 1.6 | 0.00 | 0.00 | 0.00 | 83 | 1014.2 |
| 20260905151224 | 15 | 233 | 0.0 | 1.6 | 0.00 | 0.00 | 0.00 | 83 | 1014.2 |
| 20260905151121 | 15 | 233 | 0.0 | 1.6 | 0.00 | 0.00 | 0.00 | 82 | 1014.2 |
| 20260905151029 | 15 | 233 | 0.0 | 1.6 | 0.00 | 0.00 | 0.00 | 82 | 1014.2 |
| 20260905151022 | 15 | 233 | 0.0 | 1.6 | 0.00 | 0.00 | 0.00 | 83 | 1014.2 |
| 20260905150919 | 15 | 134 | 0.0 | 1.6 | 0.00 | 0.00 | 0.00 | 83 | 1014.1 |
| 20260905150818 | 15 | 134 | 0.0 | 1.6 | 0.00 | 0.00 | 0.00 | 83 | 1014.1 |
| 20260905150714 | 15 | 134 | 0.0 | 1.6 | 0.00 | 0.00 | 0.00 | 83 | 1014.1 |
| 20260905150612 | 14 | 134 | 1.6 | 3.2 | 0.00 | 0.00 | 0.00 | 83 | 1014.1 |
| 20260905150511 | 14 | 134 | 1.6 | 3.2 | 0.00 | 0.00 | 0.00 | 83 | 1014.1 |
| 20260905150412 | 14 | 134 | 1.6 | 3.2 | 0.00 | 0.00 | 0.00 | 83 | 1014.1 |
| 20260905150311 | 14 | 134 | 0.0 | 3.2 | 0.00 | 0.00 | 0.00 | 83 | 1014.1 |
| 20260905150208 | 14 | 134 | 1.6 | 3.2 | 0.00 | 0.00 | 0.00 | 84 | 1014.1 |
| 20260905150108 | 14 | 103 | 1.6 | 3.2 | 0.00 | 0.00 | 0.00 | 83 | 1014.1 |
| 20260905150007 | 14 | 103 | 1.6 | 3.2 | 0.00 | 0.00 | 0.00 | 84 | 1014.1 |
| 20260905145908 | 14 | 103 | 1.6 | 3.2 | 0.00 | 0.00 | 0.00 | 84 | 1014.1 |
| 20260905145805 | 14 | 103 | 1.6 | 3.2 | 0.00 | 0.00 | 0.00 | 84 | 1014.1 |
| 20260905145705 | 14 | 103 | 1.6 | 3.2 | 0.00 | 0.00 | 0.00 | 84 | 1014.1 |
| 20260905145559 | 14 | 103 | 1.6 | 3.2 | 0.00 | 0.00 | 0.00 | 84 | 1014.1 |
| 20260905145526 | 13 | 105 | 1.6 | 3.2 | 0.00 | 0.00 | 0.00 | 85 | 1014.1 |
| 20260905145500 | 13 | 114 | 0.0 | 1.6 | 0.00 | 0.00 | 0.00 | 85 | 1014.1 |
| 20260905145359 | 13 | 115 | 0.0 | 1.6 | 0.00 | 0.00 | 0.00 | 85 | 1014.1 |
| 20260905145259 | 13 | 116 | 1.6 | 3.2 | 0.00 | 0.00 | 0.00 | 85 | 1014.1 |
| 20260905145203 | 13 | 116 | 1.6 | 3.2 | 0.00 | 0.00 | 0.00 | 85 | 1014.1 |
| 20260905145057 | 13 | 116 | 1.6 | 3.2 | 0.00 | 0.00 | 0.00 | 85 | 1014.1 |
| 20260905145027 | 13 | 113 | 1.6 | 4.8 | 0.00 | 0.00 | 0.00 | 86 | 1014.1 |
| 20260905144957 | 13 | 113 | 1.6 | 4.8 | 0.00 | 0.00 | 0.00 | 86 | 1014.1 |
| 20260905144855 | 13 | 113 | 1.6 | 4.8 | 0.00 | 0.00 | 0.00 | 86 | 1014.1 |
| 20260905144755 | 13 | 113 | 1.6 | 4.8 | 0.00 | 0.00 | 0.00 | 86 | 1014.1 |
| 20260905144654 | 13 | 113 | 1.6 | 4.8 | 0.00 | 0.00 | 0.00 | 87 | 1014.1 |
| 20260905144552 | 13 | 113 | 3.2 | 4.8 | 0.00 | 0.00 | 0.00 | 87 | 1014.1 |
| 20260905144525 | 13 | 113 | 3.2 | 4.8 | 0.00 | 0.00 | 0.00 | 86 | 1014.1 |
| 20260905144452 | 13 | 113 | 3.2 | 4.8 | 0.00 | 0.00 | 0.00 | 86 | 1014.2 |
| 20260905144349 | 13 | 113 | 3.2 | 4.8 | 0.00 | 0.00 | 0.00 | 86 | 1014.2 |
| 20260905144247 | 12 | 113 | 3.2 | 4.8 | 0.00 | 0.00 | 0.00 | 86 | 1014.2 |
| 20260905144143 | 12 | 107 | 1.6 | 4.8 | 0.00 | 0.00 | 0.00 | 86 | 1014.2 |
| 20260905144042 | 12 | 107 | 1.6 | 4.8 | 0.00 | 0.00 | 0.00 | 86 | 1014.2 |
| 20260905144025 | 12 | 97 | 1.6 | 4.8 | 0.00 | 0.00 | 0.00 | 86 | 1014.2 |
| 20260905143941 | 12 | 113 | 1.6 | 4.8 | 0.00 | 0.00 | 0.00 | 87 | 1014.2 |
| 20260905143841 | 12 | 103 | 1.6 | 4.8 | 0.00 | 0.00 | 0.00 | 87 | 1014.1 |
| 20260905143742 | 12 | 102 | 1.6 | 3.2 | 0.00 | 0.00 | 0.00 | 87 | 1014.1 |
| 20260905143640 | 12 | 114 | 1.6 | 3.2 | 0.00 | 0.00 | 0.00 | 88 | 1014.1 |
| 20260905143539 | 12 | 110 | 0.0 | 3.2 | 0.00 | 0.00 | 0.00 | 88 | 1014.1 |
| 20260905143524 | 12 | 110 | 0.0 | 3.2 | 0.00 | 0.00 | 0.00 | 89 | 1014.1 |
| 20260905143437 | 12 | 111 | 0.0 | 3.2 | 0.00 | 0.00 | 0.00 | 89 | 1014.1 |
| 20260905143337 | 12 | 125 | 0.0 | 1.6 | 0.00 | 0.00 | 0.00 | 89 | 1014.1 |
| 20260905143236 | 12 | 103 | 0.0 | 1.6 | 0.00 | 0.00 | 0.00 | 89 | 1014.1 |
| 20260905143136 | 12 | 103 | 0.0 | 1.6 | 0.00 | 0.00 | 0.00 | 89 | 1014.1 |
| 20260905143025 | 12 | 103 | 0.0 | 1.6 | 0.00 | 0.00 | 0.00 | 90 | 1014.1 |
| 20260905142934 | 12 | 103 | 0.0 | 1.6 | 0.00 | 0.00 | 0.00 | 90 | 1014.1 |
| 20260905142831 | 12 | 103 | 0.0 | 1.6 | 0.00 | 0.00 | 0.00 | 91 | 1014.1 |
| 20260905142752 | 11 | 103 | 0.0 | 1.6 | 0.00 | 0.00 | 0.00 | 91 | 1014.0 |
| 20260905142730 | 12 | 103 | 0.0 | 1.6 | 0.00 | 0.00 | 0.00 | 91 | 1014.0 |
| 20260905142639 | 11 | 103 | 0.0 | 1.6 | 0.00 | 0.00 | 0.00 | 91 | 1014.0 |
| 20260905142523 | 11 | 103 | 0.0 | 1.6 | 0.00 | 0.00 | 0.00 | 91 | 1014.0 |
| 20260905142423 | 11 | 103 | 0.0 | 1.6 | 0.00 | 0.00 | 0.00 | 91 | 1014.0 |
| 20260905142324 | 11 | 103 | 0.0 | 1.6 | 0.00 | 0.00 | 0.00 | 90 | 1014.1 |
| 20260905142224 | 11 | 103 | 0.0 | 3.2 | 0.00 | 0.00 | 0.00 | 90 | 1014.1 |
| 20260905142124 | 11 | 103 | 1.6 | 3.2 | 0.00 | 0.00 | 0.00 | 90 | 1014.1 |
| 20260905142021 | 11 | 103 | 1.6 | 3.2 | 0.00 | 0.00 | 0.00 | 91 | 1014.0 |
| 20260905141921 | 11 | 103 | 1.6 | 3.2 | 0.00 | 0.00 | 0.00 | 91 | 1014.1 |
| 20260905141819 | 11 | 103 | 1.6 | 3.2 | 0.00 | 0.00 | 0.00 | 91 | 1014.0 |
| 20260905141718 | 11 | 103 | 1.6 | 3.2 | 0.00 | 0.00 | 0.00 | 91 | 1014.0 |
| 20260905141612 | 11 | 103 | 1.6 | 3.2 | 0.00 | 0.00 | 0.00 | 91 | 1014.0 |
| 20260905141520 | 11 | 103 | 1.6 | 3.2 | 0.00 | 0.00 | 0.00 | 91 | 1014.0 |
| 20260905141511 | 11 | 103 | 1.6 | 3.2 | 0.00 | 0.00 | 0.00 | 91 | 1013.9 |
| 20260905141412 | 11 | 103 | 1.6 | 3.2 | 0.00 | 0.00 | 0.00 | 91 | 1013.9 |
| 20260905141311 | 11 | 103 | 0.0 | 3.2 | 0.00 | 0.00 | 0.00 | 91 | 1013.9 |
| 20260905141212 | 11 | 103 | 0.0 | 3.2 | 0.00 | 0.00 | 0.00 | 91 | 1013.9 |
| 20260905141108 | 11 | 103 | 0.0 | 3.2 | 0.00 | 0.00 | 0.00 | 91 | 1013.9 |
| 20260905141005 | 11 | 103 | 0.0 | 1.6 | 0.00 | 0.00 | 0.00 | 91 | 1013.9 |
| 20260905140905 | 11 | 103 | 0.0 | 1.6 | 0.00 | 0.00 | 0.00 | 91 | 1013.9 |
| 20260905140803 | 11 | 103 | 0.0 | 1.6 | 0.00 | 0.00 | 0.00 | 91 | 1013.8 |
| 20260905140706 | 11 | 103 | 0.0 | 1.6 | 0.00 | 0.00 | 0.00 | 91 | 1013.9 |
| 20260905140603 | 11 | 103 | 0.0 | 1.6 | 0.00 | 0.00 | 0.00 | 91 | 1013.9 |
| 20260905140518 | 11 | 103 | 0.0 | 1.6 | 0.00 | 0.00 | 0.00 | 91 | 1013.9 |
| 20260905140502 | 11 | 103 | 0.0 | 1.6 | 0.00 | 0.00 | 0.00 | 91 | 1013.8 |
| 20260905140401 | 11 | 103 | 0.0 | 1.6 | 0.00 | 0.00 | 0.00 | 91 | 1013.8 |
| 20260905140300 | 11 | 103 | 0.0 | 1.6 | 0.00 | 0.00 | 0.00 | 91 | 1013.8 |
| 20260905140159 | 11 | 103 | 0.0 | 1.6 | 0.00 | 0.00 | 0.00 | 91 | 1013.8 |
| 20260905140056 | 11 | 103 | 0.0 | 1.6 | 0.00 | 0.00 | 0.00 | 91 | 1013.9 |
| 20260905140012 | 11 | 103 | 0.0 | 1.6 | 0.00 | 0.00 | 0.00 | 91 | 1013.8 |
| 20260905135955 | 11 | 103 | 0.0 | 1.6 | 0.00 | 0.00 | 0.00 | 91 | 1013.8 |
| 20260905135855 | 11 | 103 | 0.0 | 1.6 | 0.00 | 0.00 | 0.00 | 91 | 1013.9 |
| 20260905135755 | 11 | 103 | 0.0 | 1.6 | 0.00 | 0.00 | 0.00 | 91 | 1013.8 |
| 20260905135651 | 11 | 103 | 0.0 | 1.6 | 0.00 | 0.00 | 0.00 | 91 | 1013.9 |
| 20260905135552 | 11 | 103 | 0.0 | 1.6 | 0.00 | 0.00 | 0.00 | 91 | 1013.9 |
| 20260905135506 | 11 | 103 | 0.0 | 1.6 | 0.00 | 0.00 | 0.00 | 91 | 1013.9 |
| 20260905135449 | 11 | 103 | 0.0 | 3.2 | 0.00 | 0.00 | 0.00 | 91 | 1013.9 |
| 20260905135349 | 11 | 103 | 0.0 | 3.2 | 0.00 | 0.00 | 0.00 | 91 | 1013.8 |
| 20260905135248 | 11 | 103 | 0.0 | 3.2 | 0.00 | 0.00 | 0.00 | 91 | 1013.9 |
| 20260905135145 | 11 | 103 | 1.6 | 3.2 | 0.00 | 0.00 | 0.00 | 91 | 1013.8 |
| 20260905135045 | 11 | 103 | 1.6 | 3.2 | 0.00 | 0.00 | 0.00 | 91 | 1013.8 |
| 20260905134943 | 11 | 103 | 1.6 | 3.2 | 0.00 | 0.00 | 0.00 | 91 | 1013.8 |
| 20260905134843 | 11 | 103 | 1.6 | 3.2 | 0.00 | 0.00 | 0.00 | 91 | 1013.8 |
| 20260905134742 | 11 | 103 | 1.6 | 4.8 | 0.00 | 0.00 | 0.00 | 91 | 1013.8 |
| 20260905134640 | 11 | 103 | 1.6 | 4.8 | 0.00 | 0.00 | 0.00 | 91 | 1013.8 |
| 20260905134537 | 11 | 103 | 1.6 | 4.8 | 0.00 | 0.00 | 0.00 | 91 | 1013.8 |
| 20260905134454 | 11 | 115 | 1.6 | 4.8 | 0.00 | 0.00 | 0.00 | 91 | 1013.8 |
| 20260905134438 | 11 | 116 | 1.6 | 4.8 | 0.00 | 0.00 | 0.00 | 91 | 1013.8 |
| 20260905134335 | 11 | 119 | 1.6 | 4.8 | 0.00 | 0.00 | 0.00 | 91 | 1013.8 |
| 20260905134235 | 11 | 110 | 1.6 | 4.8 | 0.00 | 0.00 | 0.00 | 91 | 1013.8 |
| 20260905134133 | 11 | 107 | 1.6 | 4.8 | 0.00 | 0.00 | 0.00 | 91 | 1013.8 |
| 20260905134028 | 11 | 108 | 1.6 | 4.8 | 0.00 | 0.00 | 0.00 | 91 | 1013.8 |
| 20260905133952 | 11 | 102 | 1.6 | 4.8 | 0.00 | 0.00 | 0.00 | 91 | 1013.8 |
| 20260905133927 | 11 | 110 | 1.6 | 4.8 | 0.00 | 0.00 | 0.00 | 91 | 1013.8 |
| 20260905133828 | 11 | 108 | 1.6 | 4.8 | 0.00 | 0.00 | 0.00 | 91 | 1013.7 |
| 20260905133728 | 11 | 101 | 1.6 | 3.2 | 0.00 | 0.00 | 0.00 | 91 | 1013.7 |
| 20260905133658 | 11 | 115 | 1.6 | 3.2 | 0.00 | 0.00 | 0.00 | 91 | 1013.7 |
| 20260905133627 | 11 | 115 | 1.6 | 3.2 | 0.00 | 0.00 | 0.00 | 91 | 1013.7 |
| 20260905133552 | 11 | 115 | 1.6 | 3.2 | 0.00 | 0.00 | 0.00 | 91 | 1013.7 |
| 20260905133425 | 11 | 116 | 1.6 | 3.2 | 0.00 | 0.00 | 0.00 | 91 | 1013.7 |
| 20260905133325 | 11 | 116 | 1.6 | 3.2 | 0.00 | 0.00 | 0.00 | 91 | 1013.7 |
| 20260905133225 | 11 | 116 | 0.0 | 3.2 | 0.00 | 0.00 | 0.00 | 91 | 1013.7 |
| 20260905133157 | 11 | 110 | 0.0 | 3.2 | 0.00 | 0.00 | 0.00 | 92 | 1013.7 |
| 20260905133122 | 11 | 115 | 0.0 | 3.2 | 0.00 | 0.00 | 0.00 | 92 | 1013.7 |
| 20260905133049 | 11 | 104 | 0.0 | 3.2 | 0.00 | 0.00 | 0.00 | 92 | 1013.7 |
| 20260905132915 | 11 | 110 | 0.0 | 3.2 | 0.00 | 0.00 | 0.00 | 92 | 1013.7 |
| 20260905132815 | 11 | 110 | 0.0 | 3.2 | 0.00 | 0.00 | 0.00 | 92 | 1013.7 |
| 20260905132717 | 11 | 110 | 0.0 | 1.6 | 0.00 | 0.00 | 0.00 | 92 | 1013.7 |
| 20260905132615 | 11 | 110 | 0.0 | 1.6 | 0.00 | 0.00 | 0.00 | 92 | 1013.7 |
| 20260905132509 | 11 | 110 | 0.0 | 1.6 | 0.00 | 0.00 | 0.00 | 91 | 1013.7 |
| 20260905132430 | 11 | 110 | 0.0 | 1.6 | 0.00 | 0.00 | 0.00 | 91 | 1013.7 |
| 20260905132410 | 11 | 110 | 0.0 | 0.0 | 0.00 | 0.00 | 0.00 | 91 | 1013.7 |
| 20260905132309 | 11 | 110 | 0.0 | 0.0 | 0.00 | 0.00 | 0.00 | 91 | 1013.7 |
| 20260905132210 | 11 | 110 | 0.0 | 0.0 | 0.00 | 0.00 | 0.00 | 91 | 1013.6 |
| 20260905132110 | 11 | 110 | 0.0 | 0.0 | 0.00 | 0.00 | 0.00 | 91 | 1013.6 |
| 20260905132009 | 11 | 110 | 0.0 | 0.0 | 0.00 | 0.00 | 0.00 | 91 | 1013.7 |
| 20260905131908 | 11 | 110 | 0.0 | 1.6 | 0.00 | 0.00 | 0.00 | 91 | 1013.7 |
| 20260905131808 | 11 | 110 | 0.0 | 1.6 | 0.00 | 0.00 | 0.00 | 91 | 1013.6 |
| 20260905131706 | 11 | 110 | 0.0 | 1.6 | 0.00 | 0.00 | 0.00 | 91 | 1013.6 |
| 20260905131603 | 11 | 110 | 0.0 | 1.6 | 0.00 | 0.00 | 0.00 | 91 | 1013.6 |
| 20260905131501 | 11 | 110 | 0.0 | 1.6 | 0.00 | 0.00 | 0.00 | 91 | 1013.7 |
| 20260905131431 | 11 | 110 | 0.0 | 1.6 | 0.00 | 0.00 | 0.00 | 91 | 1013.7 |
| 20260905131402 | 11 | 110 | 0.0 | 1.6 | 0.00 | 0.00 | 0.00 | 91 | 1013.6 |
| 20260905131301 | 11 | 110 | 0.0 | 1.6 | 0.00 | 0.00 | 0.00 | 91 | 1013.6 |
| 20260905131204 | 11 | 110 | 0.0 | 1.6 | 0.00 | 0.00 | 0.00 | 91 | 1013.6 |
| 20260905131131 | 11 | 110 | 0.0 | 1.6 | 0.00 | 0.00 | 0.00 | 91 | 1013.6 |
| 20260905131057 | 11 | 110 | 0.0 | 1.6 | 0.00 | 0.00 | 0.00 | 91 | 1013.6 |
| 20260905131035 | 11 | 110 | 0.0 | 1.6 | 0.00 | 0.00 | 0.00 | 91 | 1013.6 |
| 20260905130855 | 11 | 110 | 0.0 | 1.6 | 0.00 | 0.00 | 0.00 | 91 | 1013.6 |
| 20260905130756 | 11 | 110 | 0.0 | 1.6 | 0.00 | 0.00 | 0.00 | 91 | 1013.7 |
| 20260905130654 | 11 | 110 | 0.0 | 3.2 | 0.00 | 0.00 | 0.00 | 91 | 1013.6 |
| 20260905130625 | 11 | 110 | 1.6 | 3.2 | 0.00 | 0.00 | 0.00 | 91 | 1013.6 |
| 20260905130551 | 11 | 110 | 0.0 | 3.2 | 0.00 | 0.00 | 0.00 | 91 | 1013.6 |
| 20260905130517 | 11 | 110 | 1.6 | 3.2 | 0.00 | 0.00 | 0.00 | 91 | 1013.6 |
| 20260905130349 | 11 | 110 | 1.6 | 3.2 | 0.00 | 0.00 | 0.00 | 91 | 1013.6 |
| 20260905130252 | 11 | 110 | 1.6 | 3.2 | 0.00 | 0.00 | 0.00 | 91 | 1013.6 |
| 20260905130148 | 11 | 110 | 1.6 | 3.2 | 0.00 | 0.00 | 0.00 | 91 | 1013.5 |
| 20260905130045 | 11 | 110 | 1.6 | 3.2 | 0.00 | 0.00 | 0.00 | 91 | 1013.5 |
| 20260905125943 | 11 | 110 | 1.6 | 3.2 | 0.00 | 0.00 | 0.00 | 92 | 1013.6 |
| 20260905125843 | 11 | 110 | 1.6 | 3.2 | 0.00 | 0.00 | 0.00 | 92 | 1013.6 |
| 20260905125744 | 11 | 110 | 1.6 | 3.2 | 0.00 | 0.00 | 0.00 | 92 | 1013.6 |
| 20260905125642 | 11 | 110 | 1.6 | 3.2 | 0.00 | 0.00 | 0.00 | 92 | 1013.6 |
| 20260905125539 | 11 | 110 | 0.0 | 3.2 | 0.00 | 0.00 | 0.00 | 92 | 1013.6 |
| 20260905125435 | 11 | 110 | 0.0 | 3.2 | 0.00 | 0.00 | 0.00 | 92 | 1013.6 |
| 20260905125333 | 11 | 110 | 0.0 | 3.2 | 0.00 | 0.00 | 0.00 | 92 | 1013.6 |
| 20260905125233 | 11 | 110 | 0.0 | 1.6 | 0.00 | 0.00 | 0.00 | 92 | 1013.6 |
| 20260905125133 | 11 | 110 | 0.0 | 1.6 | 0.00 | 0.00 | 0.00 | 92 | 1013.6 |
| 20260905125119 | 11 | 110 | 0.0 | 1.6 | 0.00 | 0.00 | 0.00 | 92 | 1013.5 |
| 20260905125033 | 11 | 110 | 0.0 | 1.6 | 0.00 | 0.00 | 0.00 | 92 | 1013.5 |
| 20260905124959 | 11 | 110 | 0.0 | 1.6 | 0.00 | 0.00 | 0.00 | 92 | 1013.5 |
| 20260905124831 | 11 | 110 | 0.0 | 1.6 | 0.00 | 0.00 | 0.00 | 92 | 1013.5 |
| 20260905124732 | 11 | 110 | 0.0 | 0.0 | 0.00 | 0.00 | 0.00 | 92 | 1013.5 |
| 20260905124629 | 11 | 110 | 0.0 | 0.0 | 0.00 | 0.00 | 0.00 | 91 | 1013.5 |
| 20260905124527 | 11 | 110 | 0.0 | 1.6 | 0.00 | 0.00 | 0.00 | 92 | 1013.5 |
| 20260905124426 | 11 | 110 | 0.0 | 1.6 | 0.00 | 0.00 | 0.00 | 92 | 1013.5 |
| 20260905124325 | 11 | 110 | 0.0 | 1.6 | 0.00 | 0.00 | 0.00 | 92 | 1013.5 |
| 20260905124227 | 11 | 110 | 0.0 | 1.6 | 0.00 | 0.00 | 0.00 | 91 | 1013.5 |
| 20260905124123 | 11 | 110 | 0.0 | 1.6 | 0.00 | 0.00 | 0.00 | 91 | 1013.5 |
| 20260905124021 | 11 | 110 | 0.0 | 1.6 | 0.00 | 0.00 | 0.00 | 91 | 1013.5 |
| 20260905123915 | 11 | 110 | 0.0 | 1.6 | 0.00 | 0.00 | 0.00 | 92 | 1013.5 |
| 20260905123815 | 11 | 110 | 0.0 | 1.6 | 0.00 | 0.00 | 0.00 | 92 | 1013.6 |
| 20260905123717 | 11 | 110 | 0.0 | 1.6 | 0.00 | 0.00 | 0.00 | 92 | 1013.6 |
| 20260905123615 | 11 | 110 | 0.0 | 1.6 | 0.00 | 0.00 | 0.00 | 92 | 1013.6 |
| 20260905123515 | 11 | 110 | 0.0 | 1.6 | 0.00 | 0.00 | 0.00 | 92 | 1013.6 |
| 20260905123411 | 11 | 110 | 0.0 | 0.0 | 0.00 | 0.00 | 0.00 | 92 | 1013.6 |
| 20260905123309 | 11 | 110 | 0.0 | 1.6 | 0.00 | 0.00 | 0.00 | 92 | 1013.6 |
| 20260905123210 | 11 | 110 | 0.0 | 1.6 | 0.00 | 0.00 | 0.00 | 92 | 1013.6 |
| 20260905123109 | 11 | 110 | 0.0 | 1.6 | 0.00 | 0.00 | 0.00 | 92 | 1013.6 |
| 20260905123010 | 11 | 110 | 0.0 | 1.6 | 0.00 | 0.00 | 0.00 | 91 | 1013.6 |
| 20260905122907 | 11 | 110 | 0.0 | 1.6 | 0.00 | 0.00 | 0.00 | 91 | 1013.6 |
| 20260905122807 | 11 | 110 | 0.0 | 1.6 | 0.00 | 0.00 | 0.00 | 91 | 1013.6 |
| 20260905122709 | 11 | 110 | 0.0 | 1.6 | 0.00 | 0.00 | 0.00 | 91 | 1013.6 |
| 20260905122606 | 11 | 110 | 0.0 | 1.6 | 0.00 | 0.00 | 0.00 | 91 | 1013.6 |
| 20260905122504 | 11 | 110 | 0.0 | 1.6 | 0.00 | 0.00 | 0.00 | 91 | 1013.6 |
| 20260905122401 | 11 | 110 | 0.0 | 1.6 | 0.00 | 0.00 | 0.00 | 91 | 1013.6 |
| 20260905122318 | 11 | 110 | 0.0 | 1.6 | 0.00 | 0.00 | 0.00 | 91 | 1013.6 |
| 20260905122302 | 11 | 110 | 0.0 | 1.6 | 0.00 | 0.00 | 0.00 | 91 | 1013.6 |
| 20260905122203 | 11 | 110 | 0.0 | 1.6 | 0.00 | 0.00 | 0.00 | 91 | 1013.6 |
| 20260905122059 | 11 | 110 | 0.0 | 1.6 | 0.00 | 0.00 | 0.00 | 91 | 1013.6 |
| 20260905121957 | 11 | 110 | 0.0 | 1.6 | 0.00 | 0.00 | 0.00 | 91 | 1013.6 |
| 20260905121858 | 11 | 110 | 0.0 | 1.6 | 0.00 | 0.00 | 0.00 | 91 | 1013.6 |
| 20260905121812 | 11 | 110 | 0.0 | 1.6 | 0.00 | 0.00 | 0.00 | 92 | 1013.6 |
| 20260905121756 | 11 | 110 | 0.0 | 1.6 | 0.00 | 0.00 | 0.00 | 92 | 1013.6 |
| 20260905121655 | 11 | 110 | 0.0 | 1.6 | 0.00 | 0.00 | 0.00 | 92 | 1013.6 |
| 20260905121552 | 11 | 110 | 0.0 | 1.6 | 0.00 | 0.00 | 0.00 | 92 | 1013.5 |
| 20260905121451 | 11 | 110 | 0.0 | 1.6 | 0.00 | 0.00 | 0.00 | 92 | 1013.6 |
| 20260905121349 | 11 | 110 | 0.0 | 1.6 | 0.00 | 0.00 | 0.00 | 92 | 1013.6 |
| 20260905121306 | 11 | 110 | 0.0 | 1.6 | 0.00 | 0.00 | 0.00 | 92 | 1013.6 |
| 20260905121251 | 11 | 110 | 0.0 | 1.6 | 0.00 | 0.00 | 0.00 | 92 | 1013.6 |
| 20260905121149 | 11 | 110 | 0.0 | 1.6 | 0.00 | 0.00 | 0.00 | 92 | 1013.6 |
| 20260905121047 | 11 | 110 | 0.0 | 1.6 | 0.00 | 0.00 | 0.00 | 91 | 1013.6 |
| 20260905120949 | 11 | 110 | 0.0 | 1.6 | 0.00 | 0.00 | 0.00 | 91 | 1013.6 |
| 20260905120840 | 11 | 110 | 0.0 | 0.0 | 0.00 | 0.00 | 0.00 | 91 | 1013.6 |
| 20260905120805 | 11 | 110 | 0.0 | 0.0 | 0.00 | 0.00 | 0.00 | 91 | 1013.6 |
| 20260905120740 | 11 | 110 | 0.0 | 0.0 | 0.00 | 0.00 | 0.00 | 91 | 1013.6 |
| 20260905120639 | 11 | 110 | 0.0 | 0.0 | 0.00 | 0.00 | 0.00 | 91 | 1013.6 |
| 20260905120540 | 11 | 110 | 0.0 | 1.6 | 0.00 | 0.00 | 0.00 | 91 | 1013.6 |
| 20260905120439 | 11 | 110 | 0.0 | 1.6 | 0.00 | 0.00 | 0.00 | 91 | 1013.6 |
| 20260905120340 | 11 | 110 | 0.0 | 1.6 | 0.00 | 0.00 | 0.00 | 91 | 1013.6 |
| 20260905120305 | 11 | 110 | 0.0 | 1.6 | 0.00 | 0.00 | 0.00 | 91 | 1013.6 |
| 20260905120238 | 11 | 110 | 0.0 | 1.6 | 0.00 | 0.00 | 0.00 | 91 | 1013.6 |
| 20260905120138 | 11 | 110 | 0.0 | 1.6 | 0.00 | 0.00 | 0.00 | 91 | 1013.6 |
| 20260905120036 | 11 | 110 | 0.0 | 1.6 | 0.00 | 0.00 | 0.00 | 91 | 1013.6 |
| 20260905115933 | 11 | 110 | 0.0 | 1.6 | 0.00 | 0.00 | 0.00 | 91 | 1013.6 |
| 20260905115803 | 11 | 110 | 0.0 | 1.6 | 0.00 | 0.00 | 0.00 | 91 | 1013.6 |
| 20260905115732 | 11 | 110 | 0.0 | 1.6 | 0.00 | 0.00 | 0.00 | 91 | 1013.6 |
| 20260905115632 | 11 | 110 | 0.0 | 1.6 | 0.00 | 0.00 | 0.00 | 91 | 1013.6 |
| 20260905115530 | 11 | 110 | 0.0 | 0.0 | 0.00 | 0.00 | 0.00 | 91 | 1013.6 |
| 20260905115427 | 11 | 110 | 0.0 | 0.0 | 0.00 | 0.00 | 0.00 | 91 | 1013.6 |
| 20260905115327 | 11 | 110 | 0.0 | 0.0 | 0.00 | 0.00 | 0.00 | 91 | 1013.6 |
| 20260905115300 | 11 | 110 | 0.0 | 0.0 | 0.00 | 0.00 | 0.00 | 91 | 1013.6 |
| 20260905115226 | 11 | 110 | 0.0 | 0.0 | 0.00 | 0.00 | 0.00 | 91 | 1013.6 |
| 20260905115125 | 11 | 110 | 0.0 | 1.6 | 0.00 | 0.00 | 0.00 | 91 | 1013.6 |
| 20260905115024 | 11 | 110 | 0.0 | 1.6 | 0.00 | 0.00 | 0.00 | 91 | 1013.6 |
| 20260905114921 | 11 | 110 | 0.0 | 1.6 | 0.00 | 0.00 | 0.00 | 91 | 1013.5 |
| 20260905114822 | 11 | 110 | 0.0 | 1.6 | 0.00 | 0.00 | 0.00 | 91 | 1013.6 |
| 20260905114800 | 11 | 110 | 0.0 | 1.6 | 0.00 | 0.00 | 0.00 | 91 | 1013.6 |
| 20260905114720 | 11 | 110 | 0.0 | 1.6 | 0.00 | 0.00 | 0.00 | 91 | 1013.6 |
| 20260905114618 | 11 | 110 | 0.0 | 1.6 | 0.00 | 0.00 | 0.00 | 91 | 1013.6 |
| 20260905114517 | 11 | 110 | 0.0 | 1.6 | 0.00 | 0.00 | 0.00 | 91 | 1013.5 |
| 20260905114416 | 11 | 110 | 0.0 | 1.6 | 0.00 | 0.00 | 0.00 | 91 | 1013.5 |
| 20260905114314 | 11 | 110 | 0.0 | 1.6 | 0.00 | 0.00 | 0.00 | 91 | 1013.5 |
| 20260905114300 | 11 | 110 | 0.0 | 1.6 | 0.00 | 0.00 | 0.00 | 91 | 1013.5 |
| 20260905114214 | 11 | 110 | 0.0 | 1.6 | 0.00 | 0.00 | 0.00 | 91 | 1013.5 |
| 20260905114113 | 11 | 110 | 0.0 | 1.6 | 0.00 | 0.00 | 0.00 | 91 | 1013.5 |
| 20260905114012 | 11 | 110 | 0.0 | 1.6 | 0.00 | 0.00 | 0.00 | 91 | 1013.5 |
| 20260905113909 | 11 | 110 | 0.0 | 1.6 | 0.00 | 0.00 | 0.00 | 91 | 1013.5 |
| 20260905113811 | 11 | 110 | 0.0 | 1.6 | 0.00 | 0.00 | 0.00 | 91 | 1013.5 |
| 20260905113801 | 11 | 110 | 0.0 | 1.6 | 0.00 | 0.00 | 0.00 | 91 | 1013.5 |
| 20260905113708 | 11 | 110 | 0.0 | 1.6 | 0.00 | 0.00 | 0.00 | 91 | 1013.5 |
| 20260905113607 | 11 | 110 | 0.0 | 1.6 | 0.00 | 0.00 | 0.00 | 91 | 1013.5 |
| 20260905113505 | 11 | 110 | 0.0 | 1.6 | 0.00 | 0.00 | 0.00 | 91 | 1013.5 |
| 20260905113403 | 11 | 110 | 0.0 | 1.6 | 0.00 | 0.00 | 0.00 | 91 | 1013.5 |
| 20260905113259 | 11 | 110 | 0.0 | 1.6 | 0.00 | 0.00 | 0.00 | 91 | 1013.5 |
| 20260905113202 | 12 | 110 | 0.0 | 1.6 | 0.00 | 0.00 | 0.00 | 91 | 1013.4 |
| 20260905113058 | 12 | 110 | 0.0 | 1.6 | 0.00 | 0.00 | 0.00 | 91 | 1013.5 |
| 20260905112957 | 12 | 110 | 0.0 | 1.6 | 0.00 | 0.00 | 0.00 | 91 | 1013.5 |
| 20260905112857 | 12 | 110 | 0.0 | 1.6 | 0.00 | 0.00 | 0.00 | 91 | 1013.5 |
| 20260905112756 | 12 | 110 | 0.0 | 1.6 | 0.00 | 0.00 | 0.00 | 91 | 1013.5 |
| 20260905112657 | 12 | 110 | 0.0 | 1.6 | 0.00 | 0.00 | 0.00 | 91 | 1013.5 |
| 20260905112555 | 12 | 110 | 0.0 | 1.6 | 0.00 | 0.00 | 0.00 | 91 | 1013.5 |
| 20260905112453 | 12 | 110 | 0.0 | 1.6 | 0.00 | 0.00 | 0.00 | 91 | 1013.6 |
| 20260905112352 | 12 | 110 | 0.0 | 1.6 | 0.00 | 0.00 | 0.00 | 91 | 1013.6 |
| 20260905112252 | 12 | 110 | 0.0 | 1.6 | 0.00 | 0.00 | 0.00 | 90 | 1013.6 |
| 20260905112150 | 12 | 110 | 0.0 | 1.6 | 0.00 | 0.00 | 0.00 | 90 | 1013.6 |
| 20260905112049 | 12 | 110 | 0.0 | 0.0 | 0.00 | 0.00 | 0.00 | 90 | 1013.6 |
| 20260905111948 | 12 | 110 | 0.0 | 0.0 | 0.00 | 0.00 | 0.00 | 90 | 1013.6 |
| 20260905111845 | 12 | 110 | 0.0 | 1.6 | 0.00 | 0.00 | 0.00 | 90 | 1013.6 |
| 20260905111747 | 12 | 110 | 0.0 | 1.6 | 0.00 | 0.00 | 0.00 | 90 | 1013.6 |
| 20260905111643 | 12 | 110 | 0.0 | 1.6 | 0.00 | 0.00 | 0.00 | 90 | 1013.7 |
| 20260905111544 | 12 | 110 | 0.0 | 1.6 | 0.00 | 0.00 | 0.00 | 90 | 1013.6 |
| 20260905111442 | 12 | 110 | 0.0 | 1.6 | 0.00 | 0.00 | 0.00 | 90 | 1013.7 |
| 20260905111339 | 12 | 110 | 0.0 | 1.6 | 0.00 | 0.00 | 0.00 | 90 | 1013.7 |
| 20260905111236 | 12 | 110 | 0.0 | 1.6 | 0.00 | 0.00 | 0.00 | 90 | 1013.7 |
| 20260905111133 | 12 | 110 | 0.0 | 1.6 | 0.00 | 0.00 | 0.00 | 90 | 1013.7 |
| 20260905111034 | 12 | 110 | 0.0 | 1.6 | 0.00 | 0.00 | 0.00 | 90 | 1013.7 |
| 20260905110933 | 12 | 110 | 0.0 | 1.6 | 0.00 | 0.00 | 0.00 | 90 | 1013.7 |
| 20260905110833 | 12 | 110 | 0.0 | 1.6 | 0.00 | 0.00 | 0.00 | 90 | 1013.8 |
| 20260905110733 | 12 | 110 | 0.0 | 1.6 | 0.00 | 0.00 | 0.00 | 90 | 1013.7 |
| 20260905110631 | 12 | 110 | 0.0 | 1.6 | 0.00 | 0.00 | 0.00 | 90 | 1013.7 |
| 20260905110531 | 12 | 110 | 0.0 | 3.2 | 0.00 | 0.00 | 0.00 | 90 | 1013.7 |
| 20260905110429 | 12 | 110 | 0.0 | 3.2 | 0.00 | 0.00 | 0.00 | 90 | 1013.8 |
| 20260905110327 | 12 | 110 | 1.6 | 3.2 | 0.00 | 0.00 | 0.00 | 90 | 1013.8 |
| 20260905110305 | 12 | 110 | 1.6 | 3.2 | 0.00 | 0.00 | 0.00 | 90 | 1013.8 |
| 20260905110224 | 12 | 110 | 1.6 | 3.2 | 0.00 | 0.00 | 0.00 | 90 | 1013.8 |
| 20260905110123 | 12 | 110 | 1.6 | 3.2 | 0.00 | 0.00 | 0.00 | 90 | 1013.8 |
| 20260905110024 | 12 | 110 | 1.6 | 3.2 | 0.00 | 0.00 | 0.00 | 90 | 1013.8 |
| 20260905110008 | 12 | 110 | 1.6 | 3.2 | 0.00 | 0.00 | 0.00 | 90 | 1013.8 |
| 20260905105924 | 12 | 110 | 1.6 | 3.2 | 0.00 | 0.00 | 0.00 | 90 | 1013.8 |
| 20260905105900 | 12 | 110 | 1.6 | 3.2 | 0.00 | 0.00 | 0.00 | 90 | 1013.7 |
| 20260905105722 | 12 | 110 | 1.6 | 3.2 | 0.00 | 0.00 | 0.00 | 90 | 1013.8 |
| 20260905105621 | 12 | 110 | 1.6 | 3.2 | 0.00 | 0.00 | 0.00 | 90 | 1013.8 |
| 20260905105521 | 12 | 110 | 1.6 | 3.2 | 0.00 | 0.00 | 0.00 | 90 | 1013.8 |
| 20260905105421 | 12 | 110 | 1.6 | 3.2 | 0.00 | 0.00 | 0.00 | 90 | 1013.8 |
| 20260905105321 | 12 | 108 | 1.6 | 3.2 | 0.00 | 0.00 | 0.00 | 90 | 1013.7 |
| 20260905105249 | 12 | 108 | 1.6 | 3.2 | 0.00 | 0.00 | 0.00 | 90 | 1013.7 |
| 20260905105220 | 12 | 107 | 1.6 | 3.2 | 0.00 | 0.00 | 0.00 | 90 | 1013.7 |
| 20260905105117 | 12 | 108 | 1.6 | 3.2 | 0.00 | 0.00 | 0.00 | 90 | 1013.7 |
| 20260905105015 | 12 | 107 | 1.6 | 3.2 | 0.00 | 0.00 | 0.00 | 90 | 1013.7 |
| 20260905104916 | 12 | 107 | 1.6 | 3.2 | 0.00 | 0.00 | 0.00 | 90 | 1013.7 |
| 20260905104815 | 12 | 107 | 1.6 | 3.2 | 0.00 | 0.00 | 0.00 | 90 | 1013.8 |
| 20260905104749 | 12 | 108 | 1.6 | 3.2 | 0.00 | 0.00 | 0.00 | 90 | 1013.8 |
| 20260905104716 | 12 | 107 | 1.6 | 3.2 | 0.00 | 0.00 | 0.00 | 90 | 1013.8 |
| 20260905104615 | 12 | 112 | 1.6 | 3.2 | 0.00 | 0.00 | 0.00 | 90 | 1013.8 |
| 20260905104513 | 12 | 102 | 1.6 | 3.2 | 0.00 | 0.00 | 0.00 | 90 | 1013.8 |
| 20260905104413 | 12 | 110 | 1.6 | 3.2 | 0.00 | 0.00 | 0.00 | 89 | 1013.7 |
| 20260905104314 | 12 | 113 | 1.6 | 3.2 | 0.00 | 0.00 | 0.00 | 89 | 1013.7 |
| 20260905104248 | 12 | 113 | 1.6 | 3.2 | 0.00 | 0.00 | 0.00 | 89 | 1013.7 |
| 20260905104214 | 12 | 115 | 1.6 | 3.2 | 0.00 | 0.00 | 0.00 | 89 | 1013.7 |
| 20260905104113 | 12 | 114 | 1.6 | 3.2 | 0.00 | 0.00 | 0.00 | 89 | 1013.7 |
| 20260905104012 | 12 | 101 | 1.6 | 3.2 | 0.00 | 0.00 | 0.00 | 89 | 1013.7 |
| 20260905103912 | 12 | 115 | 1.6 | 4.8 | 0.00 | 0.00 | 0.00 | 89 | 1013.7 |
| 20260905103811 | 12 | 123 | 1.6 | 4.8 | 0.00 | 0.00 | 0.00 | 89 | 1013.7 |
| 20260905103746 | 12 | 110 | 1.6 | 4.8 | 0.00 | 0.00 | 0.00 | 89 | 1013.7 |
| 20260905103709 | 12 | 112 | 1.6 | 4.8 | 0.00 | 0.00 | 0.00 | 89 | 1013.7 |
| 20260905103608 | 12 | 111 | 3.2 | 4.8 | 0.00 | 0.00 | 0.00 | 89 | 1013.7 |
| 20260905103507 | 12 | 112 | 3.2 | 4.8 | 0.00 | 0.00 | 0.00 | 89 | 1013.7 |
| 20260905103408 | 12 | 112 | 3.2 | 4.8 | 0.00 | 0.00 | 0.00 | 89 | 1013.7 |
| 20260905103308 | 12 | 106 | 1.6 | 4.8 | 0.00 | 0.00 | 0.00 | 90 | 1013.7 |
| 20260905103247 | 12 | 106 | 1.6 | 4.8 | 0.00 | 0.00 | 0.00 | 90 | 1013.7 |
| 20260905103208 | 12 | 105 | 1.6 | 4.8 | 0.00 | 0.00 | 0.00 | 90 | 1013.7 |
| 20260905103107 | 12 | 89 | 1.6 | 4.8 | 0.00 | 0.00 | 0.00 | 90 | 1013.7 |
| 20260905103005 | 12 | 127 | 1.6 | 4.8 | 0.00 | 0.00 | 0.00 | 90 | 1013.7 |
| 20260905102906 | 12 | 108 | 1.6 | 4.8 | 0.00 | 0.00 | 0.00 | 90 | 1013.7 |
| 20260905102803 | 12 | 108 | 1.6 | 4.8 | 0.00 | 0.00 | 0.00 | 90 | 1013.7 |
| 20260905102740 | 12 | 109 | 1.6 | 4.8 | 0.00 | 0.00 | 0.00 | 90 | 1013.7 |
| 20260905102705 | 12 | 96 | 0.0 | 4.8 | 0.00 | 0.00 | 0.00 | 90 | 1013.7 |
| 20260905102601 | 12 | 114 | 0.0 | 3.2 | 0.00 | 0.00 | 0.00 | 90 | 1013.7 |
| 20260905102501 | 12 | 117 | 0.0 | 3.2 | 0.00 | 0.00 | 0.00 | 90 | 1013.7 |
| 20260905102400 | 12 | 130 | 0.0 | 1.6 | 0.00 | 0.00 | 0.00 | 90 | 1013.7 |
| 20260905102240 | 12 | 129 | 0.0 | 1.6 | 0.00 | 0.00 | 0.00 | 90 | 1013.8 |
| 20260905102202 | 12 | 129 | 0.0 | 1.6 | 0.00 | 0.00 | 0.00 | 90 | 1013.8 |
| 20260905102055 | 12 | 129 | 0.0 | 1.6 | 0.00 | 0.00 | 0.00 | 90 | 1013.8 |
| 20260905101956 | 12 | 130 | 0.0 | 1.6 | 0.00 | 0.00 | 0.00 | 90 | 1013.8 |
| 20260905101853 | 12 | 129 | 0.0 | 1.6 | 0.00 | 0.00 | 0.00 | 90 | 1013.8 |
| 20260905101741 | 12 | 129 | 0.0 | 1.6 | 0.00 | 0.00 | 0.00 | 90 | 1013.8 |
| 20260905101651 | 12 | 129 | 0.0 | 0.0 | 0.00 | 0.00 | 0.00 | 90 | 1013.8 |
| 20260905101548 | 12 | 130 | 0.0 | 0.0 | 0.00 | 0.00 | 0.00 | 90 | 1013.8 |
| 20260905101446 | 12 | 129 | 0.0 | 0.0 | 0.00 | 0.00 | 0.00 | 90 | 1013.8 |
| 20260905101343 | 12 | 129 | 0.0 | 0.0 | 0.00 | 0.00 | 0.00 | 90 | 1013.8 |
| 20260905101245 | 12 | 129 | 0.0 | 0.0 | 0.00 | 0.00 | 0.00 | 90 | 1013.8 |
| 20260905101144 | 12 | 129 | 0.0 | 0.0 | 0.00 | 0.00 | 0.00 | 90 | 1013.8 |
| 20260905101044 | 12 | 129 | 0.0 | 0.0 | 0.00 | 0.00 | 0.00 | 90 | 1013.7 |
| 20260905100939 | 12 | 129 | 0.0 | 0.0 | 0.00 | 0.00 | 0.00 | 89 | 1013.8 |
| 20260905100837 | 12 | 130 | 0.0 | 0.0 | 0.00 | 0.00 | 0.00 | 89 | 1013.8 |
| 20260905100744 | 12 | 130 | 0.0 | 0.0 | 0.00 | 0.00 | 0.00 | 89 | 1013.8 |
| 20260905100738 | 12 | 129 | 0.0 | 0.0 | 0.00 | 0.00 | 0.00 | 89 | 1013.8 |
| 20260905100638 | 12 | 130 | 0.0 | 0.0 | 0.00 | 0.00 | 0.00 | 89 | 1013.8 |
| 20260905100537 | 12 | 129 | 0.0 | 0.0 | 0.00 | 0.00 | 0.00 | 89 | 1013.8 |
| 20260905100437 | 12 | 130 | 0.0 | 0.0 | 0.00 | 0.00 | 0.00 | 90 | 1013.8 |
| 20260905100336 | 12 | 129 | 0.0 | 0.0 | 0.00 | 0.00 | 0.00 | 90 | 1013.8 |
| 20260905100241 | 12 | 130 | 0.0 | 0.0 | 0.00 | 0.00 | 0.00 | 90 | 1013.8 |
| 20260905100234 | 12 | 129 | 0.0 | 0.0 | 0.00 | 0.00 | 0.00 | 90 | 1013.8 |
| 20260905100133 | 12 | 129 | 0.0 | 0.0 | 0.00 | 0.00 | 0.00 | 89 | 1013.8 |
| 20260905100031 | 12 | 129 | 0.0 | 0.0 | 0.00 | 0.00 | 0.00 | 89 | 1013.8 |
| 20260905095929 | 12 | 130 | 0.0 | 0.0 | 0.00 | 0.00 | 0.00 | 88 | 1013.8 |
| 20260905095829 | 12 | 130 | 0.0 | 0.0 | 0.00 | 0.00 | 0.00 | 88 | 1013.8 |
| 20260905095738 | 12 | 130 | 0.0 | 0.0 | 0.00 | 0.00 | 0.00 | 88 | 1013.8 |
| 20260905095730 | 12 | 129 | 0.0 | 0.0 | 0.00 | 0.00 | 0.00 | 88 | 1013.8 |
| 20260905095627 | 12 | 129 | 0.0 | 0.0 | 0.00 | 0.00 | 0.00 | 88 | 1013.9 |
| 20260905095525 | 12 | 129 | 0.0 | 0.0 | 0.00 | 0.00 | 0.00 | 89 | 1013.8 |
| 20260905095452 | 12 | 129 | 0.0 | 0.0 | 0.00 | 0.00 | 0.00 | 88 | 1013.8 |
| 20260905095421 | 12 | 129 | 0.0 | 0.0 | 0.00 | 0.00 | 0.00 | 89 | 1013.8 |
| 20260905095346 | 12 | 129 | 0.0 | 0.0 | 0.00 | 0.00 | 0.00 | 89 | 1013.8 |
| 20260905095222 | 12 | 130 | 0.0 | 0.0 | 0.00 | 0.00 | 0.00 | 88 | 1013.8 |
| 20260905095121 | 12 | 129 | 0.0 | 0.0 | 0.00 | 0.00 | 0.00 | 88 | 1013.8 |
| 20260905095019 | 12 | 129 | 0.0 | 0.0 | 0.00 | 0.00 | 0.00 | 88 | 1013.8 |
| 20260905094916 | 12 | 130 | 0.0 | 0.0 | 0.00 | 0.00 | 0.00 | 88 | 1013.8 |
| 20260905094815 | 12 | 130 | 0.0 | 0.0 | 0.00 | 0.00 | 0.00 | 88 | 1013.9 |
| 20260905094715 | 12 | 129 | 0.0 | 0.0 | 0.00 | 0.00 | 0.00 | 88 | 1013.9 |
| 20260905094616 | 12 | 130 | 0.0 | 0.0 | 0.00 | 0.00 | 0.00 | 88 | 1013.8 |
| 20260905094513 | 12 | 129 | 0.0 | 0.0 | 0.00 | 0.00 | 0.00 | 88 | 1013.8 |
| 20260905094453 | 12 | 129 | 0.0 | 0.0 | 0.00 | 0.00 | 0.00 | 87 | 1013.8 |
| 20260905094407 | 12 | 129 | 0.0 | 0.0 | 0.00 | 0.00 | 0.00 | 87 | 1013.8 |
| 20260905094345 | 12 | 130 | 0.0 | 0.0 | 0.00 | 0.00 | 0.00 | 87 | 1013.8 |
| 20260905094208 | 12 | 130 | 0.0 | 0.0 | 0.00 | 0.00 | 0.00 | 87 | 1013.8 |
| 20260905094107 | 12 | 130 | 0.0 | 0.0 | 0.00 | 0.00 | 0.00 | 87 | 1013.8 |
| 20260905094007 | 12 | 129 | 0.0 | 1.6 | 0.00 | 0.00 | 0.00 | 87 | 1013.8 |
| 20260905093903 | 12 | 130 | 0.0 | 1.6 | 0.00 | 0.00 | 0.00 | 87 | 1013.8 |
| 20260905093734 | 12 | 129 | 0.0 | 1.6 | 0.00 | 0.00 | 0.00 | 87 | 1013.8 |
| 20260905093705 | 12 | 130 | 0.0 | 1.6 | 0.00 | 0.00 | 0.00 | 87 | 1013.8 |
| 20260905093604 | 12 | 129 | 0.0 | 1.6 | 0.00 | 0.00 | 0.00 | 87 | 1013.7 |
| 20260905093501 | 12 | 129 | 0.0 | 1.6 | 0.00 | 0.00 | 0.00 | 87 | 1013.8 |
| 20260905093401 | 12 | 129 | 0.0 | 1.6 | 0.00 | 0.00 | 0.00 | 87 | 1013.7 |
| 20260905093300 | 12 | 130 | 0.0 | 1.6 | 0.00 | 0.00 | 0.00 | 87 | 1013.8 |
| 20260905093232 | 12 | 129 | 0.0 | 1.6 | 0.00 | 0.00 | 0.00 | 87 | 1013.8 |
| 20260905093203 | 12 | 129 | 0.0 | 1.6 | 0.00 | 0.00 | 0.00 | 87 | 1013.8 |
| 20260905093057 | 12 | 130 | 0.0 | 1.6 | 0.00 | 0.00 | 0.00 | 87 | 1013.8 |
| 20260905092956 | 12 | 130 | 0.0 | 1.6 | 0.00 | 0.00 | 0.00 | 86 | 1013.8 |
| 20260905092849 | 13 | 129 | 0.0 | 1.6 | 0.00 | 0.00 | 0.00 | 86 | 1013.8 |
| 20260905092733 | 13 | 129 | 0.0 | 1.6 | 0.00 | 0.00 | 0.00 | 86 | 1013.8 |
| 20260905092649 | 13 | 129 | 0.0 | 1.6 | 0.00 | 0.00 | 0.00 | 86 | 1013.9 |
| 20260905092549 | 13 | 130 | 0.0 | 1.6 | 0.00 | 0.00 | 0.00 | 86 | 1013.8 |
| 20260905092449 | 13 | 129 | 0.0 | 1.6 | 0.00 | 0.00 | 0.00 | 86 | 1013.8 |
| 20260905092349 | 13 | 130 | 0.0 | 1.6 | 0.00 | 0.00 | 0.00 | 86 | 1013.8 |
| 20260905092247 | 13 | 130 | 0.0 | 1.6 | 0.00 | 0.00 | 0.00 | 86 | 1013.8 |
| 20260905092233 | 13 | 129 | 0.0 | 1.6 | 0.00 | 0.00 | 0.00 | 86 | 1013.8 |
| 20260905092147 | 13 | 129 | 0.0 | 1.6 | 0.00 | 0.00 | 0.00 | 86 | 1013.8 |
| 20260905092046 | 13 | 129 | 0.0 | 1.6 | 0.00 | 0.00 | 0.00 | 86 | 1013.8 |
| 20260905091951 | 13 | 129 | 0.0 | 1.6 | 0.00 | 0.00 | 0.00 | 86 | 1013.9 |
| 20260905091943 | 13 | 129 | 0.0 | 1.6 | 0.00 | 0.00 | 0.00 | 86 | 1013.9 |
| 20260905091850 | 13 | 130 | 0.0 | 1.6 | 0.00 | 0.00 | 0.00 | 86 | 1013.9 |
| 20260905091841 | 13 | 129 | 0.0 | 1.6 | 0.00 | 0.00 | 0.00 | 86 | 1013.9 |
| 20260905091643 | 13 | 129 | 0.0 | 1.6 | 0.00 | 0.00 | 0.00 | 86 | 1013.9 |
| 20260905091543 | 13 | 130 | 0.0 | 1.6 | 0.00 | 0.00 | 0.00 | 86 | 1013.8 |
| 20260905091443 | 13 | 129 | 0.0 | 1.6 | 0.00 | 0.00 | 0.00 | 86 | 1013.8 |
| 20260905091341 | 13 | 130 | 0.0 | 1.6 | 0.00 | 0.00 | 0.00 | 86 | 1013.9 |
| 20260905091231 | 13 | 129 | 0.0 | 1.6 | 0.00 | 0.00 | 0.00 | 85 | 1013.9 |
| 20260905091139 | 13 | 129 | 0.0 | 1.6 | 0.00 | 0.00 | 0.00 | 85 | 1013.9 |
| 20260905091037 | 13 | 129 | 0.0 | 1.6 | 0.00 | 0.00 | 0.00 | 85 | 1013.9 |
| 20260905090950 | 13 | 129 | 0.0 | 1.6 | 0.00 | 0.00 | 0.00 | 85 | 1013.9 |
| 20260905090938 | 13 | 129 | 0.0 | 1.6 | 0.00 | 0.00 | 0.00 | 85 | 1013.9 |
| 20260905090849 | 13 | 130 | 0.0 | 1.6 | 0.00 | 0.00 | 0.00 | 85 | 1013.9 |
| 20260905090841 | 13 | 129 | 0.0 | 1.6 | 0.00 | 0.00 | 0.00 | 85 | 1013.9 |
| 20260905090637 | 13 | 129 | 0.0 | 1.6 | 0.00 | 0.00 | 0.00 | 85 | 1013.9 |
| 20260905090537 | 13 | 129 | 0.0 | 1.6 | 0.00 | 0.00 | 0.00 | 85 | 1013.9 |
| 20260905090454 | 13 | 129 | 0.0 | 1.6 | 0.00 | 0.00 | 0.00 | 85 | 1013.9 |
| 20260905090437 | 13 | 130 | 0.0 | 1.6 | 0.00 | 0.00 | 0.00 | 85 | 1013.9 |
| 20260905090348 | 13 | 129 | 0.0 | 1.6 | 0.00 | 0.00 | 0.00 | 85 | 1013.9 |
| 20260905090339 | 13 | 130 | 0.0 | 1.6 | 0.00 | 0.00 | 0.00 | 85 | 1013.9 |
| 20260905090135 | 13 | 129 | 0.0 | 1.6 | 0.00 | 0.00 | 0.00 | 84 | 1013.9 |
| 20260905090035 | 13 | 129 | 0.0 | 1.6 | 0.00 | 0.00 | 0.00 | 85 | 1013.9 |
| 20260905085931 | 13 | 130 | 0.0 | 1.6 | 0.00 | 0.00 | 0.00 | 85 | 1013.9 |
| 20260905085831 | 13 | 129 | 0.0 | 1.6 | 0.00 | 0.00 | 0.00 | 85 | 1013.9 |
| 20260905085733 | 13 | 129 | 0.0 | 1.6 | 0.00 | 0.00 | 0.00 | 84 | 1013.9 |
| 20260905085629 | 13 | 130 | 0.0 | 1.6 | 0.00 | 0.00 | 0.00 | 84 | 1013.9 |
| 20260905085527 | 13 | 129 | 0.0 | 1.6 | 0.00 | 0.00 | 0.00 | 84 | 1013.9 |
| 20260905085427 | 13 | 130 | 0.0 | 1.6 | 0.00 | 0.00 | 0.00 | 84 | 1013.9 |
| 20260905085328 | 13 | 130 | 0.0 | 0.0 | 0.00 | 0.00 | 0.00 | 84 | 1013.9 |
| 20260905085229 | 13 | 129 | 0.0 | 1.6 | 0.00 | 0.00 | 0.00 | 84 | 1013.9 |
| 20260905085127 | 13 | 129 | 0.0 | 1.6 | 0.00 | 0.00 | 0.00 | 84 | 1013.9 |
| 20260905085026 | 13 | 130 | 0.0 | 1.6 | 0.00 | 0.00 | 0.00 | 84 | 1013.9 |
| 20260905084923 | 13 | 130 | 0.0 | 1.6 | 0.00 | 0.00 | 0.00 | 83 | 1013.9 |
| 20260905084823 | 13 | 129 | 0.0 | 1.6 | 0.00 | 0.00 | 0.00 | 83 | 1013.9 |
| 20260905084723 | 13 | 129 | 0.0 | 1.6 | 0.00 | 0.00 | 0.00 | 83 | 1014.0 |
| 20260905084611 | 13 | 129 | 0.0 | 3.2 | 0.00 | 0.00 | 0.00 | 83 | 1014.0 |
| 20260905084511 | 13 | 129 | 0.0 | 3.2 | 0.00 | 0.00 | 0.00 | 83 | 1014.0 |
| 20260905084411 | 13 | 129 | 0.0 | 3.2 | 0.00 | 0.00 | 0.00 | 83 | 1013.9 |
| 20260905084311 | 13 | 129 | 0.0 | 3.2 | 0.00 | 0.00 | 0.00 | 83 | 1014.0 |
| 20260905084211 | 13 | 89 | 0.0 | 3.2 | 0.00 | 0.00 | 0.00 | 83 | 1014.0 |
| 20260905084106 | 13 | 88 | 0.0 | 3.2 | 0.00 | 0.00 | 0.00 | 83 | 1014.0 |
| 20260905084006 | 13 | 88 | 0.0 | 3.2 | 0.00 | 0.00 | 0.00 | 83 | 1014.0 |
| 20260905083906 | 13 | 89 | 0.0 | 3.2 | 0.00 | 0.00 | 0.00 | 83 | 1014.0 |
| 20260905083806 | 13 | 89 | 0.0 | 3.2 | 0.00 | 0.00 | 0.00 | 83 | 1014.0 |
| 20260905083712 | 13 | 88 | 0.0 | 3.2 | 0.00 | 0.00 | 0.00 | 83 | 1014.0 |
| 20260905083706 | 13 | 117 | 0.0 | 3.2 | 0.00 | 0.00 | 0.00 | 83 | 1014.0 |
| 20260905083559 | 13 | 117 | 0.0 | 3.2 | 0.00 | 0.00 | 0.00 | 83 | 1014.0 |
| 20260905083500 | 13 | 117 | 0.0 | 3.2 | 0.00 | 0.00 | 0.00 | 83 | 1014.0 |
| 20260905083424 | 13 | 146 | 0.0 | 3.2 | 0.00 | 0.00 | 0.00 | 82 | 1014.0 |
| 20260905083359 | 13 | 117 | 0.0 | 3.2 | 0.00 | 0.00 | 0.00 | 83 | 1014.0 |
| 20260905083312 | 13 | 117 | 0.0 | 3.2 | 0.00 | 0.00 | 0.00 | 83 | 1014.0 |
| 20260905083201 | 13 | 117 | 0.0 | 3.2 | 0.00 | 0.00 | 0.00 | 83 | 1014.0 |
| 20260905083057 | 13 | 117 | 0.0 | 3.2 | 0.00 | 0.00 | 0.00 | 83 | 1014.0 |
| 20260905083045 | 13 | 127 | 0.0 | 3.2 | 0.00 | 0.00 | 0.00 | 83 | 1014.0 |
| 20260905082858 | 13 | 127 | 0.0 | 3.2 | 0.00 | 0.00 | 0.00 | 83 | 1014.0 |
| 20260905082756 | 13 | 146 | 0.0 | 3.2 | 0.00 | 0.00 | 0.00 | 83 | 1014.0 |
| 20260905082654 | 13 | 134 | 0.0 | 3.2 | 0.00 | 0.00 | 0.00 | 82 | 1014.0 |
| 20260905082554 | 13 | 146 | 0.0 | 3.2 | 0.00 | 0.00 | 0.00 | 83 | 1014.0 |
| 20260905082451 | 13 | 147 | 0.0 | 3.2 | 0.00 | 0.00 | 0.00 | 83 | 1014.0 |
| 20260905082352 | 13 | 105 | 0.0 | 3.2 | 0.00 | 0.00 | 0.00 | 83 | 1014.0 |
| 20260905082249 | 13 | 105 | 0.0 | 3.2 | 0.00 | 0.00 | 0.00 | 83 | 1013.9 |
| 20260905082211 | 13 | 113 | 0.0 | 3.2 | 0.00 | 0.00 | 0.00 | 83 | 1014.0 |
| 20260905082147 | 13 | 113 | 0.0 | 3.2 | 0.00 | 0.00 | 0.00 | 82 | 1014.0 |
| 20260905082047 | 13 | 155 | 0.0 | 3.2 | 0.00 | 0.00 | 0.00 | 82 | 1014.0 |
| 20260905081946 | 13 | 155 | 0.0 | 3.2 | 0.00 | 0.00 | 0.00 | 82 | 1013.9 |
| 20260905081845 | 13 | 155 | 0.0 | 3.2 | 0.00 | 0.00 | 0.00 | 82 | 1013.9 |
| 20260905081743 | 13 | 155 | 0.0 | 3.2 | 0.00 | 0.00 | 0.00 | 82 | 1013.9 |
| 20260905081712 | 13 | 155 | 0.0 | 3.2 | 0.00 | 0.00 | 0.00 | 82 | 1014.0 |
| 20260905081641 | 13 | 155 | 0.0 | 3.2 | 0.00 | 0.00 | 0.00 | 82 | 1014.0 |
| 20260905081538 | 13 | 155 | 0.0 | 3.2 | 0.00 | 0.00 | 0.00 | 82 | 1014.0 |
| 20260905081438 | 13 | 155 | 0.0 | 3.2 | 0.00 | 0.00 | 0.00 | 82 | 1014.0 |
| 20260905081338 | 13 | 155 | 0.0 | 3.2 | 0.00 | 0.00 | 0.00 | 81 | 1014.0 |
| 20260905081237 | 13 | 155 | 0.0 | 3.2 | 0.00 | 0.00 | 0.00 | 81 | 1013.9 |
| 20260905081211 | 13 | 155 | 0.0 | 1.6 | 0.00 | 0.00 | 0.00 | 81 | 1014.0 |
| 20260905081135 | 13 | 155 | 0.0 | 1.6 | 0.00 | 0.00 | 0.00 | 81 | 1014.0 |
| 20260905081036 | 13 | 155 | 0.0 | 1.6 | 0.00 | 0.00 | 0.00 | 81 | 1014.0 |
| 20260905080936 | 13 | 155 | 0.0 | 1.6 | 0.00 | 0.00 | 0.00 | 81 | 1014.0 |
| 20260905080833 | 13 | 155 | 0.0 | 1.6 | 0.00 | 0.00 | 0.00 | 81 | 1013.9 |
| 20260905080711 | 13 | 155 | 0.0 | 1.6 | 0.00 | 0.00 | 0.00 | 81 | 1013.9 |
| 20260905080629 | 13 | 155 | 0.0 | 1.6 | 0.00 | 0.00 | 0.00 | 81 | 1013.9 |
| 20260905080530 | 13 | 155 | 0.0 | 1.6 | 0.00 | 0.00 | 0.00 | 81 | 1013.9 |
| 20260905080428 | 14 | 155 | 0.0 | 3.2 | 0.00 | 0.00 | 0.00 | 80 | 1013.9 |
| 20260905080327 | 14 | 155 | 0.0 | 3.2 | 0.00 | 0.00 | 0.00 | 81 | 1013.9 |
| 20260905080225 | 14 | 156 | 0.0 | 3.2 | 0.00 | 0.00 | 0.00 | 80 | 1013.9 |
| 20260905080123 | 14 | 108 | 0.0 | 3.2 | 0.00 | 0.00 | 0.00 | 80 | 1013.9 |
| 20260905080017 | 14 | 108 | 0.0 | 3.2 | 0.00 | 0.00 | 0.00 | 80 | 1013.9 |
| 20260905075917 | 14 | 108 | 0.0 | 3.2 | 0.00 | 0.00 | 0.00 | 80 | 1013.9 |
| 20260905075817 | 14 | 108 | 0.0 | 3.2 | 0.00 | 0.00 | 0.00 | 80 | 1013.9 |
| 20260905075711 | 14 | 108 | 1.6 | 3.2 | 0.00 | 0.00 | 0.00 | 80 | 1013.9 |
| 20260905075618 | 14 | 108 | 1.6 | 3.2 | 0.00 | 0.00 | 0.00 | 80 | 1013.9 |
| 20260905075512 | 14 | 117 | 1.6 | 4.8 | 0.00 | 0.00 | 0.00 | 80 | 1013.9 |
| 20260905075411 | 14 | 117 | 1.6 | 4.8 | 0.00 | 0.00 | 0.00 | 80 | 1013.8 |
| 20260905075311 | 14 | 117 | 1.6 | 4.8 | 0.00 | 0.00 | 0.00 | 80 | 1013.8 |
| 20260905075211 | 14 | 117 | 1.6 | 4.8 | 0.00 | 0.00 | 0.00 | 80 | 1013.8 |
| 20260905075111 | 14 | 116 | 1.6 | 4.8 | 0.00 | 0.00 | 0.00 | 80 | 1013.8 |
| 20260905075005 | 14 | 115 | 1.6 | 4.8 | 0.00 | 0.00 | 0.00 | 80 | 1013.8 |
| 20260905074905 | 14 | 103 | 1.6 | 4.8 | 0.00 | 0.00 | 0.00 | 80 | 1013.8 |
| 20260905074806 | 14 | 103 | 1.6 | 4.8 | 0.00 | 0.00 | 0.00 | 80 | 1013.8 |
| 20260905074706 | 14 | 103 | 1.6 | 4.8 | 0.00 | 0.00 | 0.00 | 80 | 1013.8 |
| 20260905074605 | 14 | 103 | 1.6 | 4.8 | 0.00 | 0.00 | 0.00 | 80 | 1013.8 |
| 20260905074459 | 14 | 100 | 1.6 | 4.8 | 0.00 | 0.00 | 0.00 | 80 | 1013.8 |
| 20260905074359 | 14 | 112 | 1.6 | 6.4 | 0.00 | 0.00 | 0.00 | 80 | 1013.8 |
| 20260905074259 | 14 | 71 | 1.6 | 6.4 | 0.00 | 0.00 | 0.00 | 80 | 1013.8 |
| 20260905074211 | 14 | 173 | 1.6 | 6.4 | 0.00 | 0.00 | 0.00 | 80 | 1013.7 |
| 20260905074201 | 14 | 173 | 1.6 | 6.4 | 0.00 | 0.00 | 0.00 | 79 | 1013.7 |
| 20260905074100 | 14 | 174 | 1.6 | 6.4 | 0.00 | 0.00 | 0.00 | 79 | 1013.7 |
| 20260905073953 | 14 | 174 | 3.2 | 6.4 | 0.00 | 0.00 | 0.00 | 79 | 1013.7 |
| 20260905073854 | 14 | 174 | 3.2 | 6.4 | 0.00 | 0.00 | 0.00 | 79 | 1013.7 |
| 20260905073753 | 14 | 173 | 3.2 | 6.4 | 0.00 | 0.00 | 0.00 | 79 | 1013.7 |
| 20260905073710 | 14 | 103 | 3.2 | 6.4 | 0.00 | 0.00 | 0.00 | 79 | 1013.7 |
| 20260905073656 | 14 | 103 | 3.2 | 6.4 | 0.00 | 0.00 | 0.00 | 79 | 1013.7 |
| 20260905073554 | 14 | 103 | 3.2 | 6.4 | 0.00 | 0.00 | 0.00 | 79 | 1013.6 |
| 20260905073447 | 14 | 100 | 3.2 | 6.4 | 0.00 | 0.00 | 0.00 | 79 | 1013.7 |
| 20260905073348 | 14 | 98 | 1.6 | 6.4 | 0.00 | 0.00 | 0.00 | 79 | 1013.6 |
| 20260905073247 | 14 | 88 | 1.6 | 6.4 | 0.00 | 0.00 | 0.00 | 79 | 1013.6 |
| 20260905073211 | 14 | 110 | 1.6 | 6.4 | 0.00 | 0.00 | 0.00 | 79 | 1013.6 |
| 20260905073146 | 14 | 113 | 1.6 | 6.4 | 0.00 | 0.00 | 0.00 | 79 | 1013.6 |
| 20260905073046 | 14 | 110 | 1.6 | 6.4 | 0.00 | 0.00 | 0.00 | 79 | 1013.6 |
| 20260905072940 | 14 | 107 | 1.6 | 6.4 | 0.00 | 0.00 | 0.00 | 79 | 1013.6 |
| 20260905072839 | 14 | 109 | 1.6 | 4.8 | 0.00 | 0.00 | 0.00 | 78 | 1013.6 |
| 20260905072739 | 14 | 103 | 1.6 | 4.8 | 0.00 | 0.03 | 0.00 | 78 | 1013.6 |
| 20260905072711 | 14 | 115 | 1.6 | 4.8 | 0.00 | 0.03 | 0.00 | 78 | 1013.6 |
| 20260905072639 | 14 | 102 | 1.6 | 4.8 | 0.00 | 0.03 | 0.00 | 78 | 1013.6 |
| 20260905072539 | 14 | 79 | 1.6 | 4.8 | 0.00 | 0.03 | 0.00 | 78 | 1013.6 |
| 20260905072435 | 14 | 79 | 1.6 | 4.8 | 0.00 | 0.03 | 0.00 | 78 | 1013.6 |
| 20260905072336 | 14 | 78 | 1.6 | 4.8 | 0.00 | 0.03 | 0.00 | 78 | 1013.7 |
| 20260905072234 | 15 | 77 | 3.2 | 6.4 | 0.00 | 0.03 | 0.00 | 78 | 1013.7 |
| 20260905072223 | 15 | 60 | 3.2 | 6.4 | 0.00 | 0.03 | 0.00 | 78 | 1013.6 |
| 20260905072133 | 15 | 117 | 3.2 | 6.4 | 0.00 | 0.03 | 0.00 | 78 | 1013.6 |
| 20260905072031 | 15 | 111 | 3.2 | 6.4 | 0.00 | 0.03 | 0.00 | 77 | 1013.6 |
| 20260905071926 | 15 | 110 | 3.2 | 6.4 | 0.00 | 0.03 | 0.00 | 77 | 1013.6 |
| 20260905071825 | 15 | 118 | 3.2 | 6.4 | 0.00 | 0.03 | 0.00 | 77 | 1013.6 |
| 20260905071725 | 15 | 99 | 3.2 | 6.4 | 0.00 | 0.03 | 0.00 | 77 | 1013.6 |
| 20260905071706 | 15 | 115 | 3.2 | 6.4 | 0.00 | 0.03 | 0.00 | 77 | 1013.6 |
| 20260905071626 | 15 | 103 | 3.2 | 6.4 | 0.00 | 0.03 | 0.00 | 77 | 1013.6 |
| 20260905071525 | 15 | 100 | 3.2 | 6.4 | 0.00 | 0.03 | 0.00 | 77 | 1013.6 |
| 20260905071432 | 15 | 113 | 1.6 | 4.8 | 0.00 | 0.05 | 0.00 | 77 | 1013.5 |
| 20260905071425 | 15 | 95 | 3.2 | 6.4 | 0.00 | 0.03 | 0.00 | 77 | 1013.6 |
| 20260905071324 | 15 | 96 | 3.2 | 4.8 | 0.00 | 0.05 | 0.00 | 77 | 1013.6 |
| 20260905071309 | 15 | 113 | 3.2 | 4.8 | 0.00 | 0.05 | 0.00 | 77 | 1013.6 |
| 20260905071122 | 15 | 113 | 1.6 | 4.8 | 0.00 | 0.05 | 0.00 | 77 | 1013.5 |
| 20260905071020 | 15 | 88 | 1.6 | 4.8 | 0.00 | 0.05 | 0.00 | 77 | 1013.6 |
| 20260905070916 | 15 | 113 | 1.6 | 4.8 | 0.00 | 0.05 | 0.00 | 77 | 1013.6 |
| 20260905070813 | 15 | 167 | 1.6 | 4.8 | 0.00 | 0.05 | 0.00 | 77 | 1013.6 |
| 20260905070713 | 15 | 83 | 1.6 | 4.8 | 0.00 | 0.05 | 0.00 | 77 | 1013.5 |
| 20260905070654 | 15 | 103 | 1.6 | 4.8 | 0.00 | 0.05 | 0.00 | 77 | 1013.5 |
| 20260905070629 | 15 | 113 | 1.6 | 4.8 | 0.00 | 0.05 | 0.00 | 77 | 1013.4 |
| 20260905070613 | 15 | 115 | 1.6 | 4.8 | 0.00 | 0.05 | 0.00 | 77 | 1013.5 |
| 20260905070522 | 15 | 75 | 1.6 | 4.8 | 0.00 | 0.05 | 0.00 | 77 | 1013.5 |
| 20260905070410 | 15 | 68 | 1.6 | 4.8 | 0.00 | 0.05 | 0.00 | 77 | 1013.5 |
| 20260905070307 | 15 | 104 | 1.6 | 4.8 | 0.00 | 0.05 | 0.00 | 77 | 1013.4 |
| 20260905070257 | 15 | 107 | 1.6 | 4.8 | 0.00 | 0.05 | 0.00 | 77 | 1013.4 |
| 20260905070108 | 15 | 111 | 1.6 | 4.8 | 0.00 | 0.08 | 0.00 | 77 | 1013.4 |
| 20260905070008 | 15 | 115 | 1.6 | 4.8 | 0.00 | 0.08 | 0.00 | 76 | 1013.3 |
| 20260905065910 | 15 | 150 | 1.6 | 9.7 | 0.00 | 0.08 | 0.08 | 76 | 1013.3 |
| 20260905065906 | 15 | 139 | 1.6 | 6.4 | 0.00 | 0.08 | 0.08 | 76 | 1013.3 |
| 20260905065806 | 15 | 153 | 1.6 | 6.4 | 0.00 | 0.08 | 0.08 | 76 | 1013.3 |
| 20260905065758 | 15 | 149 | 1.6 | 6.4 | 0.00 | 0.08 | 0.08 | 76 | 1013.3 |
| 20260905065604 | 15 | 157 | 3.2 | 9.7 | 0.00 | 0.08 | 0.08 | 76 | 1013.3 |
| 20260905065501 | 15 | 139 | 3.2 | 9.7 | 0.00 | 0.08 | 0.08 | 76 | 1013.3 |
| 20260905065357 | 15 | 139 | 3.2 | 9.7 | 0.00 | 0.08 | 0.08 | 76 | 1013.3 |
| 20260905065255 | 15 | 233 | 3.2 | 9.7 | 0.00 | 0.08 | 0.08 | 76 | 1013.2 |
| 20260905065201 | 15 | 233 | 3.2 | 9.7 | 0.00 | 0.08 | 0.08 | 76 | 1013.2 |
| 20260905065147 | 15 | 183 | 3.2 | 9.7 | 0.00 | 0.08 | 0.08 | 76 | 1013.2 |
| 20260905065054 | 15 | 210 | 3.2 | 9.7 | 0.00 | 0.08 | 0.08 | 76 | 1013.2 |
| 20260905064951 | 15 | 219 | 1.6 | 9.7 | 0.00 | 0.08 | 0.08 | 76 | 1013.2 |
| 20260905064846 | 15 | 235 | 3.2 | 9.7 | 0.00 | 0.08 | 0.08 | 76 | 1013.2 |
| 20260905064746 | 15 | 235 | 3.2 | 9.7 | 0.00 | 0.08 | 0.08 | 76 | 1013.2 |
| 20260905064646 | 15 | 224 | 3.2 | 9.7 | 0.00 | 0.08 | 0.08 | 75 | 1013.1 |
| 20260905064546 | 15 | 146 | 3.2 | 9.7 | 0.00 | 0.08 | 0.08 | 75 | 1013.2 |
| 20260905064446 | 15 | 194 | 3.2 | 9.7 | 0.00 | 0.08 | 0.08 | 75 | 1013.1 |
| 20260905064346 | 15 | 201 | 3.2 | 9.7 | 0.00 | 0.08 | 0.08 | 75 | 1013.2 |
| 20260905064244 | 15 | 229 | 3.2 | 9.7 | 0.00 | 0.08 | 0.08 | 75 | 1013.1 |
| 20260905064144 | 15 | 186 | 3.2 | 9.7 | 0.00 | 0.08 | 0.08 | 75 | 1013.1 |
| 20260905064042 | 15 | 186 | 3.2 | 9.7 | 0.00 | 0.08 | 0.08 | 75 | 1013.1 |
| 20260905063939 | 15 | 231 | 3.2 | 9.7 | 0.00 | 0.08 | 0.08 | 75 | 1013.2 |
| 20260905063838 | 15 | 145 | 3.2 | 9.7 | 0.00 | 0.08 | 0.08 | 75 | 1013.2 |
| 20260905063737 | 15 | 215 | 3.2 | 9.7 | 0.00 | 0.08 | 0.08 | 75 | 1013.1 |
| 20260905063645 | 15 | 210 | 3.2 | 8.0 | 0.00 | 0.08 | 0.08 | 75 | 1013.1 |
| 20260905063638 | 15 | 226 | 3.2 | 8.0 | 0.00 | 0.08 | 0.08 | 75 | 1013.1 |
| 20260905063536 | 15 | 217 | 3.2 | 8.0 | 0.00 | 0.08 | 0.08 | 75 | 1013.2 |
| 20260905063433 | 15 | 240 | 3.2 | 8.0 | 0.00 | 0.08 | 0.08 | 74 | 1013.2 |
| 20260905063327 | 15 | 183 | 3.2 | 8.0 | 0.00 | 0.08 | 0.08 | 74 | 1013.2 |
| 20260905063229 | 15 | 210 | 3.2 | 8.0 | 0.00 | 0.08 | 0.08 | 74 | 1013.2 |
| 20260905063145 | 15 | 231 | 3.2 | 8.0 | 0.00 | 0.08 | 0.08 | 74 | 1013.2 |
| 20260905063127 | 15 | 225 | 3.2 | 8.0 | 0.00 | 0.08 | 0.08 | 74 | 1013.2 |
| 20260905063028 | 15 | 226 | 3.2 | 8.0 | 0.00 | 0.08 | 0.08 | 74 | 1013.2 |
| 20260905062927 | 15 | 163 | 1.6 | 8.0 | 0.00 | 0.08 | 0.08 | 74 | 1013.2 |
| 20260905062823 | 15 | 212 | 1.6 | 6.4 | 0.00 | 0.08 | 0.08 | 74 | 1013.2 |
| 20260905062723 | 15 | 228 | 1.6 | 6.4 | 0.00 | 0.08 | 0.08 | 74 | 1013.2 |
| 20260905062657 | 15 | 228 | 1.6 | 6.4 | 0.00 | 0.08 | 0.08 | 74 | 1013.2 |
| 20260905062624 | 15 | 229 | 1.6 | 6.4 | 0.00 | 0.08 | 0.08 | 74 | 1013.2 |
| 20260905062524 | 16 | 221 | 3.2 | 6.4 | 0.00 | 0.08 | 0.08 | 74 | 1013.2 |
| 20260905062420 | 16 | 228 | 1.6 | 6.4 | 0.00 | 0.08 | 0.08 | 74 | 1013.2 |
| 20260905062316 | 16 | 223 | 1.6 | 4.8 | 0.00 | 0.08 | 0.08 | 74 | 1013.2 |
| 20260905062216 | 16 | 222 | 1.6 | 4.8 | 0.00 | 0.08 | 0.08 | 74 | 1013.3 |
| 20260905062143 | 16 | 223 | 1.6 | 4.8 | 0.00 | 0.08 | 0.08 | 74 | 1013.3 |
| 20260905062116 | 16 | 222 | 1.6 | 6.4 | 0.00 | 0.08 | 0.08 | 74 | 1013.2 |
| 20260905062016 | 16 | 214 | 3.2 | 8.0 | 0.00 | 0.08 | 0.08 | 74 | 1013.2 |
| 20260905061915 | 16 | 174 | 3.2 | 8.0 | 0.00 | 0.08 | 0.08 | 74 | 1013.2 |
| 20260905061859 | 16 | 214 | 3.2 | 8.0 | 0.00 | 0.08 | 0.08 | 74 | 1013.2 |
| 20260905061816 | 16 | 216 | 3.2 | 8.0 | 0.00 | 0.08 | 0.08 | 74 | 1013.2 |
| 20260905061715 | 16 | 212 | 3.2 | 8.0 | 0.00 | 0.08 | 0.08 | 74 | 1013.2 |
| 20260905061613 | 16 | 163 | 3.2 | 8.0 | 0.00 | 0.08 | 0.08 | 74 | 1013.3 |
| 20260905061511 | 16 | 226 | 3.2 | 8.0 | 0.00 | 0.08 | 0.08 | 74 | 1013.2 |
| 20260905061410 | 16 | 225 | 3.2 | 8.0 | 0.00 | 0.08 | 0.08 | 73 | 1013.3 |
| 20260905061303 | 16 | 221 | 3.2 | 8.0 | 0.00 | 0.08 | 0.08 | 73 | 1013.2 |
| 20260905061204 | 16 | 221 | 3.2 | 8.0 | 0.00 | 0.08 | 0.08 | 73 | 1013.2 |
| 20260905061141 | 16 | 212 | 3.2 | 8.0 | 0.00 | 0.08 | 0.08 | 73 | 1013.2 |
| 20260905061103 | 16 | 193 | 3.2 | 8.0 | 0.00 | 0.08 | 0.08 | 73 | 1013.3 |
| 20260905061004 | 16 | 232 | 3.2 | 8.0 | 0.00 | 0.08 | 0.08 | 73 | 1013.3 |
| 20260905060907 | 16 | 243 | 3.2 | 8.0 | 0.00 | 0.08 | 0.08 | 73 | 1013.3 |
| 20260905060858 | 16 | 221 | 3.2 | 8.0 | 0.00 | 0.08 | 0.08 | 73 | 1013.3 |
| 20260905060759 | 16 | 242 | 3.2 | 8.0 | 0.00 | 0.08 | 0.08 | 73 | 1013.3 |
| 20260905060751 | 16 | 221 | 3.2 | 8.0 | 0.00 | 0.08 | 0.08 | 73 | 1013.3 |
| 20260905060558 | 16 | 198 | 3.2 | 8.0 | 0.00 | 0.08 | 0.08 | 73 | 1013.2 |
| 20260905060458 | 16 | 229 | 3.2 | 8.0 | 0.00 | 0.08 | 0.08 | 73 | 1013.3 |
| 20260905060357 | 16 | 207 | 3.2 | 8.0 | 0.00 | 0.08 | 0.08 | 73 | 1013.2 |
| 20260905060252 | 16 | 226 | 3.2 | 9.7 | 0.00 | 0.08 | 0.08 | 73 | 1013.2 |
| 20260905060154 | 16 | 235 | 3.2 | 9.7 | 0.00 | 0.08 | 0.08 | 73 | 1013.2 |
| 20260905060052 | 16 | 239 | 3.2 | 9.7 | 0.00 | 0.08 | 0.08 | 73 | 1013.3 |
| 20260905055951 | 16 | 241 | 3.2 | 9.7 | 0.00 | 0.08 | 0.08 | 73 | 1013.2 |
| 20260905055851 | 16 | 231 | 3.2 | 9.7 | 0.00 | 0.08 | 0.08 | 73 | 1013.2 |
| 20260905055746 | 16 | 230 | 3.2 | 9.7 | 0.00 | 0.08 | 0.08 | 73 | 1013.3 |
| 20260905055649 | 16 | 230 | 3.2 | 9.7 | 0.00 | 0.08 | 0.08 | 73 | 1013.3 |
| 20260905055638 | 16 | 229 | 3.2 | 9.7 | 0.00 | 0.08 | 0.08 | 73 | 1013.3 |
| 20260905055546 | 16 | 229 | 3.2 | 9.7 | 0.00 | 0.08 | 0.08 | 73 | 1013.3 |
| 20260905055445 | 16 | 239 | 3.2 | 9.7 | 0.00 | 0.08 | 0.08 | 73 | 1013.3 |
| 20260905055346 | 16 | 231 | 3.2 | 9.7 | 0.00 | 0.08 | 0.08 | 73 | 1013.3 |
| 20260905055242 | 16 | 243 | 3.2 | 9.7 | 0.00 | 0.08 | 0.08 | 73 | 1013.3 |
| 20260905055145 | 16 | 232 | 3.2 | 9.7 | 0.00 | 0.08 | 0.08 | 73 | 1013.3 |
| 20260905055139 | 16 | 233 | 3.2 | 9.7 | 0.00 | 0.08 | 0.08 | 73 | 1013.3 |
| 20260905055040 | 16 | 226 | 3.2 | 9.7 | 0.00 | 0.08 | 0.08 | 73 | 1013.3 |
| 20260905054940 | 16 | 211 | 3.2 | 9.7 | 0.00 | 0.08 | 0.08 | 73 | 1013.3 |
| 20260905054840 | 16 | 236 | 3.2 | 9.7 | 0.00 | 0.08 | 0.08 | 73 | 1013.3 |
| 20260905054735 | 16 | 238 | 3.2 | 9.7 | 0.00 | 0.08 | 0.08 | 73 | 1013.3 |
| 20260905054640 | 16 | 186 | 3.2 | 9.7 | 0.00 | 0.08 | 0.08 | 73 | 1013.3 |
| 20260905054634 | 16 | 240 | 3.2 | 9.7 | 0.00 | 0.08 | 0.08 | 73 | 1013.3 |
| 20260905054533 | 16 | 236 | 3.2 | 9.7 | 0.00 | 0.08 | 0.08 | 73 | 1013.2 |
| 20260905054434 | 16 | 239 | 3.2 | 9.7 | 0.00 | 0.08 | 0.08 | 73 | 1013.3 |
| 20260905054333 | 16 | 218 | 4.8 | 11.3 | 0.00 | 0.08 | 0.08 | 73 | 1013.2 |
| 20260905054228 | 16 | 259 | 4.8 | 11.3 | 0.00 | 0.08 | 0.08 | 73 | 1013.2 |
| 20260905054128 | 16 | 229 | 4.8 | 11.3 | 0.00 | 0.08 | 0.08 | 73 | 1013.2 |
| 20260905054027 | 16 | 211 | 4.8 | 11.3 | 0.00 | 0.08 | 0.08 | 73 | 1013.3 |
| 20260905053928 | 16 | 141 | 3.2 | 11.3 | 0.00 | 0.08 | 0.08 | 73 | 1013.2 |
| 20260905053827 | 16 | 239 | 4.8 | 11.3 | 0.00 | 0.08 | 0.08 | 73 | 1013.3 |
| 20260905053720 | 16 | 255 | 4.8 | 12.9 | 0.00 | 0.08 | 0.08 | 73 | 1013.3 |
| 20260905053638 | 16 | 233 | 4.8 | 12.9 | 0.00 | 0.08 | 0.08 | 73 | 1013.3 |
| 20260905053619 | 16 | 193 | 4.8 | 12.9 | 0.00 | 0.08 | 0.08 | 73 | 1013.3 |
| 20260905053520 | 16 | 173 | 4.8 | 12.9 | 0.00 | 0.08 | 0.08 | 73 | 1013.3 |
| 20260905053420 | 16 | 215 | 4.8 | 12.9 | 0.00 | 0.08 | 0.08 | 73 | 1013.3 |
| 20260905053317 | 16 | 207 | 3.2 | 12.9 | 0.00 | 0.08 | 0.08 | 72 | 1013.3 |
| 20260905053212 | 16 | 229 | 3.2 | 12.9 | 0.00 | 0.08 | 0.08 | 72 | 1013.3 |
| 20260905053132 | 16 | 210 | 3.2 | 12.9 | 0.00 | 0.08 | 0.08 | 72 | 1013.3 |
| 20260905053112 | 16 | 235 | 3.2 | 12.9 | 0.00 | 0.08 | 0.08 | 72 | 1013.3 |
| 20260905053012 | 16 | 203 | 4.8 | 12.9 | 0.00 | 0.08 | 0.08 | 72 | 1013.3 |
| 20260905052911 | 16 | 235 | 4.8 | 12.9 | 0.00 | 0.08 | 0.08 | 72 | 1013.3 |
| 20260905052812 | 16 | 234 | 4.8 | 11.3 | 0.00 | 0.08 | 0.08 | 72 | 1013.3 |
| 20260905052714 | 16 | 158 | 4.8 | 11.3 | 0.00 | 0.08 | 0.08 | 72 | 1013.3 |
| 20260905052627 | 16 | 218 | 4.8 | 11.3 | 0.00 | 0.08 | 0.08 | 72 | 1013.3 |
| 20260905052607 | 16 | 186 | 4.8 | 11.3 | 0.00 | 0.08 | 0.08 | 72 | 1013.3 |
| 20260905052508 | 16 | 239 | 4.8 | 11.3 | 0.00 | 0.08 | 0.08 | 72 | 1013.3 |
| 20260905052408 | 16 | 241 | 4.8 | 11.3 | 0.00 | 0.08 | 0.08 | 72 | 1013.3 |
| 20260905052306 | 16 | 242 | 4.8 | 11.3 | 0.00 | 0.08 | 0.08 | 72 | 1013.3 |
| 20260905052203 | 17 | 241 | 4.8 | 11.3 | 0.00 | 0.08 | 0.08 | 72 | 1013.3 |
| 20260905052121 | 17 | 224 | 4.8 | 11.3 | 0.00 | 0.08 | 0.08 | 72 | 1013.3 |
| 20260905052101 | 17 | 224 | 4.8 | 11.3 | 0.00 | 0.08 | 0.08 | 72 | 1013.3 |
| 20260905052002 | 17 | 201 | 4.8 | 11.3 | 0.00 | 0.08 | 0.08 | 72 | 1013.3 |
| 20260905051902 | 17 | 217 | 4.8 | 9.7 | 0.00 | 0.08 | 0.08 | 71 | 1013.3 |
| 20260905051800 | 17 | 241 | 4.8 | 9.7 | 0.00 | 0.08 | 0.08 | 71 | 1013.3 |
| 20260905051658 | 17 | 228 | 4.8 | 11.3 | 0.00 | 0.08 | 0.08 | 71 | 1013.3 |
| 20260905051614 | 17 | 228 | 6.4 | 11.3 | 0.00 | 0.08 | 0.08 | 71 | 1013.4 |
| 20260905051554 | 17 | 229 | 6.4 | 12.9 | 0.00 | 0.08 | 0.08 | 71 | 1013.4 |
| 20260905051454 | 17 | 248 | 6.4 | 12.9 | 0.00 | 0.08 | 0.08 | 71 | 1013.3 |
| 20260905051354 | 17 | 235 | 6.4 | 12.9 | 0.00 | 0.08 | 0.08 | 71 | 1013.3 |
| 20260905051253 | 17 | 231 | 6.4 | 14.5 | 0.00 | 0.08 | 0.08 | 71 | 1013.3 |
| 20260905051150 | 17 | 226 | 6.4 | 14.5 | 0.00 | 0.08 | 0.08 | 71 | 1013.4 |
| 20260905051108 | 17 | 245 | 6.4 | 14.5 | 0.00 | 0.08 | 0.08 | 71 | 1013.3 |
| 20260905051047 | 17 | 238 | 6.4 | 14.5 | 0.00 | 0.08 | 0.08 | 70 | 1013.3 |
| 20260905050948 | 17 | 245 | 6.4 | 14.5 | 0.00 | 0.08 | 0.08 | 70 | 1013.3 |
| 20260905050847 | 17 | 217 | 6.4 | 14.5 | 0.00 | 0.08 | 0.08 | 70 | 1013.3 |
| 20260905050748 | 17 | 239 | 6.4 | 14.5 | 0.00 | 0.08 | 0.08 | 70 | 1013.3 |
| 20260905050644 | 17 | 228 | 6.4 | 14.5 | 0.00 | 0.08 | 0.08 | 70 | 1013.3 |
| 20260905050602 | 17 | 212 | 6.4 | 14.5 | 0.00 | 0.08 | 0.08 | 70 | 1013.4 |
| 20260905050542 | 17 | 226 | 6.4 | 14.5 | 0.00 | 0.08 | 0.08 | 70 | 1013.4 |
| 20260905050442 | 17 | 238 | 6.4 | 14.5 | 0.00 | 0.08 | 0.08 | 70 | 1013.4 |
| 20260905050341 | 17 | 223 | 6.4 | 14.5 | 0.00 | 0.08 | 0.08 | 70 | 1013.4 |
| 20260905050242 | 17 | 194 | 6.4 | 14.5 | 0.00 | 0.08 | 0.08 | 69 | 1013.3 |
| 20260905050137 | 17 | 226 | 6.4 | 14.5 | 0.00 | 0.08 | 0.08 | 69 | 1013.3 |
| 20260905050109 | 17 | 262 | 6.4 | 14.5 | 0.00 | 0.08 | 0.08 | 69 | 1013.4 |
| 20260905050036 | 17 | 232 | 6.4 | 14.5 | 0.00 | 0.08 | 0.08 | 69 | 1013.4 |
| 20260905045935 | 17 | 215 | 4.8 | 14.5 | 0.00 | 0.08 | 0.08 | 69 | 1013.3 |
| 20260905045836 | 17 | 256 | 4.8 | 14.5 | 0.00 | 0.08 | 0.08 | 69 | 1013.3 |
| 20260905045735 | 17 | 250 | 4.8 | 14.5 | 0.00 | 0.08 | 0.08 | 69 | 1013.4 |
| 20260905045635 | 17 | 235 | 4.8 | 14.5 | 0.00 | 0.08 | 0.08 | 69 | 1013.3 |
| 20260905045550 | 17 | 218 | 4.8 | 14.5 | 0.00 | 0.08 | 0.08 | 69 | 1013.3 |
| 20260905045533 | 17 | 229 | 4.8 | 14.5 | 0.00 | 0.08 | 0.08 | 69 | 1013.3 |
| 20260905045434 | 17 | 248 | 4.8 | 14.5 | 0.00 | 0.08 | 0.08 | 68 | 1013.3 |
| 20260905045332 | 17 | 238 | 4.8 | 14.5 | 0.00 | 0.08 | 0.08 | 68 | 1013.4 |
| 20260905045230 | 17 | 226 | 4.8 | 14.5 | 0.00 | 0.08 | 0.08 | 68 | 1013.4 |
| 20260905045127 | 17 | 238 | 4.8 | 12.9 | 0.00 | 0.08 | 0.08 | 68 | 1013.4 |
| 20260905045044 | 17 | 283 | 4.8 | 12.9 | 0.00 | 0.08 | 0.08 | 68 | 1013.4 |
| 20260905045028 | 17 | 253 | 4.8 | 12.9 | 0.00 | 0.08 | 0.08 | 68 | 1013.4 |
| 20260905044928 | 17 | 228 | 4.8 | 16.1 | 0.00 | 0.08 | 0.08 | 67 | 1013.4 |
| 20260905044825 | 17 | 228 | 6.4 | 16.1 | 0.00 | 0.08 | 0.08 | 67 | 1013.4 |
| 20260905044724 | 18 | 231 | 6.4 | 16.1 | 0.00 | 0.08 | 0.08 | 67 | 1013.4 |
| 20260905044620 | 18 | 219 | 6.4 | 16.1 | 0.00 | 0.08 | 0.08 | 67 | 1013.4 |
| 20260905044538 | 18 | 210 | 4.8 | 16.1 | 0.00 | 0.08 | 0.08 | 67 | 1013.3 |
| 20260905044520 | 18 | 235 | 4.8 | 16.1 | 0.00 | 0.08 | 0.08 | 67 | 1013.3 |
| 20260905044419 | 18 | 231 | 6.4 | 16.1 | 0.00 | 0.08 | 0.08 | 66 | 1013.4 |
| 20260905044320 | 18 | 231 | 6.4 | 16.1 | 0.00 | 0.08 | 0.08 | 66 | 1013.3 |
| 20260905044218 | 18 | 242 | 6.4 | 16.1 | 0.00 | 0.08 | 0.08 | 66 | 1013.3 |
| 20260905044111 | 18 | 238 | 4.8 | 16.1 | 0.00 | 0.08 | 0.08 | 66 | 1013.2 |
| 20260905044032 | 18 | 238 | 4.8 | 16.1 | 0.00 | 0.08 | 0.08 | 66 | 1013.2 |
| 20260905044012 | 18 | 231 | 4.8 | 11.3 | 0.00 | 0.08 | 0.08 | 66 | 1013.2 |
| 20260905043911 | 18 | 231 | 4.8 | 11.3 | 0.00 | 0.08 | 0.08 | 65 | 1013.3 |
| 20260905043811 | 18 | 246 | 4.8 | 9.7 | 0.00 | 0.08 | 0.08 | 65 | 1013.2 |
| 20260905043747 | 18 | 241 | 4.8 | 9.7 | 0.00 | 0.08 | 0.08 | 64 | 1013.2 |
| 20260905043713 | 18 | 224 | 4.8 | 9.7 | 0.00 | 0.08 | 0.08 | 65 | 1013.3 |
| 20260905043637 | 18 | 228 | 4.8 | 9.7 | 0.00 | 0.08 | 0.08 | 64 | 1013.2 |
| 20260905043505 | 18 | 241 | 4.8 | 12.9 | 0.00 | 0.08 | 0.08 | 64 | 1013.2 |
| 20260905043406 | 18 | 240 | 4.8 | 12.9 | 0.00 | 0.08 | 0.08 | 63 | 1013.3 |
| 20260905043305 | 18 | 200 | 4.8 | 12.9 | 0.00 | 0.08 | 0.08 | 63 | 1013.2 |
| 20260905043206 | 18 | 240 | 4.8 | 12.9 | 0.00 | 0.08 | 0.08 | 63 | 1013.3 |
| 20260905043108 | 18 | 219 | 4.8 | 12.9 | 0.00 | 0.08 | 0.08 | 63 | 1013.2 |
| 20260905043022 | 18 | 226 | 4.8 | 12.9 | 0.00 | 0.08 | 0.08 | 63 | 1013.2 |
| 20260905043005 | 18 | 221 | 4.8 | 12.9 | 0.00 | 0.08 | 0.08 | 63 | 1013.2 |
| 20260905042903 | 18 | 228 | 4.8 | 12.9 | 0.00 | 0.08 | 0.08 | 62 | 1013.2 |
| 20260905042801 | 18 | 248 | 4.8 | 12.9 | 0.00 | 0.08 | 0.08 | 62 | 1013.1 |
| 20260905042700 | 18 | 236 | 4.8 | 12.9 | 0.00 | 0.08 | 0.08 | 62 | 1013.1 |
| 20260905042556 | 18 | 230 | 4.8 | 12.9 | 0.00 | 0.08 | 0.08 | 62 | 1013.1 |
| 20260905042514 | 18 | 257 | 4.8 | 12.9 | 0.00 | 0.08 | 0.08 | 62 | 1013.1 |
| 20260905042454 | 18 | 236 | 4.8 | 12.9 | 0.00 | 0.08 | 0.08 | 62 | 1013.1 |
| 20260905042354 | 18 | 246 | 3.2 | 12.9 | 0.00 | 0.08 | 0.08 | 62 | 1013.1 |
| 20260905042253 | 18 | 231 | 3.2 | 12.9 | 0.00 | 0.08 | 0.08 | 62 | 1013.1 |
| 20260905042157 | 18 | 211 | 3.2 | 12.9 | 0.00 | 0.08 | 0.08 | 61 | 1013.1 |
| 20260905042048 | 18 | 203 | 4.8 | 16.1 | 0.00 | 0.08 | 0.08 | 61 | 1013.1 |
| 20260905042008 | 18 | 239 | 4.8 | 16.1 | 0.00 | 0.08 | 0.08 | 61 | 1013.1 |
| 20260905041948 | 18 | 238 | 4.8 | 16.1 | 0.00 | 0.08 | 0.08 | 61 | 1013.1 |
| 20260905041848 | 18 | 260 | 4.8 | 16.1 | 0.00 | 0.08 | 0.08 | 61 | 1013.0 |
| 20260905041748 | 18 | 243 | 4.8 | 16.1 | 0.00 | 0.08 | 0.08 | 61 | 1013.0 |
| 20260905041648 | 18 | 238 | 4.8 | 16.1 | 0.00 | 0.08 | 0.08 | 61 | 1013.0 |
| 20260905041546 | 18 | 219 | 4.8 | 16.1 | 0.00 | 0.08 | 0.08 | 61 | 1013.0 |
| 20260905041503 | 18 | 219 | 4.8 | 16.1 | 0.00 | 0.08 | 0.08 | 61 | 1013.0 |
| 20260905041445 | 18 | 235 | 4.8 | 16.1 | 0.00 | 0.08 | 0.08 | 61 | 1013.0 |
| 20260905041346 | 18 | 235 | 4.8 | 16.1 | 0.00 | 0.08 | 0.08 | 61 | 1013.0 |
| 20260905041244 | 19 | 210 | 4.8 | 16.1 | 0.00 | 0.08 | 0.08 | 61 | 1013.0 |
| 20260905041141 | 19 | 235 | 4.8 | 16.1 | 0.00 | 0.08 | 0.08 | 61 | 1013.0 |
| 20260905041037 | 19 | 239 | 4.8 | 16.1 | 0.00 | 0.08 | 0.08 | 61 | 1013.0 |
| 20260905040956 | 19 | 240 | 4.8 | 16.1 | 0.00 | 0.08 | 0.08 | 61 | 1013.0 |
| 20260905040937 | 19 | 218 | 4.8 | 16.1 | 0.00 | 0.08 | 0.08 | 61 | 1013.0 |
| 20260905040838 | 19 | 231 | 4.8 | 14.5 | 0.00 | 0.08 | 0.08 | 61 | 1012.9 |
| 20260905040739 | 19 | 212 | 4.8 | 14.5 | 0.00 | 0.08 | 0.08 | 61 | 1012.9 |
| 20260905040636 | 19 | 246 | 4.8 | 14.5 | 0.00 | 0.08 | 0.08 | 61 | 1012.9 |
| 20260905040532 | 19 | 208 | 4.8 | 14.5 | 0.00 | 0.08 | 0.08 | 61 | 1012.9 |
| 20260905040449 | 19 | 235 | 3.2 | 12.9 | 0.00 | 0.08 | 0.08 | 61 | 1012.9 |
| 20260905040433 | 19 | 231 | 3.2 | 14.5 | 0.00 | 0.08 | 0.08 | 61 | 1012.9 |
| 20260905040429 | 19 | 198 | 3.2 | 9.7 | 0.00 | 0.08 | 0.08 | 61 | 1012.9 |
| 20260905040330 | 19 | 224 | 3.2 | 9.7 | 0.00 | 0.08 | 0.08 | 61 | 1012.9 |
| 20260905040311 | 19 | 233 | 3.2 | 9.7 | 0.00 | 0.08 | 0.08 | 61 | 1012.9 |
| 20260905040129 | 19 | 200 | 3.2 | 9.7 | 0.00 | 0.08 | 0.08 | 61 | 1012.9 |
| 20260905040055 | 19 | 250 | 3.2 | 9.7 | 0.00 | 0.08 | 0.08 | 61 | 1012.9 |
| 20260905035927 | 19 | 228 | 3.2 | 14.5 | 0.00 | 0.08 | 0.08 | 61 | 1012.9 |
| 20260905035824 | 19 | 221 | 4.8 | 14.5 | 0.00 | 0.08 | 0.08 | 61 | 1012.9 |
| 20260905035723 | 19 | 221 | 4.8 | 14.5 | 0.00 | 0.08 | 0.08 | 61 | 1012.9 |
| 20260905035658 | 19 | 231 | 4.8 | 17.7 | 0.00 | 0.08 | 0.08 | 60 | 1012.8 |
| 20260905035624 | 19 | 235 | 4.8 | 14.5 | 0.00 | 0.08 | 0.08 | 60 | 1012.9 |
| 20260905035549 | 19 | 231 | 4.8 | 14.5 | 0.00 | 0.08 | 0.08 | 60 | 1012.9 |
| 20260905035418 | 19 | 231 | 4.8 | 17.7 | 0.00 | 0.08 | 0.08 | 60 | 1012.8 |
| 20260905035318 | 19 | 232 | 4.8 | 17.7 | 0.00 | 0.08 | 0.08 | 60 | 1012.8 |
| 20260905035218 | 19 | 294 | 4.8 | 17.7 | 0.00 | 0.08 | 0.08 | 60 | 1012.8 |
| 20260905035122 | 19 | 238 | 4.8 | 17.7 | 0.00 | 0.08 | 0.08 | 60 | 1012.7 |
| 20260905035011 | 19 | 242 | 4.8 | 17.7 | 0.00 | 0.08 | 0.08 | 60 | 1012.7 |
| 20260905034932 | 19 | 240 | 4.8 | 17.7 | 0.00 | 0.08 | 0.08 | 60 | 1012.7 |
| 20260905034912 | 19 | 212 | 4.8 | 17.7 | 0.00 | 0.08 | 0.08 | 60 | 1012.8 |
| 20260905034811 | 19 | 242 | 4.8 | 17.7 | 0.00 | 0.08 | 0.08 | 60 | 1012.7 |
| 20260905034712 | 19 | 255 | 4.8 | 17.7 | 0.00 | 0.08 | 0.08 | 60 | 1012.8 |
| 20260905034611 | 19 | 226 | 4.8 | 17.7 | 0.00 | 0.08 | 0.08 | 60 | 1012.8 |
| 20260905034506 | 19 | 248 | 3.2 | 17.7 | 0.00 | 0.08 | 0.08 | 60 | 1012.8 |
| 20260905034427 | 19 | 250 | 3.2 | 16.1 | 0.00 | 0.08 | 0.08 | 60 | 1012.8 |
| 20260905034406 | 19 | 230 | 3.2 | 16.1 | 0.00 | 0.08 | 0.08 | 60 | 1012.7 |
| 20260905034305 | 20 | 252 | 3.2 | 16.1 | 0.00 | 0.08 | 0.08 | 60 | 1012.7 |
| 20260905034207 | 20 | 276 | 3.2 | 16.1 | 0.00 | 0.08 | 0.08 | 60 | 1012.7 |
| 20260905034105 | 20 | 240 | 3.2 | 16.1 | 0.00 | 0.08 | 0.08 | 60 | 1012.7 |
| 20260905034001 | 20 | 163 | 3.2 | 16.1 | 0.00 | 0.08 | 0.08 | 60 | 1012.7 |
| 20260905033924 | 20 | 253 | 3.2 | 16.1 | 0.00 | 0.08 | 0.08 | 60 | 1012.7 |
| 20260905033859 | 20 | 233 | 3.2 | 16.1 | 0.00 | 0.08 | 0.08 | 60 | 1012.7 |
| 20260905033800 | 20 | 253 | 3.2 | 11.3 | 0.00 | 0.08 | 0.08 | 60 | 1012.7 |
| 20260905033700 | 20 | 228 | 4.8 | 11.3 | 0.00 | 0.08 | 0.08 | 60 | 1012.7 |
| 20260905033559 | 20 | 242 | 4.8 | 11.3 | 0.00 | 0.08 | 0.08 | 60 | 1012.7 |
| 20260905033500 | 20 | 253 | 4.8 | 12.9 | 0.00 | 0.08 | 0.08 | 59 | 1012.6 |
| 20260905033414 | 20 | 245 | 4.8 | 14.5 | 0.00 | 0.08 | 0.08 | 59 | 1012.7 |
| 20260905033358 | 20 | 245 | 4.8 | 14.5 | 0.00 | 0.08 | 0.08 | 59 | 1012.7 |
| 20260905033256 | 20 | 236 | 6.4 | 14.5 | 0.00 | 0.08 | 0.08 | 59 | 1012.6 |
| 20260905033156 | 20 | 259 | 6.4 | 14.5 | 0.00 | 0.08 | 0.08 | 59 | 1012.7 |
| 20260905033054 | 20 | 232 | 6.4 | 14.5 | 0.00 | 0.08 | 0.08 | 59 | 1012.6 |
| 20260905032952 | 20 | 248 | 4.8 | 14.5 | 0.00 | 0.08 | 0.08 | 59 | 1012.6 |
| 20260905032908 | 20 | 274 | 4.8 | 14.5 | 0.00 | 0.08 | 0.08 | 59 | 1012.5 |
| 20260905032851 | 20 | 239 | 4.8 | 14.5 | 0.00 | 0.08 | 0.08 | 59 | 1012.5 |
| 20260905032752 | 20 | 239 | 4.8 | 14.5 | 0.00 | 0.08 | 0.08 | 59 | 1012.5 |
| 20260905032653 | 20 | 245 | 4.8 | 14.5 | 0.00 | 0.08 | 0.08 | 59 | 1012.5 |
| 20260905032547 | 20 | 235 | 4.8 | 14.5 | 0.00 | 0.08 | 0.08 | 59 | 1012.4 |
| 20260905032444 | 20 | 239 | 3.2 | 14.5 | 0.00 | 0.08 | 0.08 | 59 | 1012.5 |
| 20260905032403 | 20 | 268 | 3.2 | 12.9 | 0.00 | 0.08 | 0.08 | 59 | 1012.5 |
| 20260905032342 | 20 | 238 | 3.2 | 12.9 | 0.00 | 0.08 | 0.08 | 59 | 1012.5 |
| 20260905032242 | 20 | 232 | 3.2 | 9.7 | 0.00 | 0.08 | 0.08 | 59 | 1012.4 |
| 20260905032142 | 20 | 229 | 3.2 | 9.7 | 0.00 | 0.08 | 0.08 | 59 | 1012.4 |
| 20260905032041 | 20 | 287 | 3.2 | 9.7 | 0.00 | 0.08 | 0.08 | 59 | 1012.4 |
| 20260905031939 | 20 | 231 | 3.2 | 11.3 | 0.00 | 0.08 | 0.08 | 59 | 1012.4 |
| 20260905031857 | 20 | 221 | 3.2 | 11.3 | 0.00 | 0.08 | 0.08 | 59 | 1012.4 |
| 20260905031839 | 20 | 283 | 3.2 | 11.3 | 0.00 | 0.08 | 0.08 | 58 | 1012.4 |
| 20260905031740 | 20 | 203 | 3.2 | 11.3 | 0.00 | 0.08 | 0.08 | 58 | 1012.4 |
| 20260905031637 | 20 | 269 | 3.2 | 11.3 | 0.00 | 0.08 | 0.08 | 58 | 1012.4 |
| 20260905031536 | 20 | 271 | 3.2 | 11.3 | 0.00 | 0.08 | 0.08 | 58 | 1012.3 |
| 20260905031429 | 20 | 238 | 3.2 | 11.3 | 0.00 | 0.08 | 0.08 | 58 | 1012.3 |
| 20260905031350 | 20 | 194 | 3.2 | 11.3 | 0.00 | 0.08 | 0.08 | 58 | 1012.3 |
| 20260905031329 | 20 | 201 | 3.2 | 11.3 | 0.00 | 0.08 | 0.08 | 58 | 1012.3 |
| 20260905031231 | 20 | 281 | 3.2 | 14.5 | 0.00 | 0.08 | 0.08 | 58 | 1012.3 |
| 20260905031130 | 20 | 236 | 3.2 | 14.5 | 0.00 | 0.08 | 0.08 | 58 | 1012.3 |
| 20260905031029 | 20 | 257 | 3.2 | 14.5 | 0.00 | 0.08 | 0.08 | 58 | 1012.3 |
| 20260905030924 | 20 | 238 | 3.2 | 14.5 | 0.00 | 0.08 | 0.08 | 58 | 1012.3 |
| 20260905030845 | 20 | 214 | 3.2 | 14.5 | 0.00 | 0.08 | 0.08 | 58 | 1012.3 |
| 20260905030823 | 20 | 214 | 3.2 | 14.5 | 0.00 | 0.08 | 0.08 | 57 | 1012.3 |
| 20260905030724 | 20 | 239 | 3.2 | 14.5 | 0.00 | 0.08 | 0.08 | 57 | 1012.3 |
| 20260905030623 | 21 | 239 | 3.2 | 14.5 | 0.00 | 0.08 | 0.08 | 57 | 1012.3 |
| 20260905030524 | 21 | 217 | 3.2 | 14.5 | 0.00 | 0.08 | 0.08 | 57 | 1012.3 |
| 20260905030419 | 21 | 238 | 3.2 | 14.5 | 0.00 | 0.08 | 0.08 | 57 | 1012.3 |
| 20260905030318 | 21 | 287 | 4.8 | 14.5 | 0.00 | 0.08 | 0.08 | 57 | 1012.3 |
| 20260905030219 | 21 | 288 | 4.8 | 14.5 | 0.00 | 0.08 | 0.08 | 56 | 1012.3 |
| 20260905030118 | 21 | 246 | 4.8 | 14.5 | 0.00 | 0.08 | 0.08 | 56 | 1012.3 |
| 20260905030054 | 21 | 232 | 4.8 | 14.5 | 0.00 | 0.08 | 0.08 | 56 | 1012.3 |
| 20260905030017 | 21 | 277 | 4.8 | 14.5 | 0.00 | 0.08 | 0.08 | 56 | 1012.3 |
| 20260905025943 | 21 | 233 | 4.8 | 14.5 | 0.00 | 0.08 | 0.08 | 56 | 1012.3 |
| 20260905025812 | 21 | 245 | 4.8 | 14.5 | 0.00 | 0.08 | 0.08 | 56 | 1012.3 |
| 20260905025713 | 21 | 235 | 4.8 | 14.5 | 0.00 | 0.08 | 0.08 | 56 | 1012.2 |
| 20260905025611 | 21 | 273 | 4.8 | 14.5 | 0.00 | 0.08 | 0.08 | 56 | 1012.3 |
| 20260905025511 | 21 | 256 | 4.8 | 14.5 | 0.00 | 0.08 | 0.08 | 56 | 1012.2 |
| 20260905025407 | 21 | 289 | 3.2 | 14.5 | 0.00 | 0.08 | 0.08 | 55 | 1012.2 |
| 20260905025327 | 21 | 255 | 3.2 | 12.9 | 0.00 | 0.08 | 0.08 | 55 | 1012.2 |
| 20260905025308 | 21 | 270 | 3.2 | 12.9 | 0.00 | 0.08 | 0.08 | 55 | 1012.2 |
| 20260905025209 | 21 | 278 | 3.2 | 11.3 | 0.00 | 0.08 | 0.08 | 55 | 1012.2 |
| 20260905025108 | 21 | 229 | 3.2 | 11.3 | 0.00 | 0.08 | 0.08 | 55 | 1012.2 |
| 20260905025038 | 21 | 225 | 3.2 | 16.1 | 0.00 | 0.08 | 0.08 | 55 | 1012.1 |
| 20260905025006 | 21 | 219 | 4.8 | 12.9 | 0.00 | 0.08 | 0.08 | 55 | 1012.2 |
| 20260905024930 | 21 | 273 | 3.2 | 16.1 | 0.00 | 0.08 | 0.08 | 55 | 1012.1 |
| 20260905024800 | 21 | 225 | 4.8 | 16.1 | 0.00 | 0.08 | 0.08 | 55 | 1012.1 |
| 20260905024700 | 21 | 210 | 4.8 | 16.1 | 0.00 | 0.08 | 0.08 | 54 | 1012.1 |
| 20260905024600 | 21 | 277 | 4.8 | 16.1 | 0.00 | 0.08 | 0.08 | 54 | 1012.1 |
| 20260905024500 | 21 | 284 | 4.8 | 16.1 | 0.00 | 0.08 | 0.08 | 54 | 1012.1 |
| 20260905024400 | 21 | 229 | 4.8 | 16.1 | 0.00 | 0.08 | 0.08 | 54 | 1012.1 |
| 20260905024314 | 21 | 270 | 3.2 | 16.1 | 0.00 | 0.08 | 0.08 | 54 | 1012.1 |
| 20260905024257 | 21 | 263 | 3.2 | 16.1 | 0.00 | 0.08 | 0.08 | 54 | 1012.1 |
| 20260905024159 | 21 | 263 | 4.8 | 16.1 | 0.00 | 0.08 | 0.08 | 54 | 1012.1 |
| 20260905024055 | 21 | 248 | 4.8 | 16.1 | 0.00 | 0.08 | 0.08 | 54 | 1012.0 |
| 20260905023954 | 21 | 250 | 3.2 | 16.1 | 0.00 | 0.08 | 0.08 | 53 | 1012.0 |
| 20260905023849 | 21 | 278 | 3.2 | 16.1 | 0.00 | 0.08 | 0.08 | 53 | 1012.0 |
| 20260905023808 | 21 | 246 | 3.2 | 16.1 | 0.00 | 0.08 | 0.08 | 53 | 1012.0 |
| 20260905023748 | 22 | 248 | 3.2 | 16.1 | 0.00 | 0.08 | 0.08 | 53 | 1012.0 |
| 20260905023653 | 22 | 271 | 3.2 | 16.1 | 0.00 | 0.08 | 0.08 | 53 | 1012.1 |
| 20260905023548 | 22 | 212 | 4.8 | 16.1 | 0.00 | 0.08 | 0.08 | 53 | 1012.0 |
| 20260905023447 | 22 | 257 | 4.8 | 16.1 | 0.00 | 0.08 | 0.08 | 52 | 1012.1 |
| 20260905023341 | 22 | 271 | 4.8 | 16.1 | 0.00 | 0.08 | 0.08 | 52 | 1012.1 |
| 20260905023303 | 22 | 235 | 4.8 | 16.1 | 0.00 | 0.08 | 0.08 | 52 | 1012.1 |
| 20260905023242 | 22 | 233 | 4.8 | 16.1 | 0.00 | 0.08 | 0.08 | 52 | 1012.1 |
| 20260905023141 | 22 | 239 | 4.8 | 19.3 | 0.00 | 0.08 | 0.08 | 52 | 1012.1 |
| 20260905023042 | 22 | 200 | 6.4 | 19.3 | 0.00 | 0.08 | 0.08 | 52 | 1012.1 |
| 20260905022941 | 22 | 264 | 6.4 | 19.3 | 0.00 | 0.08 | 0.08 | 52 | 1012.0 |
| 20260905022838 | 22 | 302 | 6.4 | 19.3 | 0.00 | 0.08 | 0.08 | 52 | 1012.0 |
| 20260905022758 | 22 | 223 | 6.4 | 19.3 | 0.00 | 0.08 | 0.08 | 52 | 1012.1 |
| 20260905022737 | 22 | 222 | 6.4 | 19.3 | 0.00 | 0.08 | 0.08 | 52 | 1012.1 |
| 20260905022638 | 22 | 250 | 6.4 | 19.3 | 0.00 | 0.08 | 0.08 | 52 | 1012.1 |
| 20260905022538 | 22 | 235 | 6.4 | 19.3 | 0.00 | 0.08 | 0.08 | 52 | 1012.1 |
| 20260905022517 | 22 | 238 | 4.8 | 19.3 | 0.00 | 0.08 | 0.08 | 51 | 1012.0 |
| 20260905022436 | 22 | 221 | 6.4 | 19.3 | 0.00 | 0.08 | 0.08 | 51 | 1012.1 |
| 20260905022401 | 22 | 226 | 6.4 | 19.3 | 0.00 | 0.08 | 0.08 | 51 | 1012.1 |
| 20260905022230 | 22 | 249 | 4.8 | 19.3 | 0.00 | 0.08 | 0.08 | 50 | 1012.0 |
| 20260905022130 | 22 | 235 | 4.8 | 19.3 | 0.00 | 0.08 | 0.08 | 49 | 1012.0 |
| 20260905022030 | 22 | 240 | 3.2 | 19.3 | 0.00 | 0.08 | 0.08 | 49 | 1012.1 |
| 20260905021929 | 23 | 229 | 3.2 | 19.3 | 0.00 | 0.08 | 0.08 | 48 | 1012.0 |
| 20260905021826 | 23 | 136 | 3.2 | 9.7 | 0.00 | 0.08 | 0.08 | 46 | 1012.0 |
| 20260905021744 | 23 | 157 | 3.2 | 8.0 | 0.00 | 0.08 | 0.08 | 45 | 1012.0 |
| 20260905021726 | 23 | 228 | 3.2 | 8.0 | 0.00 | 0.08 | 0.08 | 45 | 1012.0 |
| 20260905021625 | 23 | 235 | 3.2 | 8.0 | 0.00 | 0.08 | 0.08 | 45 | 1012.0 |
| 20260905021526 | 23 | 170 | 3.2 | 8.0 | 0.00 | 0.08 | 0.08 | 44 | 1012.0 |
| 20260905021500 | 23 | 243 | 3.2 | 6.4 | 0.00 | 0.08 | 0.08 | 44 | 1011.9 |
| 20260905021423 | 23 | 226 | 3.2 | 8.0 | 0.00 | 0.08 | 0.08 | 44 | 1011.9 |
| 20260905021349 | 23 | 198 | 3.2 | 8.0 | 0.00 | 0.08 | 0.08 | 44 | 1011.9 |
| 20260905021228 | 23 | 193 | 3.2 | 6.4 | 0.00 | 0.08 | 0.08 | 44 | 1011.9 |
| 20260905021219 | 23 | 229 | 3.2 | 6.4 | 0.00 | 0.08 | 0.08 | 44 | 1011.9 |
| 20260905021119 | 23 | 229 | 3.2 | 6.4 | 0.00 | 0.08 | 0.08 | 44 | 1012.0 |
| 20260905021109 | 23 | 229 | 3.2 | 6.4 | 0.00 | 0.08 | 0.08 | 44 | 1012.0 |
| 20260905020923 | 23 | 229 | 3.2 | 6.4 | 0.00 | 0.08 | 0.08 | 44 | 1011.9 |
| 20260905020843 | 23 | 141 | 3.2 | 6.4 | 0.00 | 0.08 | 0.08 | 44 | 1011.9 |
| 20260905020712 | 23 | 203 | 3.2 | 6.4 | 0.00 | 0.08 | 0.08 | 44 | 1011.9 |
| 20260905020612 | 23 | 207 | 3.2 | 8.0 | 0.00 | 0.08 | 0.08 | 44 | 1011.9 |
| 20260905020512 | 23 | 233 | 3.2 | 8.0 | 0.00 | 0.08 | 0.08 | 43 | 1011.9 |
| 20260905020411 | 23 | 229 | 3.2 | 11.3 | 0.00 | 0.08 | 0.08 | 44 | 1011.9 |
| 20260905020306 | 23 | 229 | 3.2 | 11.3 | 0.00 | 0.08 | 0.08 | 44 | 1012.0 |
| 20260905020240 | 23 | 200 | 3.2 | 11.3 | 0.00 | 0.08 | 0.08 | 44 | 1012.0 |
| 20260905020206 | 23 | 200 | 3.2 | 11.3 | 0.00 | 0.08 | 0.08 | 43 | 1011.9 |
| 20260905020106 | 23 | 200 | 3.2 | 11.3 | 0.00 | 0.08 | 0.08 | 43 | 1012.0 |
| 20260905020006 | 23 | 188 | 3.2 | 11.3 | 0.00 | 0.08 | 0.08 | 43 | 1012.0 |
| 20260905015906 | 23 | 228 | 3.2 | 11.3 | 0.00 | 0.08 | 0.08 | 43 | 1012.0 |
| 20260905015800 | 23 | 235 | 3.2 | 11.3 | 0.00 | 0.08 | 0.08 | 43 | 1012.0 |
| 20260905015720 | 23 | 215 | 3.2 | 11.3 | 0.00 | 0.08 | 0.08 | 43 | 1012.0 |
| 20260905015701 | 23 | 246 | 3.2 | 11.3 | 0.00 | 0.08 | 0.08 | 43 | 1012.0 |
| 20260905015559 | 23 | 226 | 1.6 | 11.3 | 0.00 | 0.08 | 0.08 | 43 | 1012.1 |
| 20260905015459 | 23 | 211 | 1.6 | 11.3 | 0.00 | 0.08 | 0.08 | 43 | 1012.0 |
| 20260905015400 | 23 | 226 | 1.6 | 6.4 | 0.00 | 0.08 | 0.08 | 43 | 1012.0 |
| 20260905015300 | 23 | 246 | 1.6 | 6.4 | 0.00 | 0.08 | 0.08 | 43 | 1012.0 |
| 20260905015214 | 23 | 246 | 1.6 | 6.4 | 0.00 | 0.08 | 0.08 | 43 | 1012.0 |
| 20260905015158 | 23 | 246 | 1.6 | 6.4 | 0.00 | 0.08 | 0.08 | 43 | 1012.0 |
| 20260905015055 | 23 | 246 | 3.2 | 6.4 | 0.00 | 0.08 | 0.08 | 43 | 1012.1 |
| 20260905014956 | 23 | 246 | 3.2 | 9.7 | 0.00 | 0.08 | 0.08 | 43 | 1012.0 |
| 20260905014853 | 23 | 231 | 3.2 | 9.7 | 0.00 | 0.08 | 0.08 | 43 | 1012.0 |
| 20260905014750 | 23 | 231 | 3.2 | 9.7 | 0.00 | 0.08 | 0.08 | 43 | 1012.1 |
| 20260905014708 | 23 | 231 | 3.2 | 9.7 | 0.00 | 0.08 | 0.08 | 43 | 1012.1 |
| 20260905014651 | 23 | 230 | 4.8 | 9.7 | 0.00 | 0.08 | 0.08 | 43 | 1012.1 |
| 20260905014548 | 23 | 240 | 4.8 | 12.9 | 0.00 | 0.08 | 0.08 | 43 | 1012.0 |
| 20260905014447 | 23 | 267 | 4.8 | 12.9 | 0.00 | 0.08 | 0.08 | 43 | 1012.0 |
| 20260905014347 | 23 | 231 | 4.8 | 12.9 | 0.00 | 0.08 | 0.08 | 42 | 1012.0 |
| 20260905014241 | 23 | 207 | 4.8 | 12.9 | 0.00 | 0.08 | 0.08 | 42 | 1012.0 |
| 20260905014203 | 23 | 214 | 4.8 | 12.9 | 0.00 | 0.08 | 0.08 | 42 | 1012.0 |
| 20260905014142 | 23 | 215 | 4.8 | 12.9 | 0.00 | 0.08 | 0.08 | 42 | 1012.0 |
| 20260905014042 | 23 | 240 | 4.8 | 12.9 | 0.00 | 0.08 | 0.08 | 42 | 1012.0 |
| 20260905013942 | 23 | 262 | 4.8 | 12.9 | 0.00 | 0.08 | 0.08 | 42 | 1012.0 |
| 20260905013841 | 23 | 200 | 4.8 | 12.9 | 0.00 | 0.08 | 0.08 | 41 | 1012.0 |
| 20260905013737 | 23 | 198 | 4.8 | 12.9 | 0.00 | 0.08 | 0.08 | 41 | 1012.0 |
| 20260905013701 | 23 | 242 | 4.8 | 12.9 | 0.00 | 0.08 | 0.08 | 41 | 1012.0 |
| 20260905013636 | 23 | 201 | 4.8 | 12.9 | 0.00 | 0.08 | 0.08 | 41 | 1012.0 |
| 20260905013536 | 23 | 188 | 3.2 | 11.3 | 0.00 | 0.08 | 0.08 | 42 | 1012.0 |
| 20260905013435 | 23 | 143 | 4.8 | 11.3 | 0.00 | 0.08 | 0.08 | 42 | 1012.0 |
| 20260905013335 | 23 | 121 | 4.8 | 11.3 | 0.00 | 0.08 | 0.08 | 41 | 1012.0 |
| 20260905013232 | 23 | 217 | 4.8 | 11.3 | 0.00 | 0.08 | 0.08 | 41 | 1012.0 |
| 20260905013151 | 23 | 226 | 4.8 | 11.3 | 0.00 | 0.08 | 0.08 | 41 | 1012.0 |
| 20260905013130 | 23 | 212 | 4.8 | 11.3 | 0.00 | 0.08 | 0.08 | 41 | 1012.0 |
| 20260905013030 | 23 | 238 | 4.8 | 11.3 | 0.00 | 0.08 | 0.08 | 41 | 1012.0 |
| 20260905012929 | 23 | 160 | 4.8 | 11.3 | 0.00 | 0.08 | 0.08 | 41 | 1011.9 |
| 20260905012830 | 23 | 210 | 4.8 | 11.3 | 0.00 | 0.08 | 0.08 | 41 | 1012.0 |
| 20260905012724 | 23 | 138 | 4.8 | 11.3 | 0.00 | 0.08 | 0.08 | 41 | 1012.0 |
| 20260905012645 | 23 | 201 | 4.8 | 11.3 | 0.00 | 0.08 | 0.08 | 41 | 1011.9 |
| 20260905012624 | 23 | 226 | 4.8 | 11.3 | 0.00 | 0.08 | 0.08 | 41 | 1011.9 |
| 20260905012523 | 23 | 186 | 4.8 | 12.9 | 0.00 | 0.08 | 0.08 | 41 | 1011.9 |
| 20260905012423 | 23 | 158 | 4.8 | 12.9 | 0.00 | 0.08 | 0.08 | 41 | 1012.0 |
| 20260905012323 | 23 | 177 | 4.8 | 12.9 | 0.00 | 0.08 | 0.08 | 41 | 1011.9 |
| 20260905012218 | 23 | 253 | 4.8 | 12.9 | 0.00 | 0.08 | 0.08 | 40 | 1011.9 |
| 20260905012138 | 23 | 212 | 4.8 | 12.9 | 0.00 | 0.08 | 0.08 | 40 | 1012.0 |
| 20260905012118 | 23 | 203 | 4.8 | 12.9 | 0.00 | 0.08 | 0.08 | 40 | 1012.0 |
| 20260905012017 | 23 | 231 | 4.8 | 12.9 | 0.00 | 0.08 | 0.08 | 40 | 1011.9 |
| 20260905011918 | 23 | 231 | 4.8 | 12.9 | 0.00 | 0.08 | 0.08 | 40 | 1011.9 |
| 20260905011817 | 23 | 217 | 4.8 | 12.9 | 0.00 | 0.08 | 0.08 | 40 | 1011.9 |
| 20260905011712 | 23 | 273 | 6.4 | 12.9 | 0.00 | 0.08 | 0.08 | 39 | 1011.9 |
| 20260905011636 | 23 | 233 | 6.4 | 12.9 | 0.00 | 0.08 | 0.08 | 39 | 1011.9 |
| 20260905011612 | 23 | 240 | 4.8 | 14.5 | 0.00 | 0.08 | 0.08 | 39 | 1011.9 |
| 20260905011512 | 23 | 212 | 4.8 | 14.5 | 0.00 | 0.08 | 0.08 | 39 | 1011.8 |
| 20260905011412 | 23 | 252 | 4.8 | 14.5 | 0.00 | 0.08 | 0.08 | 39 | 1011.9 |
| 20260905011311 | 23 | 246 | 4.8 | 14.5 | 0.00 | 0.08 | 0.08 | 39 | 1011.8 |
| 20260905011206 | 23 | 223 | 4.8 | 14.5 | 0.00 | 0.08 | 0.08 | 39 | 1011.8 |
| 20260905011138 | 23 | 204 | 4.8 | 14.5 | 0.00 | 0.08 | 0.08 | 39 | 1011.8 |
| 20260905011106 | 23 | 138 | 4.8 | 14.5 | 0.00 | 0.08 | 0.08 | 39 | 1011.8 |
| 20260905011005 | 23 | 154 | 3.2 | 14.5 | 0.00 | 0.08 | 0.08 | 39 | 1011.9 |
| 20260905010906 | 23 | 219 | 3.2 | 14.5 | 0.00 | 0.08 | 0.08 | 39 | 1011.9 |
| 20260905010805 | 23 | 243 | 3.2 | 14.5 | 0.00 | 0.08 | 0.08 | 38 | 1011.9 |
| 20260905010659 | 23 | 253 | 3.2 | 14.5 | 0.00 | 0.08 | 0.08 | 39 | 1011.9 |
| 20260905010634 | 23 | 229 | 3.2 | 14.5 | 0.00 | 0.08 | 0.08 | 39 | 1011.9 |
| 20260905010559 | 23 | 236 | 3.2 | 9.7 | 0.00 | 0.08 | 0.08 | 39 | 1011.9 |
| 20260905010459 | 23 | 170 | 4.8 | 9.7 | 0.00 | 0.08 | 0.08 | 39 | 1011.9 |
| 20260905010400 | 23 | 210 | 4.8 | 12.9 | 0.00 | 0.08 | 0.08 | 38 | 1011.9 |
| 20260905010259 | 23 | 167 | 4.8 | 12.9 | 0.00 | 0.08 | 0.08 | 39 | 1011.9 |
| 20260905010156 | 23 | 211 | 4.8 | 12.9 | 0.00 | 0.08 | 0.08 | 39 | 1011.9 |
| 20260905010135 | 23 | 228 | 4.8 | 12.9 | 0.00 | 0.08 | 0.08 | 39 | 1011.9 |
| 20260905010053 | 23 | 197 | 4.8 | 12.9 | 0.00 | 0.08 | 0.08 | 39 | 1011.9 |
| 20260905005954 | 23 | 197 | 4.8 | 12.9 | 0.00 | 0.08 | 0.08 | 38 | 1011.9 |
| 20260905005854 | 23 | 212 | 4.8 | 12.9 | 0.00 | 0.08 | 0.08 | 38 | 1011.9 |
| 20260905005753 | 23 | 225 | 4.8 | 12.9 | 0.00 | 0.08 | 0.08 | 38 | 1011.9 |
| 20260905005650 | 23 | 262 | 4.8 | 12.9 | 0.00 | 0.08 | 0.08 | 38 | 1011.9 |
| 20260905005634 | 23 | 238 | 4.8 | 12.9 | 0.00 | 0.08 | 0.08 | 38 | 1011.9 |
| 20260905005548 | 23 | 250 | 4.8 | 12.9 | 0.00 | 0.08 | 0.08 | 37 | 1011.9 |
| 20260905005448 | 23 | 226 | 4.8 | 12.9 | 0.00 | 0.08 | 0.08 | 37 | 1011.8 |
| 20260905005348 | 24 | 226 | 3.2 | 11.3 | 0.00 | 0.08 | 0.08 | 37 | 1011.8 |
| 20260905005247 | 24 | 240 | 3.2 | 11.3 | 0.00 | 0.08 | 0.08 | 37 | 1011.9 |
| 20260905005149 | 24 | 239 | 3.2 | 11.3 | 0.00 | 0.08 | 0.08 | 38 | 1011.8 |
| 20260905005134 | 24 | 230 | 3.2 | 11.3 | 0.00 | 0.08 | 0.08 | 38 | 1011.8 |
| 20260905005045 | 24 | 168 | 3.2 | 11.3 | 0.00 | 0.08 | 0.08 | 37 | 1011.8 |
| 20260905004945 | 24 | 168 | 3.2 | 11.3 | 0.00 | 0.08 | 0.08 | 36 | 1011.8 |
| 20260905004844 | 24 | 267 | 4.8 | 11.3 | 0.00 | 0.08 | 0.08 | 37 | 1011.9 |
| 20260905004741 | 24 | 260 | 4.8 | 12.9 | 0.00 | 0.08 | 0.08 | 37 | 1011.9 |
| 20260905004636 | 24 | 256 | 4.8 | 12.9 | 0.00 | 0.08 | 0.08 | 37 | 1011.9 |
| 20260905004535 | 24 | 243 | 4.8 | 12.9 | 0.00 | 0.08 | 0.08 | 36 | 1011.8 |
| 20260905004436 | 24 | 240 | 3.2 | 12.9 | 0.00 | 0.08 | 0.08 | 36 | 1011.8 |
| 20260905004356 | 24 | 232 | 4.8 | 12.9 | 0.00 | 0.08 | 0.08 | 36 | 1011.8 |
| 20260905004335 | 24 | 208 | 4.8 | 12.9 | 0.00 | 0.08 | 0.08 | 36 | 1011.9 |
| 20260905004246 | 24 | 231 | 4.8 | 12.9 | 0.00 | 0.08 | 0.08 | 36 | 1011.9 |
| 20260905004130 | 24 | 246 | 4.8 | 12.9 | 0.00 | 0.08 | 0.08 | 36 | 1011.8 |
| 20260905004029 | 24 | 229 | 4.8 | 12.9 | 0.00 | 0.08 | 0.08 | 36 | 1011.8 |
| 20260905003929 | 24 | 250 | 4.8 | 12.9 | 0.00 | 0.08 | 0.08 | 36 | 1011.8 |
| 20260905003830 | 24 | 249 | 3.2 | 9.7 | 0.00 | 0.08 | 0.08 | 35 | 1011.8 |
| 20260905003634 | 24 | 233 | 3.2 | 8.0 | 0.00 | 0.08 | 0.08 | 36 | 1011.8 |
| 20260905003626 | 24 | 193 | 3.2 | 8.0 | 0.00 | 0.08 | 0.08 | 36 | 1011.8 |
| 20260905003524 | 24 | 235 | 3.2 | 8.0 | 0.00 | 0.08 | 0.08 | 36 | 1011.8 |
| 20260905003424 | 24 | 239 | 1.6 | 8.0 | 0.00 | 0.08 | 0.08 | 35 | 1011.8 |
| 20260905003323 | 24 | 233 | 1.6 | 8.0 | 0.00 | 0.08 | 0.08 | 35 | 1011.8 |
| 20260905003224 | 24 | 243 | 1.6 | 8.0 | 0.00 | 0.08 | 0.08 | 34 | 1011.8 |
| 20260905003135 | 24 | 224 | 1.6 | 8.0 | 0.00 | 0.08 | 0.08 | 34 | 1011.9 |
| 20260905003125 | 24 | 224 | 1.6 | 6.4 | 0.00 | 0.08 | 0.08 | 35 | 1011.8 |
| 20260905003118 | 24 | 163 | 1.6 | 8.0 | 0.00 | 0.08 | 0.08 | 35 | 1011.8 |
| 20260905003013 | 24 | 225 | 1.6 | 8.0 | 0.00 | 0.08 | 0.08 | 36 | 1011.8 |
| 20260905002817 | 24 | 224 | 1.6 | 6.4 | 0.00 | 0.08 | 0.08 | 35 | 1011.8 |
| 20260905002746 | 24 | 224 | 1.6 | 6.4 | 0.00 | 0.08 | 0.08 | 36 | 1011.8 |
| 20260905002612 | 24 | 224 | 1.6 | 6.4 | 0.00 | 0.08 | 0.08 | 35 | 1011.8 |
| 20260905002512 | 24 | 232 | 1.6 | 6.4 | 0.00 | 0.08 | 0.08 | 35 | 1011.8 |
| 20260905002411 | 24 | 138 | 3.2 | 6.4 | 0.00 | 0.08 | 0.08 | 35 | 1011.9 |
| 20260905002312 | 24 | 155 | 3.2 | 12.9 | 0.00 | 0.08 | 0.08 | 35 | 1011.8 |
| 20260905002211 | 24 | 211 | 3.2 | 12.9 | 0.00 | 0.08 | 0.08 | 34 | 1011.9 |
| 20260905002133 | 24 | 211 | 3.2 | 12.9 | 0.00 | 0.08 | 0.08 | 34 | 1011.9 |
| 20260905002106 | 24 | 218 | 3.2 | 12.9 | 0.00 | 0.08 | 0.08 | 35 | 1011.9 |
| 20260905002006 | 24 | 149 | 4.8 | 12.9 | 0.00 | 0.08 | 0.08 | 34 | 1011.9 |
| 20260905001909 | 24 | 165 | 4.8 | 12.9 | 0.00 | 0.08 | 0.08 | 35 | 1011.9 |
| 20260905001806 | 24 | 231 | 4.8 | 12.9 | 0.00 | 0.08 | 0.08 | 34 | 1011.9 |
| 20260905001706 | 24 | 233 | 4.8 | 12.9 | 0.00 | 0.08 | 0.08 | 34 | 1011.9 |
| 20260905001633 | 24 | 233 | 4.8 | 12.9 | 0.00 | 0.08 | 0.08 | 34 | 1011.9 |
| 20260905001559 | 24 | 233 | 4.8 | 12.9 | 0.00 | 0.08 | 0.08 | 33 | 1011.9 |
| 20260905001459 | 24 | 270 | 4.8 | 12.9 | 0.00 | 0.08 | 0.08 | 33 | 1012.0 |
| 20260905001359 | 24 | 270 | 4.8 | 12.9 | 0.00 | 0.08 | 0.08 | 33 | 1012.0 |
| 20260905001300 | 24 | 255 | 4.8 | 12.9 | 0.00 | 0.08 | 0.08 | 33 | 1012.0 |
| 20260905001200 | 24 | 253 | 4.8 | 12.9 | 0.00 | 0.08 | 0.08 | 33 | 1012.0 |
| 20260905001133 | 24 | 255 | 4.8 | 12.9 | 0.00 | 0.08 | 0.08 | 33 | 1012.0 |
| 20260905001058 | 24 | 233 | 3.2 | 12.9 | 0.00 | 0.08 | 0.08 | 33 | 1012.0 |
| 20260905000958 | 24 | 188 | 3.2 | 12.9 | 0.00 | 0.08 | 0.08 | 33 | 1012.0 |
| 20260905000906 | 24 | 195 | 4.8 | 14.5 | 0.00 | 0.08 | 0.08 | 33 | 1012.0 |
| 20260905000857 | 24 | 240 | 4.8 | 12.9 | 0.00 | 0.08 | 0.08 | 34 | 1012.0 |
| 20260905000756 | 24 | 191 | 4.8 | 12.9 | 0.00 | 0.08 | 0.08 | 33 | 1012.0 |
| 20260905000745 | 24 | 188 | 4.8 | 14.5 | 0.00 | 0.08 | 0.08 | 33 | 1012.0 |
| 20260905000556 | 24 | 241 | 4.8 | 14.5 | 0.00 | 0.08 | 0.08 | 33 | 1012.1 |
| 20260905000455 | 24 | 238 | 4.8 | 16.1 | 0.00 | 0.08 | 0.08 | 35 | 1012.1 |
| 20260905000355 | 24 | 228 | 6.4 | 16.1 | 0.00 | 0.08 | 0.08 | 34 | 1012.0 |
| 20260905000255 | 24 | 132 | 6.4 | 16.1 | 0.00 | 0.08 | 0.08 | 34 | 1012.0 |
| 20260905000155 | 24 | 253 | 6.4 | 16.1 | 0.00 | 0.08 | 0.08 | 35 | 1012.1 |
| 20260905000133 | 24 | 253 | 6.4 | 16.1 | 0.00 | 0.08 | 0.08 | 34 | 1012.1 |
| 20260905000053 | 24 | 253 | 6.4 | 16.1 | 0.00 | 0.08 | 0.08 | 34 | 1012.1 |
| 20260904235954 | 24 | 221 | 6.4 | 16.1 | 0.00 | 0.08 | 0.08 | 33 | 1012.0 |
| 20260904235858 | 25 | 216 | 6.4 | 16.1 | 0.00 | 0.08 | 0.08 | 33 | 1012.0 |
| 20260904235853 | 25 | 218 | 6.4 | 16.1 | 0.00 | 0.08 | 0.08 | 33 | 1012.0 |
| 20260904235754 | 25 | 208 | 6.4 | 16.1 | 0.00 | 0.08 | 0.08 | 33 | 1012.0 |
| 20260904235743 | 25 | 229 | 6.4 | 16.1 | 0.00 | 0.08 | 0.08 | 33 | 1012.0 |
| 20260904235553 | 25 | 241 | 6.4 | 16.1 | 0.00 | 0.08 | 0.08 | 34 | 1012.0 |
| 20260904235452 | 25 | 248 | 6.4 | 16.1 | 0.00 | 0.08 | 0.08 | 35 | 1012.0 |
| 20260904235352 | 25 | 132 | 6.4 | 17.7 | 0.00 | 0.08 | 0.08 | 34 | 1012.0 |
| 20260904235251 | 25 | 240 | 8.0 | 17.7 | 0.00 | 0.08 | 0.08 | 36 | 1012.1 |
| 20260904235130 | 25 | 242 | 8.0 | 17.7 | 0.00 | 0.08 | 0.08 | 37 | 1012.1 |